GEFSSE_500_meanwind_042.txt.gz
Wind_Speed
5 6 7 8 9 9 10 10 10 10 10 10 10 9 8 7 5 3 1 3 5 8 10 13 15 16 17 19 19 19 19 18 17 16 15 14 12 12 11 10 10 10 9
3 3 4 5 6 7 8 8 9 9 9 9 9 8 8 7 6 5 3 1 2 5 7 10 12 14 15 17 18 18 19 19 18 17 17 16 15 14 14 13 12 11 10
1 1 2 2 3 4 5 6 6 6 7 7 7 7 7 7 6 6 4 3 1 2 4 7 9 11 13 15 16 17 18 18 18 18 18 17 16 15 15 14 12 11 10
1 2 2 2 2 2 3 3 3 4 4 5 5 6 6 6 6 6 5 4 3 1 2 4 5 7 10 11 12 13 14 15 16 16 16 15 15 15 14 13 11 10 9
2 3 4 4 4 3 3 2 2 1 1 2 3 3 3 4 4 5 5 5 4 3 1 1 3 5 6 6 8 9 11 11 11 12 11 11 11 11 11 11 10 9 8
4 4 5 6 6 6 6 6 5 3 2 2 2 2 2 2 2 3 3 4 4 4 3 2 1 2 3 4 5 6 7 7 7 7 6 6 6 6 7 7 6 6 5
5 6 6 7 8 9 9 9 9 8 7 6 5 4 4 3 2 2 1 2 3 4 4 4 3 2 2 3 4 5 6 5 5 5 4 3 3 3 3 3 3 3 3
7 8 9 9 10 11 12 12 12 12 11 10 9 8 7 7 6 4 3 2 0 2 2 3 3 3 4 4 5 6 6 5 5 5 5 5 4 4 3 3 3 3 3
10 10 11 12 13 14 15 15 15 15 15 14 13 12 11 10 9 8 7 5 4 2 1 1 2 3 4 5 6 6 6 6 6 6 6 6 6 5 5 5 5 5 5
13 14 14 15 16 16 18 18 18 18 18 17 16 15 14 13 12 11 11 9 8 6 5 4 3 3 3 4 5 6 6 6 6 6 7 7 6 6 6 6 6 6 6
16 16 17 18 18 19 20 20 21 21 20 20 20 18 17 17 16 15 14 13 12 11 9 8 7 5 4 4 5 5 5 5 5 6 6 6 6 6 6 6 6 6 6
22 21 21 21 22 22 23 23 22 22 22 22 21 21 20 20 19 19 18 16 16 15 13 12 11 9 8 7 6 6 6 5 4 5 5 5 5 5 6 6 6 6 6
27 27 28 27 26 26 26 26 25 24 24 23 23 23 23 23 22 22 22 21 20 19 18 16 15 13 12 11 10 9 8 7 6 5 5 5 4 4 4 4 4 4 5
32 32 33 33 32 32 31 30 29 27 26 26 26 25 25 26 25 25 25 24 24 24 22 21 19 18 16 14 13 12 11 10 9 8 7 6 5 4 4 4 4 3 3
35 35 36 37 37 36 36 35 34 32 31 30 28 27 27 27 26 26 27 26 26 27 26 25 23 21 20 19 17 16 15 14 13 11 10 9 8 7 6 5 4 3 3
36 36 37 38 39 39 39 39 38 37 36 36 34 32 30 29 29 28 27 26 27 28 29 28 26 25 24 22 21 20 19 18 17 16 14 13 12 10 9 8 7 6 4
35 36 37 37 38 38 39 40 40 39 39 38 38 37 36 35 33 32 30 29 29 29 30 30 30 29 27 26 24 23 22 21 21 20 19 17 15 14 13 12 11 9 8
33 34 35 35 35 36 37 38 39 39 39 39 40 40 39 38 37 35 33 32 31 30 30 31 32 32 30 28 27 26 25 24 24 24 23 21 20 18 16 15 14 13 11
32 33 34 34 34 34 35 35 36 37 38 38 39 40 40 40 40 39 37 35 33 32 32 32 32 32 31 31 30 29 28 28 28 27 26 25 23 22 20 19 17 16 15
31 32 32 34 35 35 36 36 37 37 38 38 37 38 39 39 40 40 40 39 37 35 34 34 33 33 33 32 32 32 31 30 30 29 29 28 26 25 23 22 21 19 18
29 30 30 31 32 32 33 34 35 37 38 38 38 37 38 38 39 40 40 40 40 39 37 35 34 34 33 33 33 33 32 32 32 31 30 29 28 27 26 24 23 22 21
27 27 26 26 27 28 30 31 32 34 35 35 36 37 38 38 38 39 40 40 41 40 39 38 37 36 33 32 32 32 33 32 33 33 31 30 29 29 28 26 25 24 23
23 23 22 23 23 24 25 26 27 29 31 32 33 33 34 36 37 38 39 40 41 41 41 41 39 39 36 34 33 33 33 33 32 33 32 31 30 29 29 28 26 25 24
19 18 18 18 19 19 20 21 22 23 25 27 29 31 33 34 35 37 38 40 41 42 42 42 43 41 39 37 35 34 34 34 34 34 34 33 31 30 29 29 28 27 26
16 16 15 15 16 17 17 17 18 19 20 22 25 28 31 32 34 36 37 39 41 41 42 42 43 43 42 40 38 36 36 35 35 35 35 35 34 32 30 30 29 28 27
16 16 16 16 16 16 16 15 15 15 16 18 19 21 24 27 30 33 35 36 39 40 41 42 43 43 42 42 40 39 37 35 36 37 38 38 36 35 33 32 31 30 28

GEFSSE_500_meanwind_048.txt.gz
Wind_Speed
2 3 3 4 5 6 8 9 10 10 10 10 10 9 8 7 6 4 2 1 3 5 7 9 11 13 14 15 16 16 17 17 17 16 15 15 14 14 14 13 13 12 11
1 1 1 1 2 3 5 6 7 8 8 9 8 8 8 7 6 5 3 2 1 3 5 7 9 11 12 14 15 17 17 17 17 18 17 16 16 15 15 15 14 13 11
2 2 3 2 1 1 1 3 4 5 5 6 6 6 6 6 5 5 4 3 2 2 3 5 7 9 11 13 15 16 16 17 18 18 17 17 16 16 16 15 14 12 11
3 4 5 4 4 3 2 1 1 2 2 3 4 4 4 4 4 4 4 4 3 2 3 4 5 6 8 10 12 14 15 16 17 17 17 17 16 16 15 14 12 11 9
6 6 6 6 6 6 5 5 3 2 1 1 1 1 2 2 3 3 3 3 3 3 3 3 3 4 5 7 9 11 12 13 14 14 14 14 14 14 13 12 10 9 8
8 9 9 9 9 9 9 8 7 6 5 4 3 3 2 2 2 2 2 2 3 3 3 3 3 3 3 4 6 7 8 9 10 10 10 10 10 10 9 8 7 7 5
11 11 11 11 11 11 11 11 11 10 9 8 7 6 6 5 4 3 2 2 2 2 2 2 2 2 1 2 3 4 4 5 6 6 5 5 5 5 4 4 4 3 3
13 12 12 12 13 13 14 14 14 14 13 13 12 11 10 9 8 7 5 4 3 2 2 2 2 2 1 1 1 2 3 3 3 3 3 3 2 2 2 1 2 2 2
14 14 14 14 15 16 17 17 17 17 17 17 16 16 15 13 12 10 9 8 7 5 4 3 2 1 1 0 1 1 2 2 2 3 3 3 3 3 3 2 3 3 3
17 16 17 17 18 18 18 19 20 20 20 20 20 20 19 18 16 14 13 11 10 9 7 6 4 3 2 2 1 2 2 3 3 3 4 4 4 4 4 4 4 4 4
21 20 21 21 20 20 20 21 21 21 22 22 22 23 23 21 20 19 17 15 14 13 11 10 8 6 5 4 4 3 3 3 4 4 4 5 5 5 5 5 5 5 5
27 27 27 27 26 25 24 24 24 24 24 24 24 25 24 24 23 22 21 19 17 16 15 14 12 10 9 8 7 6 5 5 4 4 4 4 5 5 5 5 5 5 5
32 33 33 33 32 32 32 31 30 29 28 27 26 25 25 25 26 25 24 22 21 19 18 17 16 15 13 12 11 9 8 7 6 6 5 5 4 5 5 5 4 4 5
35 36 36 36 36 37 37 37 36 35 33 32 31 30 27 26 26 26 26 24 24 23 22 21 20 19 18 16 15 13 12 11 10 8 7 6 6 5 5 4 4 4 4
35 35 36 36 37 37 38 39 39 39 38 37 35 34 32 30 27 27 27 27 27 26 25 24 22 22 22 21 19 17 16 14 13 12 10 9 8 7 6 5 5 4 4
34 34 35 35 35 35 36 37 38 40 40 40 40 39 37 35 33 30 28 28 28 28 27 26 25 25 26 25 24 22 20 19 17 16 14 13 11 10 9 8 7 6 5
32 32 33 33 33 33 34 34 35 37 39 40 41 42 41 40 39 36 34 32 31 29 27 26 27 26 26 27 27 26 25 23 22 20 18 17 15 14 12 11 10 9 8
29 31 32 32 32 32 33 34 34 35 35 36 38 40 42 43 43 41 40 38 36 34 31 29 29 29 27 29 30 29 28 27 26 24 23 21 20 18 16 14 13 12 11
28 29 29 30 30 31 31 32 32 33 34 34 35 37 38 40 42 43 42 42 40 38 36 34 32 31 30 30 31 32 31 31 30 29 27 26 24 22 20 18 17 16 14
26 26 26 26 27 27 28 29 29 31 32 32 33 35 36 37 39 40 42 43 43 41 39 38 36 33 31 30 31 33 34 34 33 31 31 29 27 25 24 22 21 20 18
22 21 21 21 22 23 24 25 26 27 29 30 32 33 35 36 37 39 40 41 43 43 42 41 39 37 34 32 32 31 34 35 36 35 34 32 30 29 27 26 24 23 22
19 19 18 18 18 18 19 20 22 23 25 26 28 31 33 35 37 38 39 41 42 42 43 43 42 40 38 37 35 33 32 33 36 37 36 35 33 32 31 29 27 26 25
19 18 18 17 17 17 17 17 18 19 20 22 24 26 29 32 34 36 38 40 41 41 42 44 45 44 42 41 39 36 33 32 34 37 38 37 36 35 33 31 30 28 27
19 19 18 18 17 17 16 16 15 15 16 17 19 21 23 26 29 32 35 38 40 41 42 43 44 44 44 43 41 40 37 35 34 35 37 38 38 37 36 34 32 31 29
20 20 19 19 18 18 17 16 15 14 14 14 15 16 18 21 24 27 30 34 37 40 41 43 44 44 45 44 43 42 40 39 37 36 35 37 39 38 37 37 35 34 32
21 21 21 20 19 19 18 16 15 15 14 13 13 13 15 16 19 22 25 29 33 36 39 41 43 44 44 45 45 44 43 42 39 38 37 37 38 39 39 39 37 35 33

GEFSSE_500_meanwind_054.txt.gz
Wind_Speed
4 4 4 4 4 5 5 6 6 6 6 6 6 6 6 6 6 6 6 7 9 10 12 13 15 15 15 15 16 16 16 16 16 15 15 14 13 13 12 12 12 12 12
5 6 6 5 5 6 6 6 6 6 6 6 6 6 6 5 5 5 5 5 6 8 10 11 12 13 14 15 15 16 16 16 16 16 16 16 15 14 13 13 12 11 11
7 7 8 8 7 8 8 7 7 6 6 6 6 5 5 5 4 4 4 4 4 5 7 8 10 11 13 14 14 15 16 16 16 16 16 16 16 15 14 13 12 11 10
9 10 10 10 10 10 10 9 9 8 7 7 6 6 5 5 4 4 4 4 4 4 5 6 8 9 11 12 13 14 14 15 15 15 15 15 15 15 14 13 12 10 9
11 11 12 12 12 12 12 12 12 11 10 9 8 7 7 6 5 5 4 4 4 3 3 4 5 6 8 10 11 12 12 13 13 14 13 13 14 14 13 12 11 10 8
12 13 13 14 15 14 14 15 15 14 13 12 11 10 9 8 7 7 6 5 4 4 3 3 4 4 6 7 8 9 9 10 11 12 11 11 11 11 10 10 9 8 7
14 14 14 15 16 17 17 17 17 17 17 16 15 13 12 11 10 9 8 7 6 5 4 3 3 3 4 5 5 6 6 7 8 8 8 8 8 8 7 7 7 7 7
16 15 16 17 18 18 20 20 20 20 19 19 18 17 16 14 13 12 10 9 8 7 5 4 4 3 3 3 4 4 5 5 6 6 6 7 6 6 6 5 5 6 6
19 19 18 18 19 18 19 20 21 21 22 22 22 21 20 18 16 15 14 12 11 10 8 7 5 4 4 4 3 4 4 5 5 6 6 6 5 5 5 5 5 6 6
23 23 23 23 21 21 20 21 22 22 22 23 24 23 22 21 20 19 18 16 15 13 12 10 8 7 6 5 5 4 4 5 5 6 6 6 6 6 6 6 6 7 7
29 28 28 29 28 27 26 25 25 24 24 24 24 24 24 22 21 21 20 20 18 17 15 14 12 10 8 7 7 6 5 6 6 6 6 6 6 6 6 7 7 7 7
32 33 34 34 34 34 33 32 32 30 28 27 25 24 25 25 24 23 22 22 22 20 19 17 15 14 12 10 9 8 8 7 7 7 7 7 7 7 7 7 8 7 7
34 34 35 36 36 37 37 38 39 37 35 33 31 29 27 27 26 25 24 25 25 24 22 20 19 18 16 15 13 12 11 10 9 9 9 9 9 8 8 7 8 8 7
33 34 35 36 36 37 38 39 40 41 40 39 37 35 34 33 30 28 27 25 26 27 26 24 22 21 20 19 18 16 14 13 12 11 11 10 10 9 9 8 8 8 8
30 31 32 33 34 35 36 37 38 39 40 41 41 40 38 37 35 34 32 30 28 27 28 27 25 24 23 22 21 20 18 17 16 15 13 13 12 11 10 10 9 9 8
28 29 29 30 30 31 32 33 34 35 37 38 40 41 41 40 39 37 36 34 31 29 28 28 27 26 25 25 25 24 22 21 19 18 17 16 14 13 12 11 11 10 9
24 25 26 27 28 28 28 29 31 32 34 35 36 38 39 41 41 41 40 38 36 33 31 31 29 29 28 27 27 27 26 25 24 22 21 19 18 16 15 14 13 12 11
22 23 23 23 24 25 25 26 27 28 30 32 34 35 36 38 40 41 42 41 40 38 36 34 32 30 30 29 30 29 29 29 28 26 25 23 22 20 18 17 16 15 13
20 20 20 20 20 21 21 22 23 25 27 29 31 33 35 37 38 40 41 42 43 42 40 38 35 33 31 31 31 30 29 31 31 30 29 27 25 24 22 21 19 18 16
18 19 19 18 18 18 18 18 19 21 23 25 28 30 32 34 36 38 40 42 43 43 42 40 38 36 35 33 32 32 31 30 32 33 33 31 29 28 26 25 23 22 20
19 19 19 18 17 16 16 16 17 18 19 21 23 26 29 31 33 35 38 40 42 43 42 42 41 40 39 37 36 34 33 32 33 34 35 34 33 32 30 29 27 26 24
19 19 19 18 17 16 16 16 16 16 16 18 19 21 24 27 29 32 34 37 39 41 42 42 42 42 42 40 39 38 37 34 33 34 36 37 37 36 34 33 31 30 28
20 20 20 19 17 17 16 15 14 13 13 14 16 18 20 23 26 29 32 34 37 39 40 41 41 42 42 42 41 40 39 37 35 36 35 38 38 38 37 36 35 34 32
20 20 20 20 18 17 17 16 15 13 12 12 12 13 16 18 21 24 28 31 34 37 39 40 41 41 42 42 42 42 42 40 39 37 37 37 39 39 40 39 37 36 35
20 20 20 20 20 19 18 17 16 15 13 12 12 11 12 14 16 19 23 27 30 33 37 39 40 41 42 42 42 43 45 45 43 41 40 39 39 39 41 41 41 39 38
20 20 20 20 20 20 19 17 16 15 14 13 12 12 11 11 13 15 17 22 25 29 32 36 38 40 41 42 42 43 44 45 45 45 43 41 40 39 40 42 42 41 40

GEFSSE_500_meanwind_060.txt.gz
Wind_Speed
10 10 10 10 10 10 9 9 8 8 8 8 7 7 8 8 9 10 11 12 13 14 15 16 17 18 18 18 19 19 19 18 18 17 15 14 13 12 11 11 11 10 10
11 12 12 12 12 12 12 11 10 10 10 9 9 9 8 8 8 9 9 10 11 12 13 15 16 17 17 18 18 18 18 19 19 18 17 16 15 14 13 12 11 11 9
12 13 13 14 15 15 14 14 13 13 12 11 11 10 10 9 9 9 9 9 10 11 12 13 14 15 16 16 17 17 18 19 19 19 18 17 16 15 14 13 12 11 9
13 14 15 16 17 17 17 17 16 16 15 14 13 12 12 11 10 9 9 9 9 9 10 10 12 13 13 14 15 16 17 17 18 18 18 17 16 15 14 13 12 11 9
15 16 17 18 18 18 19 20 20 20 19 18 16 15 14 13 12 11 10 10 9 8 8 9 9 10 11 12 13 14 15 16 17 16 16 16 15 14 13 12 11 10 8
19 19 20 19 19 20 20 21 22 23 23 22 20 19 18 16 15 14 12 11 10 9 8 8 8 9 9 10 11 12 13 14 15 14 14 14 14 13 12 11 10 9 8
22 22 22 22 22 22 22 22 22 24 25 25 24 23 21 20 18 17 15 14 12 11 10 8 8 8 8 8 9 9 11 12 12 12 12 12 12 11 10 9 9 8 7
25 25 26 25 25 24 24 24 25 25 25 27 28 26 25 23 21 20 18 17 15 14 12 10 9 8 8 8 8 8 9 9 10 10 10 9 9 9 8 8 8 7 7
29 28 29 28 28 27 26 26 26 26 27 27 29 28 27 26 25 24 23 21 19 17 15 13 11 9 8 8 7 7 8 8 8 8 8 8 8 8 7 7 7 7 7
31 32 31 31 31 31 30 30 29 29 27 27 27 28 29 28 26 26 26 25 23 21 18 16 13 12 10 8 8 7 7 7 7 7 7 8 7 7 7 7 7 7 7
32 33 34 34 34 34 34 33 33 33 32 30 28 28 28 29 28 27 27 26 26 24 22 19 17 15 12 10 9 8 8 8 7 7 8 8 8 8 8 8 7 7 7
32 33 33 34 34 34 35 35 35 35 35 34 33 32 30 28 28 28 28 27 25 25 24 23 20 18 16 13 11 10 10 9 8 8 8 8 9 8 8 8 8 7 8
31 32 32 32 33 33 32 33 34 35 35 35 35 34 33 32 31 29 29 28 27 26 25 25 24 21 19 17 15 13 12 11 10 10 9 10 10 9 9 8 8 8 8
27 28 28 29 29 30 29 29 31 32 32 33 34 35 34 34 32 31 31 30 29 27 25 24 25 24 23 21 19 17 15 14 13 12 11 11 11 11 10 9 9 9 9
25 25 25 25 25 25 26 26 27 27 28 29 30 32 33 33 33 33 31 32 30 29 27 25 25 25 24 24 22 21 19 17 16 15 14 13 13 12 11 11 10 10 9
22 22 22 22 22 22 22 22 23 24 25 26 27 28 30 30 31 33 32 32 31 30 30 28 26 26 26 25 25 24 23 21 20 19 17 16 15 14 13 12 12 11 10
21 21 21 21 21 21 20 20 20 21 22 23 24 26 27 28 29 31 31 31 32 32 31 30 28 27 27 27 27 26 25 24 23 22 21 19 18 17 16 15 14 13 12
21 21 21 21 21 20 19 19 19 19 19 20 21 23 25 26 27 28 30 30 31 31 31 30 30 30 28 27 27 27 27 26 26 26 25 23 22 20 19 17 16 15 14
21 21 20 21 20 19 18 18 18 17 17 18 19 20 21 23 25 26 27 29 30 30 31 30 30 30 30 28 27 27 26 27 28 28 28 27 25 24 22 21 19 18 17
20 21 20 20 20 19 18 18 17 16 16 16 17 18 18 20 21 23 25 27 28 29 30 30 31 31 31 31 29 28 27 27 27 28 29 31 30 28 26 25 23 21 20
21 21 20 20 20 19 18 17 16 15 14 14 14 14 15 17 18 20 23 24 26 28 29 30 31 32 32 32 31 30 28 28 27 28 29 31 32 32 30 28 27 25 24
21 21 21 21 20 20 19 17 16 15 13 12 11 11 12 13 15 17 20 22 24 26 28 28 30 31 32 33 32 32 31 29 28 29 28 30 33 34 34 32 31 29 27
20 21 21 21 21 20 19 18 17 15 13 12 11 10 10 11 12 14 16 19 21 23 25 27 28 30 31 32 33 33 32 32 31 31 30 30 32 34 34 34 34 33 31
20 21 21 21 21 21 21 19 18 16 14 13 11 11 10 10 11 12 13 15 18 20 23 25 26 27 29 30 32 34 34 34 34 32 32 32 32 34 35 36 36 36 35
20 21 21 22 22 22 22 21 20 18 17 15 13 12 11 10 10 10 11 12 15 17 20 23 25 26 27 29 31 33 34 35 36 35 34 34 34 34 35 37 37 38 37
19 20 21 22 22 23 22 22 21 20 19 17 16 15 14 12 10 10 10 11 12 15 17 20 22 25 27 28 30 32 34 35 36 36 37 37 36 36 36 36 36 37 39

GEFSSE_500_meanwind_066.txt.gz
Wind_Speed
10 9 9 10 10 11 11 12 11 11 11 11 11 11 11 11 11 11 12 12 13 13 14 14 15 16 17 18 19 20 20 20 19 18 17 16 14 13 13 12 11 10 9
11 11 10 11 11 13 14 14 14 13 13 13 13 13 13 12 12 12 12 12 13 13 14 14 15 15 16 18 19 19 19 20 20 20 19 18 16 15 14 13 12 10 9
12 12 12 13 13 14 15 16 16 16 16 16 15 15 15 14 13 13 13 13 13 13 13 14 14 14 15 17 18 18 18 19 19 20 19 19 18 16 15 13 12 11 9
14 15 15 15 15 16 17 18 18 18 19 19 18 18 17 17 15 15 14 14 13 13 13 13 13 13 14 15 16 17 18 18 18 18 19 19 18 17 16 15 13 12 10
17 18 18 18 19 19 19 19 20 20 21 21 21 20 20 20 19 17 16 15 14 14 13 13 13 13 13 14 14 15 16 17 17 17 18 18 17 17 16 15 13 11 10
20 21 22 22 22 22 22 21 22 22 22 23 24 23 23 22 22 20 19 17 16 15 14 13 13 12 12 13 13 13 14 15 16 17 17 17 17 16 15 14 12 11 9
25 25 25 25 25 25 26 25 25 25 25 25 26 26 26 25 24 24 23 21 19 17 16 15 14 13 12 12 12 13 13 14 14 15 15 15 15 14 14 13 12 10 9
27 27 27 27 28 28 28 29 29 29 28 28 27 28 28 27 27 26 26 25 23 21 19 17 15 14 13 12 11 12 12 12 13 13 14 14 13 12 12 12 11 10 9
28 28 28 28 28 29 29 30 31 31 30 30 29 29 29 29 28 28 28 27 25 24 22 20 18 16 15 13 12 11 11 11 11 12 12 12 12 11 11 11 10 10 9
26 27 27 27 27 28 28 29 30 32 32 32 31 30 29 29 29 30 30 29 27 26 24 22 20 19 17 15 13 12 12 11 11 11 11 11 11 11 10 10 9 9 10
25 26 26 26 26 26 26 27 28 30 31 32 32 32 31 30 30 30 30 30 29 27 25 24 23 21 20 17 15 13 12 12 11 11 10 10 10 10 9 9 9 9 9
23 23 23 23 23 23 24 24 25 27 29 30 31 32 32 32 30 29 29 30 29 28 27 25 24 23 22 20 18 15 13 12 12 11 10 10 10 10 9 9 9 9 10
21 21 21 21 22 22 22 22 23 23 25 26 28 30 31 31 31 30 29 30 29 28 27 26 25 24 24 23 21 18 16 14 13 12 11 11 11 10 10 9 9 10 10
19 19 19 20 20 20 20 20 20 21 21 23 24 26 28 29 30 30 30 30 30 29 29 28 26 24 23 24 24 21 19 17 16 14 13 12 12 12 11 10 10 10 10
18 18 19 19 19 19 19 19 19 19 20 21 22 23 24 26 27 28 29 30 29 29 29 30 28 27 25 24 25 25 22 20 19 17 16 14 13 13 13 12 11 11 11
18 18 18 18 19 19 19 18 17 17 17 17 19 20 22 23 25 26 27 28 29 29 27 29 28 28 28 26 26 27 26 24 21 20 19 17 16 15 15 13 13 12 12
18 18 19 19 19 19 18 17 16 16 16 16 16 17 19 21 23 25 25 26 28 29 29 29 29 28 28 27 26 27 28 27 24 22 21 20 19 18 17 16 15 14 13
18 19 20 19 19 19 18 17 16 14 13 14 14 15 16 18 20 22 24 25 27 28 28 28 29 29 29 28 27 27 28 29 27 25 23 22 21 20 19 18 17 16 15
19 19 19 19 19 19 18 17 16 14 12 12 12 12 13 15 17 19 21 23 25 27 28 28 28 29 29 29 28 27 28 29 28 27 26 25 24 23 22 21 20 18 17
18 19 19 19 19 19 18 18 16 14 12 11 9 9 9 11 13 15 17 20 22 24 26 26 27 29 29 29 29 28 29 28 26 27 28 28 27 26 26 24 23 21 20
18 18 19 19 19 19 19 19 18 16 14 12 10 8 7 7 8 10 13 16 19 21 23 24 26 27 29 29 29 30 29 29 27 27 28 30 30 30 29 28 26 25 24
17 18 19 19 20 20 20 19 19 17 16 14 12 10 7 6 6 7 9 12 15 18 20 22 24 25 27 28 29 29 28 29 29 30 28 29 31 31 32 32 30 29 27
17 18 19 19 20 20 20 20 19 19 17 16 15 13 10 8 6 6 7 9 11 13 16 19 21 24 25 26 27 28 28 28 30 30 31 30 30 31 32 33 34 32 31
16 17 18 19 20 20 20 20 20 20 19 18 17 16 14 11 9 7 6 6 8 10 12 16 18 21 23 25 27 28 29 29 30 31 31 33 33 32 32 33 35 36 35
15 16 17 18 19 20 20 20 20 20 20 19 18 17 16 14 11 10 8 6 6 8 9 12 16 18 21 24 26 28 29 30 31 32 32 34 35 34 34 35 36 36 37
14 15 16 17 19 19 20 20 20 20 20 19 19 19 17 16 14 12 10 8 7 7 8 9 12 15 18 20 23 25 28 30 31 33 34 35 36 37 37 37 37 38 38

GEFSSE_500_meanwind_072.txt.gz
Wind_Speed
11 11 11 11 11 11 12 12 13 13 13 12 11 10 9 9 9 9 8 9 9 10 10 11 11 12 12 12 13 14 15 15 16 16 15 14 13 12 11 10 9 9 8
12 13 13 13 13 13 14 14 14 14 15 15 14 13 13 12 11 11 10 10 10 10 10 11 11 12 12 12 13 14 15 16 16 17 17 16 15 15 13 12 12 10 9
14 14 15 15 15 16 16 17 17 17 17 17 17 16 16 15 14 13 12 12 12 11 11 11 12 12 11 12 12 13 14 15 16 16 16 17 16 16 15 14 13 11 9
16 16 17 18 18 19 19 19 19 20 20 19 19 19 18 18 17 16 15 14 14 13 12 12 12 12 12 11 12 13 13 14 15 15 16 16 16 16 15 14 13 11 9
20 20 20 21 21 22 22 22 22 23 22 21 21 21 21 21 20 19 18 17 16 15 14 13 12 12 12 11 12 12 12 13 14 15 15 16 15 15 15 14 13 12 10
21 22 23 23 24 24 24 24 25 25 25 25 24 23 23 23 22 22 20 19 18 17 16 15 14 13 12 12 11 11 12 12 13 14 14 14 14 14 14 14 13 11 9
23 24 25 25 26 26 27 27 28 28 28 28 27 26 26 25 25 24 24 22 21 20 18 17 16 14 13 13 12 11 11 12 12 12 13 13 13 13 13 13 12 10 9
24 24 25 25 25 26 27 27 28 29 29 30 30 29 28 28 27 26 26 25 24 22 21 20 18 16 15 14 13 12 11 11 11 11 11 12 12 12 12 11 11 10 9
23 24 25 25 25 25 26 26 26 27 28 29 30 31 30 30 29 28 28 27 27 25 23 23 21 19 18 16 15 13 12 11 11 11 11 10 10 11 10 10 10 10 10
22 23 23 23 23 23 23 24 24 25 27 27 29 31 31 31 31 29 29 29 29 27 26 24 23 22 20 18 17 15 13 12 11 11 10 10 10 10 10 9 10 10 10
20 20 20 20 21 21 21 22 23 24 25 25 26 27 29 31 31 31 30 30 30 28 27 27 25 24 22 20 18 17 15 13 12 11 10 10 10 10 10 10 10 10 11
18 18 18 18 19 19 19 20 21 22 23 23 23 25 27 28 30 32 32 31 29 29 28 26 26 25 23 21 20 19 18 15 13 12 11 10 10 10 10 10 10 10 11
16 17 18 18 18 18 19 19 19 20 20 21 22 22 24 26 28 30 31 32 30 29 28 27 25 27 24 23 20 19 19 17 15 13 12 11 11 11 11 10 10 10 11
16 17 17 17 17 18 18 18 19 19 19 19 20 21 22 23 25 27 28 30 30 29 29 28 27 26 25 23 22 20 20 20 17 15 13 13 12 12 11 11 11 10 11
15 16 17 17 17 17 17 18 18 18 17 17 17 18 19 20 21 23 25 27 28 28 29 28 27 26 27 24 22 22 21 22 20 17 15 14 13 12 12 11 11 11 12
14 15 16 16 17 17 17 17 17 17 16 16 15 15 16 17 18 20 22 24 26 28 28 27 27 26 26 26 24 23 22 22 21 20 18 16 15 14 13 13 13 12 12
14 15 15 16 17 17 17 17 18 17 16 15 14 14 13 14 15 17 19 22 24 27 27 27 27 26 26 26 25 24 23 23 23 21 20 19 18 16 15 14 14 14 14
13 14 15 16 17 18 18 18 18 18 17 15 14 13 12 12 13 14 16 18 21 24 25 25 26 26 26 25 26 25 24 24 25 24 22 21 20 19 18 17 16 16 15
13 14 16 16 17 18 19 19 19 19 18 16 14 12 10 10 10 10 12 15 17 19 22 24 25 26 26 26 26 26 25 24 25 26 26 24 23 22 21 20 19 18 17
12 14 16 17 18 19 19 19 19 19 18 17 15 13 10 9 8 9 9 11 14 16 18 21 22 24 25 26 27 27 27 26 26 27 28 27 26 25 24 22 22 21 20
12 14 15 17 18 19 19 19 19 19 19 18 17 15 12 9 8 7 8 8 10 13 16 18 20 23 25 25 26 27 27 27 27 27 27 28 28 28 27 25 24 24 23
11 13 15 16 18 18 19 19 19 19 19 19 19 17 14 12 9 7 6 6 7 10 13 16 18 20 22 24 25 26 27 27 27 28 27 28 29 29 29 28 27 26 26
11 12 14 16 17 18 19 19 19 19 19 19 19 18 16 14 12 9 7 5 5 7 10 13 16 17 19 21 23 25 26 26 27 28 28 29 30 30 30 31 30 29 28
10 12 13 15 17 18 18 19 19 19 19 19 19 19 17 15 13 11 9 7 5 4 6 9 11 14 17 20 22 24 25 26 27 28 29 30 30 30 31 31 32 32 32
9 11 13 14 16 17 18 19 19 19 19 19 19 19 18 17 15 13 11 9 7 5 4 5 8 11 14 17 20 22 25 26 27 28 29 30 31 31 32 33 34 33 33
8 10 12 14 15 16 17 18 18 19 19 19 19 19 18 18 17 15 13 11 9 7 5 5 6 8 11 14 17 19 22 24 26 27 29 30 31 32 33 33 35 36 35

GEFSSE_500_meanwind_078.txt.gz
Wind_Speed
11 11 11 11 12 12 12 12 12 12 12 13 13 14 14 14 13 14 14 14 14 14 14 14 13 14 14 14 13 13 14 14 14 14 14 13 12 11 9 8 6 5 5
13 13 13 13 14 14 14 15 15 15 15 15 15 15 16 15 15 15 15 15 15 15 15 15 14 14 14 14 14 13 13 14 14 14 14 14 13 13 11 9 8 6 5
15 15 15 15 16 16 17 18 18 18 18 18 18 17 17 17 17 17 17 17 17 16 16 16 15 15 15 15 14 14 14 14 14 14 14 14 14 14 13 11 10 8 6
17 17 17 18 18 19 20 21 22 23 22 22 21 20 19 19 19 19 19 19 19 18 18 17 17 16 15 15 15 14 14 14 14 14 14 14 14 14 14 13 11 10 8
18 19 19 20 21 21 22 23 24 25 25 24 24 23 22 21 21 21 21 21 21 20 20 19 18 17 17 16 15 15 14 13 13 13 14 14 14 14 13 13 12 11 9
19 20 20 21 22 22 23 24 25 27 27 27 26 26 25 24 24 24 23 23 23 23 22 21 20 19 18 17 16 15 14 13 13 13 13 14 14 13 13 13 12 11 10
20 20 20 21 21 23 24 24 25 27 28 28 28 28 28 28 27 26 25 24 24 24 23 23 22 20 19 18 16 15 14 13 13 13 13 13 13 13 13 13 12 11 11
19 19 19 20 21 22 22 23 24 25 26 27 28 29 30 30 30 29 28 27 26 25 25 24 23 22 20 19 17 16 15 14 13 13 13 13 13 12 12 12 12 12 11
17 17 18 18 19 19 20 21 22 23 24 25 26 28 29 30 31 31 31 30 28 27 28 26 25 23 22 20 19 17 16 15 14 13 12 12 12 12 12 12 12 11 11
16 16 17 17 17 18 18 19 19 20 21 22 23 24 26 28 29 31 32 31 30 29 28 27 26 25 24 21 20 18 17 16 15 14 13 12 12 12 12 12 12 12 12
15 15 15 16 17 17 17 17 18 19 19 20 21 22 23 26 27 29 30 30 31 30 28 28 26 27 26 24 21 20 18 17 16 15 14 13 13 13 13 13 13 13 12
13 13 14 15 15 16 16 16 17 17 18 18 19 20 21 23 25 27 28 28 29 30 29 28 27 26 26 25 23 20 19 17 16 16 15 14 14 13 13 13 13 13 13
12 12 12 13 14 15 15 15 16 16 17 17 18 19 20 21 22 23 24 26 27 28 29 28 28 27 26 25 24 22 21 20 17 17 16 15 15 14 14 14 14 14 14
10 10 11 12 13 13 14 15 15 16 16 16 16 17 17 18 19 20 22 24 25 26 27 28 28 27 26 25 24 23 21 21 19 19 17 16 15 15 14 14 14 14 15
9 9 10 11 12 13 13 14 15 15 15 15 16 16 16 16 17 18 19 20 22 24 25 26 27 27 25 25 24 23 23 22 20 20 18 17 16 15 15 14 14 15 15
7 8 9 10 12 13 14 14 15 15 15 15 15 15 15 15 15 15 17 18 19 21 23 25 26 27 26 26 26 25 24 24 22 21 20 19 17 16 15 15 15 15 15
6 7 8 10 12 13 14 15 15 15 16 16 15 14 13 12 12 13 14 15 17 19 20 23 25 26 26 26 26 26 25 24 24 23 22 20 19 18 17 16 16 16 16
6 7 8 10 11 13 14 14 15 15 16 16 15 14 12 10 9 10 11 13 15 17 18 21 24 25 25 26 26 26 26 26 25 24 24 22 21 20 18 17 16 16 17
5 7 8 10 11 12 13 14 15 16 16 16 15 14 12 9 8 8 9 11 12 14 15 17 21 24 24 25 26 26 26 26 27 25 24 24 22 21 20 19 18 17 17
5 6 8 9 11 12 13 14 15 16 16 16 15 14 12 10 8 6 7 8 9 11 13 15 18 21 22 23 23 23 25 26 26 26 26 26 25 23 21 20 20 19 18
5 6 7 9 10 12 13 14 15 16 16 16 15 14 12 10 9 7 5 6 6 8 10 13 16 19 20 21 22 22 23 24 25 26 26 26 26 25 24 23 22 20 20
5 6 7 8 10 11 12 14 15 15 16 16 16 15 13 11 9 7 6 4 4 6 8 10 13 15 18 20 20 21 22 23 24 26 26 26 26 27 27 26 24 23 22
5 5 7 8 9 11 12 13 14 15 16 16 16 15 14 13 11 9 6 4 2 2 4 7 10 13 15 17 19 20 22 23 24 25 26 26 26 26 27 27 26 25 25
5 5 7 8 9 10 11 12 13 14 15 15 15 15 15 14 12 10 8 6 4 1 1 4 6 9 12 15 17 19 20 22 23 24 25 26 25 26 27 27 28 28 27
5 5 7 8 9 10 11 12 13 13 14 14 15 15 15 14 13 12 10 8 6 3 1 1 3 6 8 11 14 16 18 20 22 23 24 25 26 26 27 27 28 29 29
5 5 6 7 9 10 10 11 12 12 13 13 14 14 14 14 13 12 11 10 8 6 3 1 1 3 6 8 11 13 16 18 20 21 22 23 24 25 26 27 28 30 30

GEFSSE_500_meanwind_084.txt.gz
Wind_Speed
12 13 13 14 15 15 15 16 15 15 15 14 15 15 16 16 17 17 18 18 18 18 18 18 18 17 17 16 16 16 15 14 14 14 14 13 12 11 10 8 6 5 4
14 15 16 17 17 17 18 18 18 18 18 18 18 18 19 19 19 19 20 20 20 20 19 19 19 19 18 18 17 17 16 16 15 15 15 14 14 13 11 10 8 6 4
15 16 17 18 18 19 19 19 20 20 20 20 21 22 22 22 21 22 22 22 22 22 22 21 21 20 19 19 18 18 17 17 16 15 15 15 14 14 13 12 10 8 6
17 18 18 19 19 20 20 20 21 22 23 23 24 25 25 25 25 24 24 24 24 24 24 23 23 22 21 20 19 19 18 17 17 16 15 15 15 15 14 13 11 9 8
18 18 19 19 19 20 20 21 22 23 24 25 26 26 26 26 26 25 25 25 25 26 25 25 24 23 23 21 20 20 19 18 17 16 16 15 15 14 14 13 12 11 9
18 19 19 19 19 20 20 20 20 21 22 24 25 25 25 26 26 26 26 26 26 27 27 27 26 25 24 23 22 21 20 19 18 17 16 15 14 14 14 13 13 12 11
18 18 18 18 18 18 18 18 18 19 20 21 22 23 24 25 24 25 25 26 26 27 27 27 27 27 26 25 24 23 21 20 19 17 16 15 14 14 14 13 12 12 11
17 17 16 16 16 16 16 17 17 17 18 18 20 21 22 24 25 25 25 27 27 28 28 28 28 28 27 26 25 24 23 21 20 18 17 15 15 14 14 13 13 13 12
16 15 14 14 15 15 16 16 17 17 18 18 18 19 20 22 23 24 26 27 28 28 29 29 29 29 28 27 26 25 24 23 21 19 17 15 15 15 14 14 13 13 13
14 14 14 13 13 14 15 15 16 17 17 18 18 19 19 20 21 22 24 27 29 29 29 29 29 29 29 28 27 26 25 24 22 20 18 16 16 15 15 14 14 13 13
13 13 13 13 14 14 14 15 16 17 18 18 18 19 19 20 20 21 22 24 25 27 28 29 30 29 29 28 27 27 25 24 22 20 18 18 17 16 16 15 14 14 14
11 12 12 13 14 14 15 15 16 17 18 18 18 19 19 20 20 20 21 21 23 24 26 27 29 29 28 27 27 27 27 25 23 21 19 19 18 17 17 16 15 15 14
11 11 12 13 13 14 15 16 17 18 18 19 19 19 19 19 19 20 20 20 20 21 23 24 26 27 27 26 25 26 27 25 24 22 20 19 19 17 17 17 16 15 15
10 11 11 12 13 14 15 16 17 18 19 19 20 19 19 19 19 18 19 19 19 19 20 21 23 25 27 25 25 25 26 26 25 23 21 19 19 18 17 17 16 16 16
10 10 11 12 13 14 16 17 18 19 19 20 20 20 20 19 19 18 18 18 18 18 18 19 20 22 25 26 25 25 25 26 24 23 21 19 19 18 18 17 16 16 16
9 10 11 12 14 15 16 17 18 19 20 20 20 20 20 19 18 17 16 16 16 16 17 18 18 19 21 24 23 23 24 25 24 24 23 20 20 19 18 18 17 17 17
9 10 11 12 13 15 16 17 18 19 20 21 21 20 20 18 17 16 14 14 14 14 14 16 17 18 19 21 22 22 23 25 24 24 24 22 20 19 19 18 17 17 17
9 10 11 12 14 15 16 17 18 19 20 21 21 20 19 18 16 15 13 12 11 12 12 14 15 15 18 20 21 22 23 25 24 24 24 23 21 20 19 19 18 17 17
9 10 11 12 14 15 16 17 18 19 20 20 21 20 19 18 16 14 12 11 10 10 10 11 13 14 16 19 20 21 23 24 25 25 25 23 22 21 20 19 19 18 17
9 10 11 12 13 15 16 17 18 19 19 20 20 20 19 18 16 14 13 11 9 8 9 9 11 13 14 17 19 20 22 24 25 25 25 24 23 22 21 20 20 18 17
9 10 11 12 14 15 16 17 18 18 19 19 20 20 19 18 16 15 13 11 9 7 7 7 9 11 13 15 17 19 20 23 24 25 25 24 24 24 22 21 21 19 18
9 10 11 12 13 15 16 17 17 18 18 19 19 19 18 17 16 15 13 11 8 6 5 4 6 9 11 13 14 16 18 20 22 23 24 24 25 25 24 22 21 20 19
9 10 11 12 13 14 15 16 17 17 18 18 18 18 18 17 16 15 13 11 8 6 4 3 3 6 9 12 13 14 15 17 19 22 22 23 23 25 25 23 23 22 21
10 10 10 11 13 14 15 16 17 17 17 17 17 17 17 16 15 14 13 11 9 6 4 3 1 4 7 10 12 12 14 15 16 19 21 22 22 23 24 25 25 24 23
9 9 10 11 12 13 14 15 16 16 16 16 16 16 16 16 15 14 13 12 10 7 6 4 2 2 5 7 9 11 13 15 15 17 18 19 21 22 23 25 25 25 25
9 9 9 10 12 13 14 15 15 15 15 15 15 15 15 15 14 13 13 12 11 8 6 5 3 1 2 4 6 9 12 14 15 16 17 18 20 21 22 23 25 25 25

GEFSSE_500_meanwind_090.txt.gz
Wind_Speed
9 10 11 12 13 15 15 16 17 17 17 18 19 19 20 20 20 21 20 20 20 21 21 21 20 20 20 19 19 18 17 16 15 15 14 14 13 12 11 9 7 5 3
11 12 13 14 15 16 17 17 18 19 19 20 21 21 21 22 22 22 23 23 23 23 23 23 22 22 21 20 20 19 17 16 15 15 14 14 14 13 12 10 8 6 4
12 13 14 14 16 17 17 18 19 20 20 21 22 22 23 23 24 24 25 25 26 26 25 25 25 24 23 22 21 20 19 17 16 16 15 14 14 14 13 11 10 8 6
13 14 14 15 15 16 17 18 19 19 20 21 21 22 24 25 26 26 26 27 27 27 27 26 26 26 25 23 22 21 20 18 17 17 16 15 14 14 13 12 11 10 8
14 14 14 14 15 15 16 17 17 17 17 18 19 20 22 24 25 27 27 27 28 28 28 28 27 27 26 25 24 23 21 19 18 17 16 16 15 14 14 13 12 10 9
14 13 13 13 14 14 14 14 15 15 15 16 17 18 20 21 23 24 26 27 28 28 27 28 28 28 28 26 25 24 22 20 19 18 17 17 16 15 14 13 13 11 10
12 12 12 12 12 13 13 13 13 14 14 15 15 16 17 19 20 22 24 25 26 27 27 28 28 28 28 27 27 26 24 22 20 19 18 17 16 15 14 13 13 12 11
11 11 11 11 12 12 12 12 13 13 13 14 15 16 17 18 19 20 21 23 25 26 26 27 28 28 28 28 28 28 26 24 22 20 19 18 16 15 15 14 13 13 12
10 10 11 11 11 11 11 12 12 13 13 14 15 16 16 17 18 18 19 21 22 24 25 26 27 27 28 28 28 28 27 25 23 21 20 19 17 16 15 14 14 13 12
8 9 10 11 11 11 11 12 12 12 14 15 15 16 17 17 18 18 19 20 21 22 24 25 26 26 26 28 28 27 27 26 24 22 21 19 18 16 15 14 14 14 13
8 8 9 10 10 11 11 11 12 13 14 15 16 17 17 18 18 19 19 19 20 21 22 23 25 26 26 26 27 27 27 26 24 23 22 20 19 17 16 15 15 15 14
8 7 8 8 9 10 11 11 12 13 14 15 16 17 18 19 19 19 19 19 20 20 21 22 24 26 26 25 25 27 27 26 25 24 23 21 19 18 17 16 16 16 15
7 7 7 8 9 9 10 11 12 13 15 16 17 18 19 20 20 20 19 19 19 19 19 20 22 24 25 25 25 26 26 26 25 25 24 22 20 19 18 17 16 16 16
7 7 8 9 9 10 10 11 13 14 15 17 18 19 20 20 20 19 19 18 18 18 18 19 20 21 23 24 25 25 26 26 26 26 25 24 22 20 19 18 17 17 16
7 8 9 9 10 10 11 12 14 15 16 17 18 20 20 20 20 19 18 17 17 16 16 17 18 19 21 23 24 25 26 26 26 27 26 24 23 21 20 19 18 18 17
8 8 9 9 10 10 12 13 14 15 17 18 19 20 20 20 20 19 17 16 15 15 15 16 17 18 19 21 23 25 27 26 26 26 26 25 23 22 20 19 18 19 18
8 8 9 10 10 10 12 13 14 15 17 18 19 20 21 20 19 18 17 15 14 13 13 14 16 17 18 20 21 24 26 26 26 26 26 26 24 22 21 20 19 19 18
8 8 9 10 10 10 12 13 14 16 17 18 19 20 21 20 19 18 17 15 13 12 12 12 14 16 18 19 20 23 25 25 25 27 26 26 24 23 21 20 19 19 19
7 8 9 9 10 11 12 13 15 16 17 18 19 20 20 20 19 18 16 15 12 10 10 10 12 14 17 19 20 21 24 25 25 26 26 26 25 24 22 21 20 20 19
7 8 8 9 10 11 12 14 15 16 17 18 19 20 20 19 19 18 16 14 11 10 9 9 10 11 15 17 18 20 21 22 24 24 26 25 25 25 23 22 21 20 20
7 8 8 9 9 11 12 14 15 16 16 17 18 19 19 19 18 18 16 14 12 9 7 6 7 9 13 15 16 18 20 21 22 23 24 25 25 25 24 23 22 21 20
6 7 8 9 10 11 12 13 15 16 16 17 17 18 19 19 18 18 17 14 11 9 6 4 4 7 10 13 15 16 19 20 22 23 24 25 24 24 24 23 22 22 21
7 7 8 9 10 11 12 13 14 15 16 16 17 17 18 18 18 17 16 14 11 8 6 4 2 5 9 12 13 15 17 19 20 22 22 24 24 24 23 22 22 21 21
7 8 8 9 9 10 11 13 14 14 15 15 16 16 17 17 17 17 16 14 12 9 6 4 0 3 7 10 12 13 16 17 18 20 21 22 24 24 23 23 23 23 22
8 8 8 9 9 10 11 12 14 14 14 15 15 16 16 17 16 16 16 14 12 9 7 5 2 3 5 8 10 12 13 15 16 18 19 21 24 24 23 23 24 24 24
8 8 8 9 9 9 10 12 13 13 13 14 14 15 15 16 15 15 15 14 12 10 7 5 3 3 4 6 9 11 12 13 15 16 18 19 22 23 23 22 23 24 25

GEFSSE_500_meanwind_096.txt.gz
Wind_Speed
9 10 11 12 13 14 15 16 17 17 18 18 18 18 18 18 18 18 18 18 18 18 18 18 18 18 17 17 16 15 14 13 13 12 11 10 9 8 7 6 5 4 3
10 11 12 13 14 14 15 16 17 17 18 18 18 18 18 18 19 19 19 19 20 19 19 20 20 19 19 18 18 16 15 14 13 13 12 10 9 9 8 7 6 5 3
11 12 13 13 14 14 15 15 16 17 17 17 17 17 17 18 19 19 20 20 21 21 21 21 22 21 21 20 19 18 16 15 14 13 12 11 10 9 9 8 7 5 4
11 12 13 13 14 14 14 14 15 15 15 15 15 15 16 16 17 18 19 20 21 22 22 22 23 23 22 21 21 20 18 17 15 14 13 12 11 10 9 8 7 6 5
12 12 12 13 13 12 13 14 14 14 14 14 14 15 15 15 16 17 18 20 21 22 22 23 24 24 23 22 21 21 19 18 16 14 13 12 12 10 10 9 8 7 6
12 11 11 11 11 12 12 13 13 13 13 13 14 14 14 15 16 17 18 19 20 21 22 23 24 24 24 22 21 21 20 19 17 15 14 13 12 11 11 10 9 8 7
11 10 10 10 11 11 11 12 12 12 13 13 13 14 14 14 15 16 17 18 19 20 21 22 23 24 24 24 22 22 22 20 19 17 15 14 13 12 12 11 10 9 8
10 9 9 10 10 11 11 12 12 12 13 13 13 14 14 14 15 16 17 18 19 19 20 21 22 23 24 24 23 22 22 21 20 18 17 16 15 13 12 11 11 10 10
9 9 9 9 10 10 11 12 11 12 12 13 13 14 15 15 16 17 17 18 19 19 20 20 21 22 23 23 23 22 22 22 21 20 18 17 16 14 13 12 11 11 10
9 9 9 9 9 10 11 12 12 12 12 13 13 14 15 16 16 17 18 18 19 19 20 20 21 22 23 23 22 23 22 22 22 21 20 18 17 16 14 13 12 12 12
9 9 9 9 9 10 11 12 12 12 13 13 14 15 16 17 17 18 18 19 19 19 19 20 20 21 22 22 21 22 22 22 22 22 22 20 18 17 16 15 14 13 13
8 8 8 9 9 11 11 12 12 12 13 13 14 15 16 17 18 18 18 19 19 19 19 20 20 20 21 22 21 21 21 22 22 22 22 21 20 18 17 15 15 14 14
8 8 8 9 9 11 12 12 12 12 13 14 15 16 17 18 19 19 19 19 19 19 19 19 19 20 20 21 20 21 21 21 22 22 22 22 21 19 18 17 16 15 15
8 8 8 9 9 11 11 12 12 12 13 14 16 17 17 18 19 19 20 19 19 19 19 18 18 19 19 19 19 19 20 20 21 22 23 23 21 20 19 18 17 16 16
8 8 8 9 10 10 11 12 12 13 14 15 16 17 17 18 19 20 20 19 19 18 18 17 17 17 18 18 19 20 20 21 21 21 22 23 22 21 19 18 18 18 17
8 8 8 9 10 10 10 11 11 12 14 15 16 17 18 18 19 19 19 19 18 18 17 17 16 17 17 18 19 19 20 21 22 22 22 22 23 22 21 19 19 18 18
8 8 8 9 9 10 10 11 12 13 14 15 16 17 18 19 19 19 19 18 18 17 17 16 16 16 17 18 19 19 20 21 21 21 22 22 22 23 21 20 19 19 18
9 8 9 9 9 10 10 11 12 13 14 16 16 17 18 18 19 19 18 18 18 17 16 15 15 15 16 17 18 19 20 21 21 21 22 22 22 23 23 22 20 20 19
9 9 9 9 9 9 10 11 12 13 15 16 17 17 17 18 19 18 18 18 18 17 15 14 13 13 14 15 17 19 20 20 21 21 22 23 23 24 23 23 21 20 19
9 9 9 8 9 9 10 11 12 13 15 16 16 17 17 18 18 18 18 17 17 16 14 13 12 11 12 13 15 17 19 20 20 21 22 24 25 25 23 22 22 21 20
9 10 9 8 9 9 9 11 12 14 15 16 16 16 17 18 18 17 17 17 16 15 13 11 10 9 10 11 14 16 17 19 20 21 23 24 26 25 24 22 22 22 20
9 10 10 9 9 9 10 11 12 14 14 15 16 16 17 17 17 17 16 16 15 15 13 11 9 7 8 10 12 15 16 18 18 20 22 23 24 25 24 24 22 22 21
9 10 10 9 9 9 10 11 12 13 14 15 16 16 17 17 16 16 16 16 15 14 12 11 7 5 5 7 10 13 15 17 17 19 21 22 24 25 25 24 24 24 23
9 9 10 9 9 9 10 11 12 13 13 14 15 16 16 16 16 15 15 15 14 13 12 11 7 3 2 5 9 11 14 15 16 18 20 21 23 23 24 25 23 23 23
9 9 10 9 9 9 10 11 12 12 13 14 15 15 16 16 15 15 14 14 13 12 11 10 7 3 0 4 7 10 12 12 15 17 19 20 21 22 23 24 23 22 22
9 9 10 10 10 10 10 11 11 12 13 14 15 15 15 15 15 14 13 13 12 12 10 9 7 4 1 3 6 9 10 12 14 15 17 18 19 20 22 23 23 22 22

GEFSSE_500_meanwind_102.txt.gz
Wind_Speed
6 6 7 8 9 9 9 10 10 11 12 12 12 12 12 12 13 13 13 14 14 13 13 13 13 13 13 13 12 12 11 10 10 9 8 7 7 7 6 5 4 3 2
6 7 8 9 9 9 9 10 11 11 12 12 11 11 11 12 12 11 12 12 13 13 13 14 14 14 14 14 13 13 13 12 11 10 9 8 8 7 7 6 5 5 4
7 8 8 9 9 9 9 10 11 11 11 11 10 10 11 11 11 11 11 11 12 12 13 14 14 15 15 15 14 14 14 14 13 12 10 10 9 8 8 8 7 6 5
7 8 8 9 8 9 9 10 10 10 10 10 10 10 11 11 11 12 11 11 12 12 13 13 15 16 16 15 16 15 15 15 14 13 12 11 10 9 9 9 8 7 6
8 8 8 8 8 8 8 9 10 10 10 10 10 11 11 11 11 12 12 13 13 13 14 15 15 15 16 16 16 16 16 15 15 15 14 13 11 10 10 9 9 8 7
8 8 8 7 7 8 9 9 9 10 10 10 11 11 11 11 11 11 12 13 14 14 15 15 16 16 16 17 16 17 17 16 16 16 16 15 13 12 11 10 10 9 9
7 8 7 7 8 8 9 9 10 11 11 11 11 12 11 11 12 12 13 14 15 15 15 15 16 16 16 17 17 17 18 18 18 17 17 16 15 14 12 12 11 11 10
8 7 7 7 8 8 9 10 10 11 11 11 11 12 12 12 13 13 14 15 15 15 16 16 16 16 17 17 18 19 19 18 19 19 18 18 17 16 14 13 12 12 12
8 7 7 7 8 9 9 9 10 10 11 11 12 12 13 13 14 14 15 16 16 16 17 17 17 17 17 17 17 18 19 20 20 21 20 19 18 17 16 15 14 13 13
7 7 7 8 8 9 9 9 10 11 11 12 12 13 13 14 15 15 16 16 17 17 17 17 17 17 17 17 18 18 19 20 21 21 21 21 20 19 17 16 15 15 15
8 8 8 8 8 9 9 10 11 12 12 12 12 13 14 15 16 16 17 17 17 17 18 18 18 17 17 17 18 19 19 20 21 22 21 22 21 20 19 18 17 16 15
8 8 9 9 9 9 10 11 12 12 12 12 13 14 15 16 16 17 17 17 18 18 18 18 18 18 17 17 18 19 19 20 22 22 22 22 22 21 20 19 18 18 17
9 9 9 9 10 10 11 12 12 12 12 12 13 14 15 16 17 17 17 18 18 18 18 18 19 18 18 18 17 18 19 20 21 23 23 23 23 23 22 20 20 19 18
9 9 9 10 10 11 11 12 12 12 12 13 14 15 16 16 17 18 18 18 18 18 18 19 19 19 17 18 17 18 18 19 20 22 23 23 24 24 23 22 21 20 20
9 10 10 10 11 12 12 12 12 12 13 14 15 15 16 17 17 18 19 19 19 18 19 19 18 18 18 18 18 18 18 19 20 22 24 24 24 24 25 24 22 22 21
10 10 10 11 12 12 13 13 13 13 13 14 15 16 17 17 18 19 19 19 18 18 19 18 18 17 17 18 19 19 19 19 20 21 23 24 24 25 25 24 23 23 22
11 11 11 12 13 13 13 13 13 13 14 15 16 16 16 17 18 19 19 18 18 19 18 17 17 16 16 17 18 18 19 20 21 21 23 24 25 26 26 25 24 24 23
11 11 12 12 13 13 14 14 14 14 15 15 16 16 17 17 18 19 19 18 18 18 18 16 16 15 15 15 16 18 19 20 21 21 22 24 25 26 26 26 25 24 24
11 11 12 12 13 13 13 14 14 14 15 15 16 17 17 18 18 18 18 18 18 18 17 16 15 14 13 13 15 17 18 19 21 21 22 24 25 26 26 26 26 25 25
11 11 12 12 13 13 13 13 14 14 15 15 16 17 17 18 18 18 17 17 18 17 16 15 13 12 12 12 13 15 18 20 20 21 22 24 24 26 26 26 27 25 25
10 11 11 12 13 13 13 13 13 14 14 14 15 17 17 17 18 17 17 17 17 17 15 13 12 11 10 11 12 14 16 18 20 21 22 24 24 25 26 27 27 26 25
10 11 12 12 13 13 13 13 13 14 14 14 15 16 17 17 17 17 16 16 16 16 15 13 12 10 9 9 10 12 15 18 20 21 21 23 24 25 26 27 27 26 25
10 11 11 12 12 12 13 13 13 13 14 14 15 16 17 17 17 17 16 16 16 15 14 13 11 9 7 6 8 10 13 16 18 20 21 22 24 24 24 26 27 26 25
10 11 11 12 13 13 13 13 13 13 14 14 15 16 16 17 17 17 16 16 15 14 13 12 10 7 5 4 6 9 12 15 17 19 20 22 23 24 24 26 26 25 25
10 11 12 12 12 13 13 13 13 13 13 14 15 16 16 16 17 17 16 16 15 14 12 11 9 7 4 3 4 7 10 13 15 17 18 21 23 24 24 25 26 25 25
10 11 12 12 12 13 13 13 13 13 13 14 14 15 16 16 16 16 16 15 15 14 12 10 9 7 4 2 3 6 9 12 13 16 17 19 21 23 24 25 25 24 25

GEFSSE_500_meanwind_108.txt.gz
Wind_Speed
6 6 7 7 8 8 8 8 8 8 9 9 9 9 9 9 9 9 9 10 10 11 11 12 12 12 13 13 13 13 12 12 11 11 10 9 9 8 7 6 5 4 3
7 7 8 8 8 8 8 8 9 9 9 9 9 9 9 9 9 9 9 9 10 11 11 12 12 12 13 13 13 13 13 13 12 12 11 10 10 9 9 8 6 6 5
7 8 8 9 8 8 8 9 9 9 9 9 9 9 10 10 10 10 10 10 10 11 11 12 12 12 13 13 14 14 14 14 14 13 12 11 11 11 10 9 8 7 6
7 8 8 8 8 9 9 9 9 9 10 10 10 10 10 10 11 11 11 11 11 11 12 12 12 12 13 13 14 14 15 15 15 14 13 13 12 11 11 10 9 8 7
8 8 8 9 9 9 9 10 9 10 10 10 10 10 11 11 11 11 11 11 12 12 12 13 13 13 13 14 15 15 15 16 16 15 15 14 13 12 11 11 10 10 8
8 9 9 9 9 10 10 10 10 11 11 11 11 11 11 11 11 11 11 12 13 13 13 13 13 14 14 15 15 15 16 17 16 17 17 15 14 13 12 11 11 11 9
9 9 9 9 9 9 10 10 11 11 11 11 11 11 11 12 12 12 12 12 13 13 13 13 13 14 14 15 15 15 16 17 17 17 17 17 15 14 13 13 12 11 11
9 9 9 9 9 10 10 10 11 11 11 11 11 12 12 12 12 12 13 14 14 14 14 14 14 14 14 15 15 16 17 17 18 18 18 18 17 16 15 14 13 12 12
10 9 9 9 10 10 10 10 11 11 11 12 12 12 12 12 12 13 14 15 15 15 14 14 14 14 14 15 15 15 16 17 18 19 19 18 18 17 17 16 15 14 13
10 10 9 9 10 11 11 11 11 12 12 12 12 13 13 13 14 14 15 16 16 16 15 15 15 15 15 15 15 16 16 17 18 19 19 19 19 19 18 17 16 15 14
10 10 10 9 10 10 11 11 12 13 13 12 13 14 14 14 15 16 17 17 17 16 16 16 16 16 16 16 16 16 16 17 18 19 19 20 21 20 20 19 18 17 16
10 10 10 10 11 11 11 12 12 13 13 13 13 14 15 15 16 17 17 17 17 17 17 16 17 17 17 17 16 16 16 16 17 19 19 20 21 21 21 20 19 18 17
10 10 10 10 11 11 12 13 13 14 13 14 14 14 15 16 17 17 18 18 18 18 18 18 18 17 17 18 18 17 17 17 17 18 19 20 21 22 21 21 20 19 18
9 9 9 10 10 11 12 13 14 14 14 14 15 15 16 17 18 18 18 18 18 19 18 18 18 18 18 18 18 18 17 17 18 18 19 20 21 22 22 22 22 21 19
9 9 10 10 11 12 13 13 14 14 14 14 15 16 17 18 18 19 19 19 19 19 19 18 18 18 18 17 17 17 16 17 18 18 19 20 21 22 23 23 23 22 21
8 9 10 10 11 12 13 14 14 14 14 15 16 16 17 18 19 19 19 20 20 19 19 19 19 18 17 17 16 16 16 16 17 18 18 20 21 22 23 22 22 22 21
8 9 10 10 11 13 13 13 14 14 14 15 16 17 17 18 19 19 19 20 19 19 19 18 18 17 16 16 15 15 15 16 17 17 17 19 21 23 23 23 23 22 22
9 9 10 11 12 12 13 13 14 14 15 16 17 17 17 18 19 19 20 20 19 18 18 18 17 16 15 14 14 13 14 15 17 17 17 19 21 22 24 24 23 23 23
9 9 10 11 11 12 13 13 14 15 16 16 17 17 17 18 19 19 20 19 19 18 18 17 16 15 14 13 12 12 13 14 16 17 17 19 20 22 23 24 24 24 24
8 9 10 11 11 12 13 14 14 15 15 16 17 17 17 18 19 20 20 19 19 18 18 17 16 14 13 12 11 10 11 13 15 17 17 19 20 22 22 23 24 24 24
8 9 10 11 12 12 13 14 14 15 15 16 16 17 17 18 19 19 19 19 19 18 17 16 15 14 13 12 10 9 8 10 12 15 17 19 20 22 22 22 23 24 24
8 8 9 11 12 12 13 13 14 15 15 16 16 17 17 18 18 19 19 18 18 18 17 16 15 14 13 11 9 7 7 8 11 14 16 18 19 21 22 22 23 25 25
8 9 9 11 11 12 13 13 14 14 15 16 16 17 17 18 18 18 19 18 18 18 17 16 14 13 12 10 8 6 5 7 9 12 15 17 18 19 21 22 23 24 25
8 8 9 10 11 12 12 13 14 14 15 16 16 16 17 17 18 18 19 18 18 17 16 15 14 13 12 10 8 6 4 6 8 11 13 16 17 18 19 21 21 22 23
8 8 9 10 11 11 12 13 13 14 15 16 16 16 16 17 17 18 18 18 17 17 16 16 14 13 12 10 8 6 4 4 6 9 12 14 16 17 19 20 21 22 22
7 8 9 10 11 11 12 12 13 14 15 15 16 17 17 17 17 17 18 18 17 17 16 16 15 13 12 10 8 6 4 3 4 7 10 13 15 16 18 20 20 22 23

GEFSSE_500_meanwind_114.txt.gz
Wind_Speed
3 4 4 5 5 6 6 6 7 7 7 8 8 8 8 9 9 8 9 9 9 9 9 10 11 11 12 12 12 12 12 11 12 12 11 10 10 9 8 8 7 6 4
3 4 5 5 5 6 6 6 7 7 7 8 8 8 8 8 9 9 9 9 9 10 10 10 10 11 11 12 12 13 13 12 12 12 12 11 11 10 9 9 8 7 5
4 5 5 5 5 6 6 6 7 7 7 8 8 8 8 9 9 9 9 9 10 10 10 10 10 11 11 12 13 13 13 13 13 13 13 12 11 11 10 10 9 8 6
4 5 5 5 5 6 6 6 7 8 8 8 8 9 9 9 9 10 10 10 10 10 10 11 11 12 12 12 13 14 14 14 14 13 13 13 12 11 11 11 10 9 7
4 5 4 4 5 6 6 7 7 8 8 9 9 9 9 9 10 10 10 10 10 10 11 11 11 12 12 13 13 14 14 14 14 14 13 14 13 12 11 11 11 10 8
4 4 4 5 5 6 7 7 7 8 9 9 9 8 9 9 10 10 10 10 11 11 12 12 12 12 12 12 13 13 14 14 14 14 14 14 14 13 12 11 11 10 9
4 4 5 5 5 6 7 8 8 8 9 8 8 8 9 9 10 10 10 11 11 12 12 13 12 12 13 13 13 13 13 13 13 14 14 14 14 14 13 12 12 11 10
4 5 5 5 6 6 7 8 8 9 8 8 8 8 9 10 10 10 11 11 12 13 13 13 13 13 13 13 13 13 13 13 13 13 15 15 14 14 14 13 12 12 11
4 5 5 5 6 7 7 8 8 8 8 8 8 9 9 10 10 11 11 12 13 13 13 13 13 13 13 13 13 13 13 13 13 13 14 15 15 15 15 14 14 13 12
5 5 5 6 7 7 7 8 8 8 8 8 8 9 9 10 11 11 12 13 14 14 14 13 13 13 14 14 14 13 13 12 13 14 14 15 15 16 16 15 15 14 13
5 4 5 6 8 8 8 8 8 8 8 8 9 9 10 11 11 12 13 14 14 14 14 14 14 14 14 14 14 14 14 13 13 13 15 16 16 16 16 16 16 15 14
4 4 5 6 7 8 7 8 8 8 8 9 9 10 10 11 12 13 14 14 14 14 14 14 14 15 15 15 15 15 14 14 14 14 15 16 16 16 17 16 16 17 16
4 4 5 5 6 7 7 7 8 8 8 9 10 10 11 12 12 13 13 14 14 14 14 14 14 15 15 15 15 15 15 15 15 15 16 16 16 17 17 17 17 17 17
4 4 4 5 5 5 6 6 8 8 8 9 10 11 12 12 12 13 13 14 14 14 14 14 14 15 15 15 15 15 15 15 15 15 16 17 17 17 18 18 18 18 18
3 4 4 5 5 5 6 7 8 8 9 10 10 11 11 12 12 12 13 13 14 14 14 14 14 15 14 15 15 15 15 15 15 15 16 17 17 18 18 19 19 19 19
4 4 5 6 6 6 7 8 8 9 9 10 10 11 11 11 12 13 13 13 14 14 14 14 14 14 14 14 13 13 13 14 16 16 16 17 17 18 19 19 20 20 20
4 4 5 5 5 6 7 7 8 9 10 10 10 10 10 11 12 13 13 13 14 14 14 14 14 13 13 12 12 12 12 13 14 16 17 17 18 18 19 20 21 21 21
3 4 4 5 6 6 7 8 9 10 11 10 10 10 10 11 12 13 13 13 14 14 15 14 13 12 11 11 11 11 11 11 13 15 16 17 18 18 19 20 21 22 22
2 3 4 5 6 6 7 8 9 10 11 10 10 10 10 11 12 13 13 13 14 15 15 13 12 12 11 10 10 10 10 10 12 13 15 17 18 19 20 21 22 22 22
1 3 4 5 6 7 7 8 9 10 10 11 10 11 11 11 12 13 13 13 15 15 14 13 12 11 10 9 9 8 8 8 9 11 14 16 18 19 20 21 22 23 23
2 3 4 5 6 6 7 8 9 9 10 11 11 11 11 12 12 13 13 14 15 15 14 13 12 11 9 8 7 6 5 6 8 10 12 15 17 19 20 21 22 23 23
2 3 4 5 5 6 7 8 8 9 10 11 11 12 12 12 13 13 14 14 14 14 14 13 12 11 9 8 7 5 3 4 6 9 11 13 16 17 19 20 22 22 23
2 3 4 5 5 6 7 7 8 9 10 11 12 12 13 13 13 13 13 14 15 14 14 13 13 12 10 9 7 5 3 2 4 7 10 13 15 17 18 19 21 22 22
3 3 4 4 5 6 6 7 8 9 10 11 12 13 13 13 13 13 13 14 14 14 14 13 13 12 11 9 7 5 3 1 3 5 8 11 13 15 17 18 20 21 21
3 3 3 4 5 6 7 7 8 9 10 11 12 13 14 14 14 14 14 14 14 14 14 13 13 12 12 10 8 6 4 1 1 4 6 9 11 14 16 18 19 20 22
2 2 3 4 5 6 7 8 8 9 10 11 12 13 13 14 14 14 14 14 15 15 14 13 14 13 12 11 9 7 5 2 1 3 5 8 10 12 14 16 17 19 21

GEFSSE_500_meanwind_120.txt.gz
Wind_Speed
2 3 4 4 4 4 5 6 7 7 7 8 8 9 9 9 9 9 9 9 9 10 10 9 10 9 9 9 9 9 9 9 8 8 7 7 7 7 7 6 5 5 5
3 4 4 5 5 5 5 6 7 7 8 8 9 9 9 9 9 9 9 10 10 10 10 10 10 9 9 9 9 9 9 9 9 8 8 7 7 7 7 7 7 6 5
4 5 5 5 5 6 6 6 7 7 8 8 9 9 9 9 9 9 10 10 10 11 11 10 10 10 9 9 8 9 9 8 9 9 9 8 8 8 8 7 7 6 6
4 5 5 5 5 5 6 6 7 8 8 9 9 9 9 9 9 10 10 10 11 11 11 10 10 10 10 9 9 9 9 9 9 9 9 9 8 8 8 8 8 7 6
5 5 5 5 5 6 6 7 8 8 8 9 10 10 9 9 10 10 11 11 11 11 11 11 11 10 10 10 10 9 9 9 9 9 9 9 9 9 9 9 8 7 7
5 5 5 5 5 6 6 7 8 8 9 9 10 10 10 10 10 11 11 11 11 11 12 12 11 11 11 10 10 10 9 9 9 9 9 9 10 10 10 9 9 8 8
4 4 5 5 5 6 6 8 9 9 10 10 10 10 10 10 10 11 11 11 12 12 12 12 12 12 11 11 10 10 9 9 9 9 10 10 9 11 11 10 9 9 9
4 5 5 5 6 6 7 8 9 10 10 10 10 10 10 10 10 11 11 12 12 12 13 13 12 12 12 11 10 10 9 8 9 9 10 10 10 11 12 11 10 10 10
5 5 5 6 6 7 7 8 9 10 10 10 9 9 10 10 11 12 12 13 13 13 13 13 12 12 12 11 10 10 10 9 9 9 9 10 10 10 12 12 12 11 10
5 6 7 7 7 7 8 9 10 10 10 10 9 10 10 11 12 13 13 13 13 13 13 13 12 12 12 11 11 11 11 10 10 10 9 9 10 11 12 12 12 12 12
5 6 6 7 7 8 9 10 10 10 10 10 10 10 11 12 13 13 13 14 14 13 13 12 12 12 12 12 11 11 12 12 11 11 11 10 10 11 12 13 13 13 13
4 5 6 6 7 8 9 10 10 10 11 10 11 11 12 13 13 13 13 13 13 12 12 12 12 12 12 12 12 12 12 12 12 12 12 12 11 12 13 14 14 14 14
5 5 6 6 7 8 9 9 10 10 10 10 11 12 13 13 13 13 13 13 12 12 12 12 12 12 12 12 12 12 12 13 13 13 13 13 12 13 14 14 15 16 16
5 6 6 7 8 8 9 9 9 10 10 11 11 12 13 13 13 13 13 13 13 13 12 12 12 11 11 12 12 12 12 13 12 13 13 14 14 14 15 15 16 17 17
5 5 6 7 7 8 8 9 10 10 10 11 11 12 13 13 13 12 13 13 13 12 12 12 11 11 11 11 11 11 11 12 12 12 13 14 14 15 16 16 17 17 17
5 5 6 6 6 7 7 8 9 10 10 11 11 12 12 12 12 12 13 13 12 12 12 12 11 11 11 11 11 10 10 10 11 12 13 14 15 15 17 17 18 18 18
5 5 5 5 5 6 7 7 9 9 10 11 11 12 12 13 13 13 13 13 13 13 12 12 11 11 11 10 10 9 9 10 10 11 13 14 15 16 18 18 18 18 19
4 4 4 4 4 5 6 7 9 10 11 11 11 12 12 13 13 13 13 13 13 13 13 12 11 11 11 10 9 9 9 9 10 11 12 14 15 17 18 19 19 19 19
4 3 3 4 4 5 6 7 9 10 11 11 12 12 12 13 13 13 13 13 13 14 13 12 11 11 10 9 8 8 7 7 8 9 11 13 14 16 18 19 19 20 20
3 2 3 3 4 5 6 7 8 9 10 11 12 12 13 13 13 13 13 13 14 14 13 12 12 11 10 9 7 6 5 5 6 8 9 12 13 15 17 18 19 20 21
2 2 2 3 4 5 6 7 8 9 11 12 12 13 13 13 13 13 13 14 14 14 13 13 12 12 11 9 7 5 4 3 4 6 8 10 13 14 16 17 19 19 21
1 1 2 3 4 5 6 7 8 9 11 12 12 13 13 14 14 14 14 14 15 15 14 13 13 12 12 10 8 5 3 2 2 4 6 9 11 13 15 17 19 19 21
1 0 2 3 4 6 6 7 8 10 11 11 12 13 14 14 14 14 15 15 16 16 15 14 13 13 12 11 9 7 4 3 1 2 4 7 10 12 14 17 18 19 20
2 1 2 3 5 6 7 8 9 10 11 11 12 13 14 14 15 15 15 16 16 16 16 15 14 13 12 12 10 8 6 4 2 1 2 5 8 10 13 16 16 17 19
3 2 2 3 4 6 7 8 9 10 11 12 13 13 14 14 15 16 16 16 16 17 17 16 15 15 14 13 11 9 8 6 4 3 1 3 6 8 10 14 15 17 19
4 3 3 3 4 5 6 7 8 10 11 12 13 14 14 15 16 16 17 17 17 17 17 17 16 15 15 14 12 11 9 7 6 4 2 1 4 6 9 12 14 16 18

GEFSSE_500_meanwind_126.txt.gz
Wind_Speed
1 1 2 2 2 3 3 4 4 5 5 6 5 6 6 5 5 5 5 4 5 5 5 5 4 4 4 4 4 4 5 6 6 6 6 6 6 6 7 8 7 7 7
2 1 2 3 3 3 4 5 5 5 6 6 6 6 6 5 5 5 5 5 5 5 6 5 5 4 4 4 4 4 4 5 6 6 7 7 7 7 8 8 8 7 7
2 2 3 3 3 3 4 5 6 6 6 6 6 6 6 6 6 6 6 6 6 6 6 6 5 5 5 4 5 5 5 5 6 7 7 8 8 8 8 8 8 8 8
2 3 3 3 3 4 5 6 7 7 7 7 7 7 7 7 7 7 7 7 7 7 7 6 6 5 5 5 5 5 6 6 7 8 8 8 8 9 9 9 9 9 9
3 3 3 3 4 5 6 6 7 7 7 7 7 7 8 8 8 9 9 9 8 8 7 7 7 6 5 5 5 6 6 7 7 8 8 9 9 9 10 10 10 10 9
4 4 3 3 4 5 6 7 8 8 8 8 8 8 9 9 9 9 9 9 9 9 8 8 8 7 6 6 6 6 6 7 8 8 9 9 9 10 10 11 11 11 10
3 3 3 4 5 6 6 7 7 8 9 9 9 9 9 9 9 10 10 10 9 9 9 8 8 8 7 7 7 7 7 8 8 8 9 9 10 10 10 12 12 12 11
3 2 3 4 4 5 6 7 8 9 9 9 9 9 9 9 10 10 10 9 9 10 10 9 9 9 8 8 8 8 8 8 8 9 9 9 10 11 11 11 13 13 13
2 2 3 4 5 6 7 7 8 9 10 10 10 10 10 10 10 10 10 10 10 10 10 10 9 9 9 8 8 8 8 9 9 10 9 10 11 11 11 12 13 14 14
3 3 4 4 5 6 7 8 9 9 10 10 10 10 10 10 10 10 10 11 11 11 11 10 10 9 9 9 9 9 9 10 10 11 10 10 11 12 12 12 13 14 14
3 3 4 4 5 6 7 8 9 10 10 10 10 10 10 10 10 10 11 11 12 11 11 10 9 9 9 9 9 9 10 10 11 12 12 12 12 12 13 13 14 14 15
3 3 3 4 5 6 7 8 9 9 9 10 10 10 10 10 10 11 11 12 11 11 10 10 9 9 9 9 9 9 10 11 12 12 13 13 13 13 14 14 15 14 14
2 3 4 4 5 7 8 9 9 9 9 9 9 10 10 11 11 11 11 11 11 10 10 10 9 9 9 10 10 10 10 11 11 12 13 13 14 14 14 14 15 15 14
2 3 4 5 6 7 7 8 8 9 9 9 9 10 10 11 11 11 11 11 11 10 10 9 9 9 9 10 10 10 10 11 11 12 13 14 14 15 15 15 16 15 15
3 4 4 5 6 6 6 7 8 8 9 9 10 10 11 12 11 11 11 11 10 10 10 9 9 9 9 9 10 10 10 10 11 12 13 13 14 15 16 16 16 16 16
3 3 4 5 5 5 6 7 8 8 9 10 10 11 11 11 11 10 10 10 10 10 10 9 9 9 9 9 9 10 9 10 11 11 12 13 14 15 15 17 18 17 17
3 3 4 4 4 5 6 6 7 8 9 10 10 11 11 10 10 10 10 10 10 9 9 8 7 7 7 8 8 8 8 8 9 10 12 13 14 15 16 16 18 18 18
3 3 3 3 3 4 5 6 7 8 9 10 10 11 11 10 10 10 10 11 10 10 9 8 8 7 6 6 5 5 5 6 7 9 10 12 14 15 16 16 17 18 18
3 1 1 2 3 4 4 5 7 8 9 10 10 11 11 11 11 11 11 11 10 10 10 9 8 7 6 5 4 3 3 4 6 8 9 11 12 14 15 16 17 18 19
2 1 0 1 2 3 4 5 6 7 9 9 10 11 11 12 12 12 12 12 11 11 10 9 9 7 6 5 4 2 2 3 4 6 8 10 11 13 14 15 16 18 19
2 2 1 1 1 2 3 5 6 7 8 10 10 11 12 12 13 13 13 13 12 11 11 10 10 9 7 6 4 3 2 1 3 5 7 8 10 12 13 14 15 17 18
3 2 2 2 2 3 4 5 6 7 8 10 11 11 12 12 13 14 14 13 13 12 12 12 11 10 9 7 6 5 4 2 2 3 5 7 8 10 12 13 14 17 18
4 4 3 3 3 4 4 5 6 7 8 9 11 12 13 13 14 14 15 15 15 14 14 13 12 11 10 9 8 7 6 5 4 3 4 5 6 8 10 12 13 15 17
6 5 4 4 4 4 5 5 6 7 8 9 11 12 13 13 14 15 15 16 16 16 16 15 14 13 12 11 9 8 7 6 5 4 3 4 5 6 8 10 12 14 16
7 6 5 5 4 4 4 5 6 7 8 9 10 11 12 14 15 15 16 16 17 17 17 17 16 15 13 13 12 10 9 8 7 5 4 3 3 5 7 9 11 13 15
8 7 6 5 5 4 4 4 5 6 7 8 10 11 12 13 14 15 16 16 16 17 17 17 17 16 15 14 13 12 11 9 8 6 4 3 2 3 5 7 9 11 13

GEFSSE_500_meanwind_132.txt.gz
Wind_Speed
2 2 2 2 2 2 3 3 4 6 6 6 6 6 5 5 5 5 5 5 5 5 5 5 4 4 4 4 5 6 6 6 7 7 7 7 7 7 7 8 8 8 8
3 3 3 3 3 3 4 4 6 7 7 7 6 5 5 5 5 6 6 6 6 6 6 6 5 5 5 5 5 6 6 6 7 7 7 7 8 7 8 8 8 8 8
4 3 3 3 3 3 4 5 6 7 7 7 6 6 6 6 6 6 6 7 7 7 7 7 6 5 5 5 6 6 6 6 7 7 7 8 8 8 8 8 8 8 8
4 4 4 4 4 4 5 5 6 7 7 7 7 7 7 6 7 7 8 8 7 7 7 7 7 6 6 6 7 7 7 7 7 7 8 8 8 8 9 9 9 9 9
5 4 4 4 4 4 5 5 6 7 7 7 7 7 7 7 7 8 8 8 8 8 8 8 7 7 7 7 7 7 7 7 7 8 8 8 8 8 9 9 9 9 9
5 4 4 3 3 4 4 5 6 7 7 7 7 7 8 8 8 8 8 8 8 8 7 7 7 7 7 8 8 8 8 8 8 8 9 8 8 9 9 9 9 9 9
4 4 3 3 4 4 5 6 7 8 8 8 8 8 8 9 8 8 7 8 7 7 7 7 7 7 7 8 8 9 9 9 9 9 9 9 9 9 9 9 9 9 10
4 4 3 4 4 4 5 6 7 8 8 8 8 8 8 8 8 8 8 7 7 7 7 8 7 7 8 8 8 9 10 10 9 9 9 9 9 9 9 10 9 10 10
3 3 3 4 4 4 5 6 7 8 9 9 8 8 8 8 8 8 8 8 7 8 8 8 8 8 8 8 9 9 10 10 10 10 10 10 10 10 10 10 10 10 10
3 3 3 3 3 4 5 6 8 9 9 9 9 9 8 8 8 8 8 8 8 9 9 8 8 8 9 9 9 9 10 10 10 10 10 11 11 10 10 10 10 11 10
3 3 2 3 3 4 6 7 8 8 8 8 9 9 9 8 9 9 9 9 9 9 9 8 8 8 8 8 8 8 9 10 10 10 10 11 11 11 11 11 11 11 11
2 2 3 3 4 4 5 7 8 8 8 8 8 9 9 9 9 9 9 9 9 9 8 8 8 8 7 8 8 8 9 10 10 11 11 11 11 11 11 11 11 11 11
2 2 2 3 3 4 6 7 8 8 8 9 9 9 9 10 10 10 10 9 9 8 8 8 7 7 7 7 8 8 9 10 10 11 11 11 11 11 12 12 12 12 11
2 2 2 3 4 5 6 7 7 8 9 9 9 10 10 10 10 11 10 9 8 7 7 7 7 7 7 7 8 8 9 9 10 10 11 11 11 12 12 12 13 13 12
1 2 2 3 4 5 6 7 7 8 8 9 10 10 11 11 11 11 10 9 8 8 7 7 7 7 7 7 7 8 7 8 9 9 10 11 11 12 12 12 12 13 12
1 1 2 3 4 5 5 6 7 8 9 9 10 11 12 11 11 10 10 9 8 8 7 7 6 6 6 6 6 6 6 7 7 8 9 10 11 11 12 12 11 12 12
1 1 1 2 4 5 6 6 7 8 9 10 11 12 12 12 11 11 10 10 9 8 7 6 6 5 4 4 4 5 5 5 5 6 8 9 9 10 11 11 11 11 12
1 0 1 2 4 4 5 6 7 8 9 10 11 11 12 12 12 12 11 10 10 8 7 6 6 5 4 4 3 3 3 3 3 5 6 7 8 9 10 10 11 11 11
1 0 1 2 3 4 5 6 7 8 10 10 11 11 12 12 12 12 12 11 11 10 8 7 6 5 4 3 2 2 1 1 2 3 5 7 7 8 9 10 10 10 10
2 1 1 2 3 3 4 6 7 8 10 10 11 12 12 13 13 13 12 12 12 11 10 9 8 6 4 3 2 2 1 1 1 2 4 5 6 7 8 9 10 10 10
3 2 1 1 2 3 4 5 7 8 10 11 11 12 13 13 13 13 13 13 13 13 11 11 10 8 6 5 4 3 3 2 2 2 3 4 5 6 7 8 9 10 10
4 3 2 2 2 3 3 5 6 8 9 10 11 12 13 13 14 14 14 14 14 14 13 13 12 11 9 7 6 5 4 4 3 2 2 3 4 5 6 7 8 9 10
6 4 3 2 2 2 3 4 6 7 8 9 11 11 12 13 14 14 14 14 15 15 14 14 14 13 11 10 9 7 6 5 4 4 3 3 3 4 5 6 7 8 9
6 5 4 4 3 3 3 4 5 6 8 9 10 11 12 13 13 14 14 15 15 15 15 14 14 13 12 11 10 9 8 7 6 6 5 3 2 3 4 5 6 7 8
7 6 6 5 4 3 3 3 4 5 7 8 9 10 11 12 13 14 14 15 15 16 15 15 15 14 14 12 11 10 9 8 8 7 6 5 3 2 2 3 5 6 7
9 8 7 6 4 3 2 2 3 4 6 7 8 9 10 11 13 14 14 14 15 15 15 15 15 14 14 14 12 11 10 9 8 8 7 6 4 2 1 1 3 5 6

GEFSSE_500_meanwind_138.txt.gz
Wind_Speed
1 0 0 0 0 1 2 3 3 4 4 4 4 5 5 5 6 6 5 5 6 6 7 7 7 8 7 7 8 8 8 8 8 8 8 8 7 7 7 8 7 8 9
1 1 1 1 1 1 2 3 3 4 4 5 5 5 5 5 6 6 6 6 7 7 8 8 9 9 8 8 8 8 8 8 8 8 8 8 7 7 8 8 8 8 8
2 1 2 1 1 1 2 2 3 3 4 5 5 5 6 6 7 7 7 7 8 8 9 9 9 9 9 9 8 8 8 8 7 8 8 8 8 7 8 8 8 8 8
2 2 2 2 2 2 2 2 3 4 5 5 6 6 7 7 8 8 9 9 9 9 9 9 9 10 9 9 9 8 8 8 8 7 8 8 8 8 8 8 8 8 8
3 3 3 3 3 2 2 3 4 5 5 6 6 6 7 8 8 9 9 9 9 9 9 9 9 9 10 10 10 9 9 8 8 8 8 8 8 8 8 8 7 8 8
3 3 3 3 3 2 2 3 4 5 6 6 6 6 7 8 8 9 8 9 9 9 9 9 9 9 10 10 10 10 9 9 9 9 8 8 8 8 8 8 8 8 8
1 2 2 2 2 2 3 4 5 5 5 5 6 6 7 8 8 8 9 9 9 9 9 9 9 10 10 10 10 10 9 9 9 9 9 9 9 9 8 8 8 8 8
1 1 2 1 2 2 3 4 5 5 5 6 6 7 7 8 8 9 9 9 9 9 9 9 9 10 10 10 11 10 10 9 9 10 10 10 9 9 9 8 8 8 8
1 1 2 2 2 3 3 4 4 5 5 6 6 7 7 8 8 8 9 9 9 9 10 10 10 9 10 10 10 10 10 10 10 9 10 10 10 10 9 9 9 9 9
2 1 1 2 2 2 3 4 4 5 6 6 7 7 7 8 8 8 8 8 8 9 9 9 9 9 9 9 9 9 10 10 10 10 10 10 11 11 10 10 10 9 9
2 1 2 2 2 3 3 4 5 5 6 6 7 7 7 7 8 7 7 8 8 8 8 9 9 9 8 8 8 8 9 9 10 10 10 11 11 11 11 10 10 10 9
2 1 2 3 3 2 3 4 4 5 5 6 6 7 7 7 7 8 8 8 8 8 8 8 8 8 8 8 8 8 8 8 9 10 11 11 11 11 11 11 11 10 10
2 2 1 1 2 2 3 3 3 4 5 6 6 7 7 7 7 8 8 8 8 8 7 8 8 8 8 7 7 7 8 8 9 10 11 11 11 11 11 11 11 11 10
2 1 1 0 0 1 2 2 4 5 6 7 7 7 7 7 7 7 7 8 8 7 7 7 7 7 7 7 7 7 7 8 8 10 10 11 10 10 10 11 11 11 10
2 2 1 1 0 1 2 3 4 5 6 7 7 8 8 7 7 7 8 8 8 7 7 7 6 6 6 5 6 6 6 6 8 8 9 10 10 9 10 10 10 10 10
3 2 2 1 1 1 2 4 5 6 6 7 8 8 8 8 8 8 8 8 7 7 6 5 5 5 5 5 5 5 5 5 6 7 8 9 9 9 9 9 10 10 10
3 2 1 1 0 1 2 4 5 6 6 8 8 9 9 9 9 9 9 9 8 7 6 5 5 4 4 3 3 3 3 4 5 6 6 8 8 9 9 9 9 9 9
4 2 2 1 1 2 3 4 5 6 7 8 9 10 10 10 10 10 9 9 8 7 6 5 4 4 3 2 2 2 2 3 4 5 5 7 8 8 9 9 9 9 9
4 3 2 2 2 2 3 4 5 6 8 9 10 10 10 11 11 11 10 10 9 9 8 6 5 4 2 1 1 0 1 2 3 4 5 6 7 7 8 8 9 9 9
5 4 3 3 2 2 3 5 6 7 8 9 10 10 11 11 12 12 12 11 11 11 10 9 7 7 5 4 4 3 3 3 4 5 5 6 6 7 8 8 8 9 9
6 5 5 3 3 3 4 5 6 7 8 9 10 11 11 12 12 13 13 13 12 12 12 11 9 9 8 7 6 6 5 5 5 6 5 6 7 7 8 8 8 9 9
7 6 5 4 3 4 4 5 6 7 8 9 10 11 12 12 13 13 13 14 14 13 13 12 11 10 9 8 7 7 7 6 6 6 6 6 7 7 7 7 8 8 9
8 7 6 5 5 4 4 5 6 7 8 9 10 11 12 12 12 13 13 14 14 14 14 13 12 11 11 10 9 8 8 7 7 6 6 6 6 6 6 6 7 7 8
9 8 7 6 5 5 5 5 6 6 7 8 9 10 11 12 12 13 13 13 14 14 14 13 13 12 11 11 10 9 8 7 7 6 6 5 5 5 5 5 6 6 7
10 9 8 7 6 6 6 6 5 5 6 7 8 9 11 11 12 12 12 13 14 14 14 14 13 13 12 11 11 10 9 8 7 6 6 5 4 4 4 4 4 5 5
11 10 10 8 7 7 7 6 5 5 5 6 7 8 10 11 11 12 12 13 13 13 13 13 13 13 12 11 11 10 9 9 7 7 6 5 4 3 3 3 3 4 4

GEFSSE_500_meanwind_144.txt.gz
Wind_Speed
2 2 2 2 3 3 3 4 4 4 5 5 6 7 7 6 6 7 7 7 7 7 8 8 8 7 7 7 7 7 7 7 7 7 8 8 8 8 7 8 8 9 9
2 2 2 2 2 3 3 4 4 5 5 6 7 7 7 7 7 7 8 8 8 8 8 8 9 8 8 8 8 8 8 8 8 8 8 8 8 8 8 8 8 8 9
3 3 3 2 2 3 3 4 4 5 6 6 7 8 8 7 8 8 8 9 9 9 9 9 9 9 9 9 8 8 9 9 9 8 8 8 8 8 8 8 8 8 8
3 3 3 3 3 3 4 4 5 5 6 7 8 8 8 8 8 9 9 9 9 10 10 10 10 10 10 9 9 9 9 9 9 8 8 8 8 8 8 8 8 8 8
3 3 3 3 3 3 4 4 5 5 6 7 7 8 8 9 9 10 10 10 10 10 10 10 10 10 10 10 9 9 9 9 9 8 8 8 8 8 9 8 8 8 8
4 4 3 3 3 4 4 4 5 5 6 7 7 8 9 9 10 10 10 10 11 10 10 10 10 10 10 10 10 10 9 9 9 9 9 8 8 8 8 8 8 8 7
3 4 3 4 4 4 4 5 5 6 6 7 8 8 9 10 10 10 10 10 10 10 10 10 10 10 10 10 10 10 9 9 9 9 9 8 9 8 8 8 8 8 8
3 3 3 3 3 4 4 5 6 7 7 7 8 9 9 10 10 10 10 10 10 10 10 10 10 10 10 10 9 9 9 9 9 8 8 9 9 9 8 8 8 9 8
4 3 3 2 3 3 4 5 6 7 7 8 8 9 9 9 9 9 9 9 10 10 10 10 9 10 10 10 9 8 8 8 8 8 8 9 9 9 9 8 8 8 9
4 3 3 3 3 4 4 5 6 6 7 8 8 8 8 8 8 8 8 9 9 10 10 10 9 9 9 9 8 7 7 8 8 9 9 9 9 9 9 9 9 9 9
3 2 2 2 3 3 4 5 5 6 7 7 8 8 7 7 8 8 8 8 8 9 9 9 8 8 7 7 7 7 7 7 8 8 9 9 9 9 9 9 9 9 9
3 2 1 2 2 3 4 4 5 6 6 6 7 7 7 7 7 7 7 7 8 8 8 8 7 7 7 7 7 6 6 7 8 8 9 10 10 9 9 10 9 9 10
3 2 1 1 2 3 3 4 5 5 6 6 7 7 7 6 6 7 7 7 7 7 8 7 7 7 6 6 6 5 5 6 7 7 8 9 10 10 9 9 9 9 9
3 2 1 1 2 2 3 4 5 5 6 6 7 7 6 6 6 7 7 7 7 7 7 7 6 6 5 4 5 5 5 6 6 7 8 8 9 9 9 9 9 8 8
3 2 1 0 1 2 3 4 4 5 6 6 7 6 6 6 6 7 7 8 8 7 6 6 5 5 4 3 3 4 5 5 6 7 8 8 8 8 8 8 8 7 7
3 2 1 1 0 1 3 3 4 5 5 6 6 6 6 6 6 7 8 8 8 7 6 5 5 4 3 3 3 2 3 4 5 7 8 8 8 8 7 8 8 7 7
4 3 2 1 1 1 2 3 4 4 5 6 7 7 6 6 7 8 8 8 7 6 6 5 4 3 3 2 1 1 2 3 5 6 7 8 8 8 8 7 7 7 6
6 4 3 2 2 1 1 2 3 4 5 6 7 7 7 7 8 8 8 8 7 7 7 6 5 4 3 2 1 0 1 2 4 5 7 7 7 7 7 8 7 7 6
7 6 4 3 2 1 2 2 3 4 5 6 7 7 7 8 9 9 9 9 9 8 8 7 6 5 4 3 3 3 2 3 4 5 6 7 7 7 7 8 8 7 7
8 7 5 4 3 2 2 2 3 4 5 6 7 7 8 9 10 10 10 10 10 10 9 9 8 8 7 6 5 5 5 5 5 5 5 6 6 7 7 7 7 7 7
9 7 6 5 4 3 3 3 3 4 5 6 7 8 8 9 10 10 10 10 10 10 10 10 10 9 9 8 7 7 7 6 6 6 6 6 6 6 7 7 7 7 7
9 9 6 6 5 4 4 3 3 4 5 6 7 8 9 9 10 11 11 11 11 11 11 10 10 10 9 9 9 8 7 7 7 7 6 6 6 6 7 7 7 7 6
10 9 7 7 6 5 4 4 4 4 5 6 7 7 8 9 10 11 11 11 11 11 11 11 10 10 9 9 9 8 8 7 7 7 6 6 5 5 6 6 7 6 6
11 10 9 8 7 6 5 5 4 4 4 5 6 7 8 8 9 10 11 11 11 12 11 11 11 11 10 9 9 8 8 8 7 6 6 5 4 4 5 5 6 6 6
12 11 10 9 8 7 6 5 5 4 4 5 6 7 7 8 8 9 10 10 11 11 12 11 11 11 10 10 9 8 8 7 7 6 5 5 4 3 3 4 6 6 6
13 12 11 10 9 8 7 6 6 5 4 4 5 6 6 7 7 8 9 10 10 11 11 11 11 10 10 9 9 8 7 7 7 6 5 4 3 2 2 3 4 5 5

GEFSSE_500_meanwind_150.txt.gz
Wind_Speed
4 3 2 2 2 1 0 1 1 1 2 2 2 3 3 3 3 3 3 3 3 3 3 3 3 3 3 4 5 6 6 7 7 8 8 8 8 8 9 9 9 9 9
4 3 3 3 2 2 1 1 1 1 2 3 3 3 4 4 4 4 4 4 4 4 4 4 4 4 5 5 6 6 7 7 8 8 9 9 9 9 9 10 10 10 10
4 3 3 3 3 2 2 2 2 2 3 4 4 4 5 5 5 4 5 4 4 5 5 5 5 6 6 6 7 7 8 8 8 9 9 10 10 10 9 10 10 10 10
4 3 3 3 3 3 2 2 2 2 4 4 4 5 6 6 6 6 5 5 5 5 6 6 6 6 7 7 7 8 8 9 9 9 10 10 10 10 10 10 10 9 9
5 4 3 3 3 3 2 2 2 3 4 5 5 6 6 6 6 6 6 6 5 6 6 6 7 7 7 7 7 7 8 9 10 10 10 11 11 10 10 10 10 10 9
5 4 4 3 3 3 2 2 3 4 5 5 6 6 6 7 7 6 7 7 6 7 7 7 8 8 8 8 7 7 8 9 10 10 11 11 12 11 10 10 10 10 10
5 4 4 3 3 3 3 3 4 5 5 5 6 6 6 7 7 7 7 6 6 7 7 7 7 7 8 8 8 8 8 8 10 10 11 11 11 11 10 11 11 10 10
5 4 3 3 3 3 3 3 4 5 5 6 6 6 6 7 7 7 6 6 6 6 6 7 7 7 7 7 8 8 8 9 9 10 10 11 11 11 11 11 11 10 10
5 5 4 3 3 3 3 3 4 4 5 6 6 6 6 6 6 6 6 6 6 6 6 7 7 7 7 7 7 8 8 9 9 10 10 11 11 11 11 11 10 10 10
6 6 5 4 3 3 3 3 3 4 5 5 6 6 6 6 5 5 5 5 5 6 6 7 7 7 7 7 7 7 8 9 9 10 11 11 11 11 11 11 11 10 10
6 5 5 4 3 2 2 2 3 4 4 5 5 5 5 5 5 5 5 5 6 6 6 7 7 7 7 7 6 7 8 9 10 10 11 11 11 11 11 12 11 11 11
6 6 5 4 2 1 1 2 3 4 4 4 4 5 4 4 5 5 5 5 6 6 6 6 6 6 6 6 6 7 8 9 10 11 11 11 11 11 11 11 11 11 11
6 6 5 4 2 1 1 2 2 3 3 4 4 4 4 4 4 5 5 5 6 6 6 6 6 6 5 6 6 6 8 9 10 11 11 12 11 11 11 11 11 11 11
6 6 5 3 2 1 1 1 2 2 3 4 3 4 4 4 4 5 5 6 6 6 6 6 5 4 4 5 6 6 7 8 9 10 11 11 11 11 11 10 10 11 11
6 6 5 4 3 2 0 1 1 2 3 3 3 3 3 4 5 5 6 6 6 6 6 5 4 3 4 4 5 6 6 7 8 9 10 11 11 11 10 10 10 10 10
7 6 5 4 3 2 1 0 1 2 3 3 3 3 4 5 5 5 6 6 5 5 4 3 2 2 2 2 3 5 6 7 7 8 9 9 10 10 10 9 9 9 9
8 7 5 5 4 2 1 0 1 2 2 3 4 4 4 5 5 5 6 6 5 5 4 3 2 1 1 1 2 4 5 6 7 8 8 8 9 10 9 9 9 9 9
8 7 6 5 4 2 1 1 1 2 2 4 5 5 4 5 5 6 6 6 6 5 4 3 3 2 1 2 3 4 5 5 7 7 8 8 8 10 10 9 9 9 9
9 8 7 6 5 3 2 1 1 2 3 4 5 5 5 6 6 6 7 7 6 6 5 4 4 4 3 3 3 4 4 4 6 7 8 8 8 8 9 9 9 8 8
10 9 7 6 5 4 3 2 1 2 2 3 5 5 6 6 6 7 7 7 7 6 6 5 5 5 4 4 4 4 5 5 5 7 8 8 8 8 8 8 8 8 7
10 10 8 7 5 5 4 3 2 2 2 3 4 5 6 6 7 7 7 7 7 7 6 6 6 6 5 5 5 6 6 5 6 7 7 8 8 8 8 8 8 7 6
11 10 10 8 7 6 5 4 3 2 3 3 4 5 6 6 7 7 8 8 7 7 7 7 7 6 6 6 6 6 6 5 6 6 6 6 7 7 8 8 8 7 6
12 11 10 9 8 7 6 5 4 3 3 3 4 4 5 6 7 8 8 8 8 7 7 7 7 7 7 6 6 6 5 6 6 6 6 6 6 6 7 7 7 6 6
13 12 10 10 9 8 7 6 5 4 3 3 3 4 5 6 7 8 8 8 8 7 7 7 7 7 7 6 6 6 6 6 6 6 5 5 5 5 5 5 6 6 5
14 13 12 11 10 9 8 7 6 5 4 3 3 3 4 5 6 7 8 8 8 8 7 7 7 7 7 6 6 6 6 6 6 5 5 4 4 4 4 4 5 5 5
15 15 13 12 12 10 10 8 7 6 5 4 3 3 4 4 5 6 7 8 8 8 8 8 8 7 6 6 6 6 5 5 5 5 4 4 4 4 4 4 4 4 5

GEFSSE_500_meanwind_156.txt.gz
Wind_Speed
5 5 5 4 3 3 3 2 2 2 2 2 2 2 2 2 2 2 2 2 3 3 4 4 4 5 5 6 6 6 7 7 7 8 8 7 7 7 7 7 7 7 7
5 6 5 5 4 3 3 3 3 3 2 2 2 3 3 3 3 4 3 3 3 4 4 5 5 5 6 6 7 7 8 8 8 8 9 9 8 8 8 8 8 8 8
5 6 6 5 5 4 4 4 4 4 3 3 3 4 4 5 4 4 4 5 5 5 5 6 6 6 6 7 8 8 8 9 9 9 9 9 9 9 9 9 9 9 9
6 6 6 6 6 5 5 5 5 4 4 4 4 5 5 5 5 5 6 6 6 6 6 6 6 7 7 8 9 9 9 9 9 9 10 10 10 11 10 10 10 10 9
6 6 6 5 5 5 5 5 5 5 5 4 5 6 6 6 6 6 6 6 7 7 7 7 7 7 7 8 9 9 9 9 9 10 10 11 11 11 11 11 10 10 10
7 6 6 6 5 5 4 4 5 5 5 5 5 6 6 6 6 6 6 7 7 7 7 7 7 7 8 8 9 9 9 10 10 10 11 11 11 11 11 11 11 10 10
8 7 7 7 6 5 5 5 5 5 5 5 6 6 7 7 7 7 7 7 7 7 7 7 7 7 7 8 9 9 9 10 11 11 11 11 11 11 12 12 11 11 10
8 8 7 6 5 5 5 5 4 4 5 6 6 7 7 6 7 7 6 6 6 6 7 7 7 7 7 8 9 9 9 10 11 11 12 12 11 11 12 11 11 10 10
8 8 7 6 5 5 5 5 4 4 5 5 6 6 6 6 6 6 6 5 6 6 6 7 7 8 8 8 9 10 10 10 10 10 11 12 12 12 12 12 10 10 10
8 7 8 6 5 5 4 5 5 5 4 5 5 5 6 5 5 5 5 5 6 6 7 7 7 8 8 8 8 9 10 10 10 10 10 11 11 11 12 11 11 10 10
8 8 8 7 6 5 5 5 5 5 5 5 5 5 5 5 5 6 6 6 6 7 7 7 8 8 8 9 8 9 9 9 10 9 10 10 11 11 11 11 11 10 10
9 8 8 7 6 5 5 4 4 4 4 5 5 5 5 5 6 6 6 6 7 7 7 7 7 8 8 8 8 8 8 8 9 9 9 10 10 10 10 10 10 9 9
9 8 8 7 6 5 4 3 3 4 3 4 4 4 5 5 6 6 6 6 7 7 7 7 7 7 7 7 7 7 7 7 7 8 9 10 10 10 10 10 9 9 9
9 8 7 6 5 3 3 2 3 3 3 3 4 4 5 5 5 6 6 6 6 6 6 6 6 7 6 6 6 6 6 6 6 7 8 9 9 9 9 9 9 9 9
8 7 6 6 4 2 2 2 3 3 2 3 4 4 5 5 6 6 6 7 7 6 6 6 6 5 5 5 5 5 5 6 6 6 7 8 9 9 9 9 9 9 8
8 7 5 4 4 3 2 3 3 2 2 2 4 4 5 5 6 6 6 7 7 6 6 5 4 4 3 3 3 4 4 5 5 5 6 7 8 8 8 8 8 8 8
9 7 6 5 4 3 2 2 2 1 2 3 4 5 5 5 5 6 6 7 7 7 6 5 4 4 3 2 1 2 2 4 4 4 5 6 7 7 7 7 7 7 7
10 8 6 5 4 3 2 1 1 1 2 3 4 5 5 5 5 6 7 7 7 7 7 5 5 4 4 3 2 1 1 2 3 3 4 4 5 6 7 7 6 6 6
10 9 7 6 4 3 2 1 1 1 2 3 4 5 5 6 6 6 7 7 7 7 7 6 5 5 4 4 3 3 2 1 2 2 3 3 4 5 6 6 6 6 6
10 9 8 7 5 3 2 1 0 1 2 3 4 5 5 6 6 7 7 7 7 7 7 6 6 5 4 4 4 3 2 2 1 2 2 2 3 5 5 5 5 4 5
11 10 9 7 6 4 3 2 1 1 1 2 4 5 5 6 6 7 8 7 7 7 7 6 6 5 4 4 4 3 3 2 2 2 2 2 3 4 4 3 3 3 3
13 11 9 8 6 5 4 3 2 1 1 2 3 4 5 6 7 7 7 7 7 7 7 6 6 6 5 4 4 3 3 3 2 2 2 2 2 3 3 3 2 2 2
14 12 10 9 8 6 5 4 3 2 1 1 2 3 5 6 7 7 7 7 7 7 7 7 6 6 5 5 4 4 4 4 3 2 2 2 2 2 2 2 1 1 1
14 12 10 9 8 7 6 5 4 3 1 0 1 2 4 5 6 7 7 7 7 7 7 7 6 6 5 5 5 4 4 4 3 3 2 2 2 1 1 1 1 0 1
14 13 10 10 9 8 7 6 5 4 2 1 1 2 3 4 5 6 7 7 7 7 7 7 6 6 6 5 5 4 4 4 4 3 3 2 2 1 1 1 0 1 1
15 13 12 10 10 8 7 7 6 5 4 2 1 1 2 3 5 5 6 7 7 6 6 6 6 7 6 6 5 5 4 4 3 3 3 2 2 2 1 0 1 1 2

GEFSSE_500_meanwind_162.txt.gz
Wind_Speed
3 3 3 3 3 3 2 3 3 3 3 3 3 3 3 3 3 3 5 5 5 6 6 7 7 8 8 8 8 8 8 8 8 9 9 10 9 9 9 8 8 8 8
4 4 4 4 4 3 3 3 4 4 5 4 4 4 4 4 4 4 5 5 5 6 6 7 8 8 8 9 9 9 9 9 9 9 10 10 10 10 9 9 9 9 9
3 4 4 5 5 4 4 4 5 5 6 5 5 5 5 5 6 6 6 6 7 7 7 7 8 9 9 9 9 10 10 10 10 10 10 11 11 11 11 10 10 10 10
4 4 4 5 6 5 5 5 6 6 6 5 5 5 6 6 6 7 7 8 8 8 8 8 9 10 10 10 10 10 11 11 11 10 10 11 12 12 12 11 11 11 10
4 4 4 5 6 6 6 6 6 6 6 6 6 6 6 7 7 7 8 8 9 9 8 8 8 9 10 10 10 11 11 11 11 11 11 11 12 12 12 12 12 11 11
4 4 4 4 5 5 6 6 6 6 7 7 6 6 6 7 7 8 8 9 9 8 9 9 9 9 9 9 10 10 11 12 12 12 12 12 12 13 12 12 12 12 11
4 4 4 5 5 5 6 6 6 6 7 7 7 7 7 8 8 8 8 8 8 8 8 8 9 9 9 9 10 10 10 11 12 13 13 13 13 13 13 12 12 12 11
5 5 5 5 5 5 6 6 7 6 6 7 7 7 6 7 7 7 7 8 8 8 8 8 9 9 9 10 10 10 11 12 12 12 13 13 13 13 12 12 12 12 11
6 6 5 6 6 6 6 7 6 6 6 6 6 6 5 5 6 6 7 7 7 8 8 8 8 8 8 9 10 10 11 12 12 12 12 12 12 13 13 12 12 12 11
6 6 6 6 5 5 6 6 6 6 5 5 5 5 5 5 5 6 6 7 7 7 7 8 8 8 8 9 9 10 10 11 11 11 11 12 12 12 12 11 11 12 11
8 7 7 6 6 6 6 6 6 6 5 5 5 5 5 5 5 5 6 7 7 6 6 7 7 8 8 8 9 9 9 9 10 10 11 11 11 11 11 11 11 11 11
8 7 7 6 5 5 5 5 5 5 5 4 5 5 5 4 4 5 5 5 5 5 5 5 6 7 7 8 8 8 8 8 9 9 9 10 10 10 10 11 10 10 10
7 7 7 6 6 5 5 4 4 4 4 4 4 4 4 4 4 5 5 4 5 5 5 5 6 6 6 6 7 7 7 7 8 8 8 9 9 10 10 10 9 9 9
7 7 7 7 6 5 4 4 3 2 2 3 3 3 3 4 4 4 4 4 4 4 4 4 4 4 5 5 5 6 6 6 6 6 7 7 8 9 9 10 9 9 8
7 7 7 6 6 5 4 3 2 1 1 2 2 2 3 3 3 4 3 4 4 4 3 3 3 3 4 4 4 4 4 5 5 5 5 6 7 8 8 8 8 8 7
7 7 6 6 6 5 3 3 2 1 1 1 1 2 2 3 3 3 4 3 3 3 3 3 3 3 2 2 3 3 3 4 4 4 5 5 6 7 7 7 8 7 7
8 8 6 6 6 5 4 3 2 1 1 1 1 1 2 3 3 3 4 3 3 3 3 2 2 2 2 1 1 1 1 2 3 3 4 5 5 6 6 7 7 6 6
8 7 7 6 6 5 4 3 2 1 1 0 0 1 2 3 3 3 3 4 4 3 3 2 2 3 2 1 1 1 0 0 1 2 3 4 4 5 5 6 5 5 5
8 8 8 7 7 6 4 2 2 1 1 2 1 2 2 3 4 3 3 4 4 4 4 3 3 3 3 2 2 2 1 1 2 2 3 3 3 4 4 4 4 4 4
10 9 8 8 7 6 5 4 3 2 2 2 2 2 3 4 4 4 4 4 5 5 4 4 4 4 4 3 3 3 3 2 3 3 3 3 3 3 4 4 3 3 3
10 10 10 9 7 6 6 5 4 2 2 2 2 2 3 3 4 4 4 5 5 5 5 4 4 4 4 4 3 4 3 3 3 3 2 3 3 3 3 3 2 2 3
11 12 11 10 8 7 6 5 4 3 3 2 2 3 3 3 4 4 4 4 5 5 5 5 4 5 5 5 4 4 4 4 3 3 2 3 4 4 4 3 2 2 2
11 13 12 11 9 8 7 6 5 4 4 3 3 2 3 3 4 4 4 4 5 5 6 5 5 5 6 5 5 4 4 4 3 4 3 3 4 3 3 3 2 2 2
11 12 13 12 10 9 9 8 6 6 4 3 3 2 2 3 3 4 4 4 4 5 5 5 5 6 6 5 5 5 5 4 4 4 4 3 3 3 2 2 1 2 1
13 13 13 12 11 10 10 9 8 7 5 4 3 2 2 3 3 4 4 4 5 5 6 6 6 6 6 6 5 5 5 5 4 3 4 3 3 3 2 2 1 1 0
14 15 14 13 12 12 11 10 9 8 6 5 4 3 2 2 3 3 4 4 5 5 6 6 6 6 6 5 5 5 4 4 4 4 4 4 3 3 2 2 1 0 1

GEFSSE_500_meanwind_168.txt.gz
Wind_Speed
2 2 2 2 2 2 3 3 3 3 3 3 4 3 3 3 3 4 4 4 4 5 5 6 7 7 7 7 7 7 7 7 7 8 9 9 9 8 8 9 8 8 8
2 2 2 3 3 3 3 4 4 3 3 3 3 3 4 4 4 5 5 6 6 6 7 7 7 8 9 9 8 8 8 8 8 9 9 10 10 10 9 9 9 9 9
3 3 3 3 3 3 4 4 5 4 3 3 4 4 4 5 5 6 7 7 7 7 7 7 8 8 9 10 10 10 9 9 9 9 9 10 11 11 11 11 11 10 10
3 3 4 3 4 3 4 5 5 4 4 4 4 5 5 6 7 7 8 8 8 8 8 8 8 9 10 11 11 11 11 10 10 10 10 10 11 11 11 12 11 11 11
4 4 4 4 4 3 4 4 4 4 5 5 5 6 6 7 8 8 9 9 8 9 9 9 9 9 10 11 11 11 11 11 11 11 11 11 11 11 12 12 11 11 11
5 5 5 5 5 4 4 4 4 5 5 6 7 7 7 8 8 9 9 8 9 9 9 9 9 9 9 10 11 12 12 12 12 12 12 12 12 12 12 12 12 12 11
6 5 5 5 4 4 4 4 4 5 6 6 7 8 8 8 8 8 8 8 9 9 10 10 10 9 10 10 11 12 13 13 13 13 13 12 12 12 13 12 12 11 11
6 6 6 6 4 4 5 5 5 5 6 6 7 7 7 8 8 8 8 8 9 9 10 10 10 10 10 10 10 11 11 12 13 13 13 13 13 13 13 12 11 11 11
6 6 6 6 5 5 5 5 5 6 6 6 6 7 7 7 7 7 8 8 9 10 10 10 11 10 11 10 10 11 11 12 12 12 12 13 13 13 13 12 12 11 11
7 6 6 6 5 5 5 5 6 6 6 5 5 6 6 7 7 7 8 8 8 9 9 9 10 10 10 10 10 10 11 11 11 11 11 12 12 13 13 12 12 11 11
7 7 7 6 5 5 5 5 5 5 5 5 5 5 6 7 7 7 7 7 7 8 8 8 8 9 9 9 9 9 9 10 10 10 10 10 11 11 12 12 11 10 10
7 7 6 6 5 5 4 4 5 5 5 4 4 5 6 6 6 6 6 6 7 7 7 8 8 9 9 8 8 8 8 9 9 9 9 9 10 10 10 10 10 10 10
7 7 6 5 5 4 5 4 4 4 4 3 4 4 5 5 5 5 6 5 6 6 6 6 6 7 7 7 7 8 8 8 7 8 8 8 8 9 9 9 9 9 9
7 7 7 6 5 4 4 4 4 3 2 3 3 4 4 3 3 4 5 5 5 4 4 4 4 5 6 6 7 7 7 7 6 6 6 7 7 7 8 8 8 8 8
8 7 6 6 6 5 4 3 2 1 2 2 2 3 3 3 3 4 4 4 4 4 4 4 4 4 5 5 5 6 6 5 4 5 5 5 5 6 7 7 7 8 8
8 7 7 6 5 5 4 3 3 2 2 1 2 2 2 2 3 4 4 3 4 4 4 4 4 4 4 4 5 4 4 3 3 4 4 4 5 5 6 6 6 7 8
8 8 7 7 6 5 4 4 3 2 2 1 2 2 2 2 3 4 3 3 3 3 3 3 3 3 4 4 4 3 2 2 1 2 3 3 4 4 4 4 5 6 7
9 8 7 7 6 5 6 5 3 3 2 1 1 1 1 2 3 3 3 2 2 2 3 3 3 3 3 3 2 1 1 1 1 1 2 2 3 3 3 3 4 4 5
10 9 9 7 6 6 5 4 3 2 2 1 1 1 1 2 2 2 2 2 2 2 2 3 2 3 2 2 2 1 1 1 1 0 1 1 2 2 2 3 3 3 4
10 10 9 8 7 6 5 5 3 2 2 2 2 1 0 1 2 2 2 2 2 2 3 3 2 2 2 2 2 2 1 1 1 2 1 1 1 1 2 2 2 3 3
10 10 10 10 9 8 6 6 4 3 2 2 2 1 0 1 2 2 2 2 2 2 3 3 3 2 2 2 2 2 2 2 2 2 2 1 1 1 1 2 2 2 2
11 11 11 11 10 9 7 6 6 4 3 3 2 1 1 1 1 2 2 2 2 2 3 3 3 3 3 2 2 3 3 3 3 2 2 2 2 1 0 1 1 1 2
12 11 11 12 11 10 8 7 6 5 4 4 2 2 1 1 1 2 2 2 2 3 3 3 3 3 3 3 3 3 3 4 3 3 2 2 1 0 1 1 0 0 1
12 11 11 12 12 11 9 8 8 7 5 4 3 2 2 1 2 1 1 2 2 2 2 2 3 3 3 3 3 4 3 3 3 3 3 2 1 1 1 1 2 2 1
13 12 12 12 13 12 10 9 9 7 7 5 4 3 2 2 1 1 1 1 1 2 2 2 3 3 4 4 4 4 4 3 3 3 3 2 1 1 1 2 3 3 3
14 14 13 13 13 13 11 10 10 9 8 6 5 4 3 2 1 1 1 1 1 2 2 2 2 2 2 3 3 3 3 3 3 3 2 2 2 1 1 2 3 3 4

GEFSSE_500_meanwind_174.txt.gz
Wind_Speed
2 2 2 2 2 2 2 2 2 2 2 2 2 2 2 1 1 1 1 1 2 3 3 4 5 5 5 6 6 6 6 6 7 7 7 8 8 8 9 8 8 8 7
2 2 2 2 2 2 3 3 3 3 2 3 3 3 3 2 2 2 3 3 3 3 4 5 6 7 7 7 7 7 7 7 7 8 8 8 9 9 9 9 9 9 9
3 3 3 3 2 3 4 4 3 3 3 3 4 4 4 4 4 4 4 4 4 4 5 6 7 8 8 8 8 8 8 8 8 9 9 9 9 10 10 10 10 10 10
4 4 4 4 4 4 5 5 4 4 3 3 3 4 5 5 5 5 5 5 5 5 6 7 8 8 8 9 9 9 9 9 10 10 10 10 10 10 10 11 11 11 11
5 5 5 5 5 5 5 5 5 5 4 4 3 4 5 6 6 6 6 6 6 6 7 7 7 8 8 9 9 10 10 10 11 11 11 11 11 11 11 11 11 11 12
5 6 6 6 7 6 6 6 6 5 5 4 4 5 5 7 7 6 6 7 7 7 7 7 7 8 8 9 10 11 11 12 12 13 13 13 12 12 11 11 11 12 12
6 7 7 7 8 7 7 6 6 6 6 5 5 6 6 7 7 7 7 7 7 6 7 7 7 8 9 9 10 11 11 12 13 13 13 13 13 13 12 12 12 12 12
7 8 8 8 8 7 7 7 7 7 6 6 6 6 7 7 7 7 7 7 7 7 7 8 8 8 9 10 10 11 11 12 12 13 13 13 14 14 14 13 12 12 12
8 8 8 8 8 8 7 7 7 7 7 6 6 7 7 7 7 7 6 7 7 7 7 8 9 9 9 9 10 10 11 12 12 12 13 13 13 13 14 14 13 13 13
8 8 8 8 8 8 8 8 8 8 8 7 7 7 7 6 6 6 6 6 7 7 7 8 8 9 9 9 9 9 10 11 11 12 12 12 13 14 14 14 14 13 12
8 8 8 8 9 9 8 8 9 9 8 8 7 7 6 6 7 6 6 6 7 7 7 7 7 8 8 8 7 8 9 9 10 10 11 11 12 13 13 13 13 12 12
8 8 8 8 8 9 8 8 8 8 8 8 7 6 6 6 6 6 6 6 6 6 6 6 6 7 7 7 7 7 8 9 9 9 9 9 10 11 12 12 11 11 11
8 8 8 8 8 8 7 7 7 7 7 7 6 6 6 6 5 5 5 6 5 5 6 6 6 6 6 7 7 7 7 7 8 8 8 8 8 9 9 10 10 10 11
8 8 8 7 7 7 6 7 7 7 6 5 5 5 5 4 4 4 4 4 5 4 5 5 5 5 6 6 6 5 5 5 5 6 6 7 7 7 8 8 8 8 9
9 8 8 8 7 6 6 6 6 6 6 4 4 4 4 4 4 3 3 4 4 4 4 4 4 4 4 4 4 4 4 3 3 4 5 5 6 6 7 7 7 8 8
9 9 9 8 8 8 7 6 6 7 6 5 4 3 3 2 2 1 2 2 2 2 3 3 2 3 3 3 3 3 2 2 3 3 3 4 5 5 6 6 7 7 8
9 9 9 8 8 7 7 6 7 7 6 5 4 3 2 2 1 1 1 1 1 1 2 2 2 2 2 2 2 2 2 1 1 2 2 3 4 5 5 5 6 6 6
9 9 9 8 8 8 7 6 7 7 6 5 4 3 2 1 1 1 1 1 1 1 1 1 1 1 2 2 1 1 1 0 0 1 1 2 3 3 3 3 4 5 6
10 10 9 8 8 9 8 7 7 7 6 5 4 3 2 1 1 1 0 1 1 1 1 1 1 1 1 1 1 1 1 1 0 0 0 1 1 2 1 2 3 4 4
11 11 10 9 9 9 8 7 6 6 6 5 4 3 2 1 1 1 0 1 1 1 1 2 1 1 1 1 1 1 2 1 1 1 1 1 1 1 1 2 2 3 3
12 12 11 10 10 9 8 7 7 6 6 5 4 3 3 2 1 1 1 1 2 2 2 2 2 2 2 2 2 2 2 2 2 2 1 1 0 1 1 1 2 2 3
14 13 12 12 11 10 9 8 7 7 6 5 4 4 4 3 2 1 1 2 2 2 2 2 2 2 2 2 3 3 3 2 2 2 2 1 1 1 1 2 2 2 2
15 14 14 14 12 11 10 9 8 8 7 6 6 5 4 3 2 2 1 1 2 2 2 2 2 2 2 2 2 2 2 2 2 2 1 1 2 2 2 2 2 2 3
16 15 15 14 13 12 12 11 9 9 8 7 6 6 4 4 3 2 1 1 2 2 1 2 2 2 1 2 2 2 1 1 1 1 0 1 2 2 2 2 2 2 3
16 15 15 15 14 14 13 11 11 9 9 8 7 6 5 4 3 2 2 1 2 2 1 1 1 1 1 2 2 1 1 1 1 0 0 1 1 1 1 2 2 3 3
16 16 16 15 14 14 13 12 12 10 10 9 8 7 6 5 4 3 2 2 1 1 0 0 1 0 1 2 2 1 1 1 0 0 0 1 1 2 2 2 3 2 3

GEFSSE_500_meanwind_180.txt.gz
Wind_Speed
4 4 4 4 4 4 4 4 4 3 3 3 3 3 3 2 3 3 3 3 3 4 4 4 5 5 5 5 5 6 6 6 6 6 6 6 7 7 7 6 6 7 6
5 6 6 6 5 5 5 5 5 5 4 3 4 4 4 4 4 4 4 4 4 5 5 6 6 6 7 7 7 7 7 7 7 7 7 7 7 8 8 8 7 8 7
6 7 7 7 7 7 6 6 6 5 5 4 4 4 5 5 6 5 5 5 6 6 6 6 6 7 7 8 8 8 8 8 8 8 9 9 9 9 9 9 9 9 8
8 8 8 8 8 8 7 7 7 7 6 5 5 5 5 6 6 6 6 6 7 7 7 7 7 7 8 9 9 9 9 9 10 9 10 10 10 10 9 9 10 10 9
8 9 9 9 9 9 9 9 9 8 7 6 6 5 5 5 6 7 7 7 7 7 7 7 7 7 8 8 9 10 10 10 11 11 11 11 11 11 10 10 10 10 10
9 10 9 10 9 10 10 9 10 9 8 8 7 6 6 6 6 7 8 7 8 8 7 7 7 8 8 9 9 10 11 11 11 11 12 12 12 12 11 11 11 11 11
9 10 10 10 11 11 11 10 9 9 9 9 8 7 7 7 8 8 9 8 8 8 8 8 8 8 8 9 9 10 11 11 12 11 12 12 13 12 12 12 12 12 11
10 10 10 11 11 11 11 11 10 9 9 8 8 8 8 8 8 8 8 8 7 7 8 8 8 8 8 8 9 10 11 11 12 12 12 12 12 13 13 13 13 12 12
11 11 11 11 11 10 10 10 10 10 9 8 8 8 8 8 8 8 7 7 7 7 7 8 7 8 8 8 9 10 10 11 11 11 12 12 12 13 13 13 13 13 13
11 11 11 11 10 10 10 10 10 10 9 9 9 8 8 8 8 8 7 7 7 7 7 7 7 7 8 7 8 9 10 10 10 11 11 12 13 13 13 13 13 13 13
11 11 10 10 10 10 10 10 9 9 9 9 9 8 8 7 7 7 7 6 6 7 7 6 7 7 7 7 8 8 9 9 10 11 10 11 12 12 12 12 12 12 12
11 10 10 10 10 10 10 9 9 8 8 8 9 8 7 7 6 6 6 6 6 6 6 6 6 6 6 6 7 7 8 8 9 9 9 9 10 11 11 11 11 11 12
10 10 10 10 9 9 9 9 9 8 8 8 8 7 6 6 6 6 6 6 5 6 5 5 5 5 5 5 5 6 7 7 7 7 8 8 8 9 9 9 10 10 11
11 10 10 10 9 9 8 8 9 8 8 8 8 7 6 6 6 6 5 5 5 5 5 4 4 4 4 5 5 5 5 5 5 5 7 7 7 7 8 8 8 9 10
11 11 10 10 8 8 8 8 8 8 8 8 7 7 6 5 6 5 4 4 4 4 4 4 3 3 4 4 4 4 4 5 5 4 5 6 6 6 7 7 8 8 9
11 11 10 9 8 8 8 7 7 7 8 8 7 6 6 5 5 4 2 2 3 3 3 3 2 3 4 4 4 4 4 4 3 4 4 4 5 5 5 6 7 7 8
11 10 10 10 8 8 8 7 7 6 7 6 6 5 5 4 3 2 1 2 2 2 2 3 3 2 3 3 3 3 3 3 3 3 3 4 4 4 4 5 5 5 6
11 10 10 9 8 8 8 7 7 7 6 5 5 4 3 2 2 1 1 1 1 2 2 3 2 2 3 3 3 2 2 3 2 3 3 3 3 4 4 4 5 5 6
11 10 10 9 8 7 7 7 7 7 6 5 4 3 3 2 1 1 1 1 1 1 2 2 2 2 2 3 2 2 2 3 2 2 2 3 4 4 4 4 4 5 5
12 11 10 9 8 7 6 6 7 6 5 5 4 4 3 2 1 1 0 0 1 1 1 2 2 2 2 2 2 2 2 3 3 2 3 4 4 4 5 5 4 5 5
12 11 10 10 8 7 7 6 6 6 5 5 4 3 2 2 2 1 1 1 1 1 1 2 2 2 2 2 2 2 2 3 3 2 3 4 4 5 5 5 5 6 6
12 12 11 10 10 9 8 8 7 6 6 5 5 3 2 2 2 2 1 0 0 1 1 1 2 2 2 2 2 2 2 2 3 3 3 4 4 5 5 5 5 6 7
13 12 12 11 11 10 9 8 7 6 6 5 4 4 3 3 2 2 1 1 1 1 1 2 2 2 2 2 2 2 2 2 3 4 4 4 4 4 5 6 6 6 7
14 13 13 12 11 10 10 9 8 7 6 5 5 4 4 3 3 2 2 1 1 0 0 1 1 2 2 2 1 1 2 2 3 3 4 4 4 4 5 6 6 6 6
14 14 13 12 11 11 10 10 10 9 7 6 5 5 4 3 3 2 2 1 1 1 1 1 1 1 1 2 2 2 2 2 3 3 4 5 5 5 5 6 6 6 6
14 14 13 12 12 12 11 10 10 9 8 7 6 6 5 4 3 3 3 2 2 1 1 1 1 1 1 2 2 2 3 3 3 4 4 4 5 5 6 6 6 6 6

GEFSSE_500_meanwind_186.txt.gz
Wind_Speed
3 4 3 3 3 4 3 4 4 4 5 5 5 5 5 5 5 5 4 4 4 5 5 6 6 6 7 7 7 8 7 7 7 7 7 7 8 8 8 8 8 7 7
4 4 4 4 4 5 5 4 5 5 5 6 6 6 6 6 6 6 6 6 6 6 6 7 7 8 8 8 8 9 8 8 8 8 8 8 9 9 9 9 9 8 8
4 5 5 5 6 5 5 5 6 6 7 7 7 7 7 6 7 7 7 7 7 7 7 7 8 8 8 8 9 9 9 9 9 9 9 9 9 9 10 10 9 9 8
5 6 6 6 6 6 7 7 8 8 8 8 8 7 7 7 7 7 7 7 7 8 8 8 8 8 8 9 9 10 10 10 10 10 10 11 11 10 10 10 10 10 10
6 6 6 7 7 7 7 8 8 8 8 8 7 7 7 7 7 8 8 8 8 8 8 8 9 9 9 9 9 10 11 11 11 11 11 12 12 12 12 12 11 11 11
6 7 7 7 7 8 8 8 8 8 8 8 8 8 8 8 8 8 8 8 9 9 9 9 9 9 10 10 10 10 11 12 12 12 12 12 12 12 13 13 13 12 12
8 7 8 8 8 8 8 8 9 9 9 9 9 8 8 9 9 9 8 9 8 8 8 9 9 10 10 10 11 11 11 11 11 12 12 12 12 13 13 14 14 13 13
9 9 8 8 8 8 9 8 9 9 9 9 9 9 9 9 9 9 9 8 8 8 8 9 9 9 9 10 10 10 11 11 11 11 12 12 12 12 13 13 13 13 13
9 9 9 9 8 9 8 8 8 8 9 9 9 9 8 8 8 8 8 8 8 8 8 8 8 8 9 9 9 9 9 10 10 10 11 11 12 12 13 13 13 13 13
9 9 9 9 9 8 8 8 8 8 8 9 8 8 7 8 8 8 8 8 8 8 8 8 8 8 8 7 8 8 8 8 8 9 10 10 11 12 12 12 12 13 13
9 9 9 9 9 8 7 7 8 8 8 8 8 7 7 7 8 8 8 8 8 7 7 7 7 7 6 6 6 7 7 7 7 8 8 9 10 11 11 11 12 12 13
9 9 9 9 8 8 7 7 7 7 7 7 7 8 8 8 8 8 8 7 7 7 7 7 7 6 5 5 5 6 6 7 7 7 7 8 9 9 10 10 11 11 13
9 9 9 8 8 7 7 6 7 7 7 7 7 8 8 8 7 8 7 6 6 6 6 6 6 5 5 5 5 5 6 6 6 6 6 7 8 8 9 9 10 10 11
8 8 8 8 7 7 7 6 6 7 7 7 6 6 6 7 7 8 7 6 6 5 5 5 4 4 4 4 5 5 5 5 4 5 5 6 6 7 8 9 9 9 10
8 7 7 7 7 7 7 7 7 7 7 6 6 6 6 7 7 7 7 7 6 5 5 4 4 3 3 3 4 4 4 4 3 3 4 4 5 6 7 7 8 8 9
7 7 7 7 7 7 7 7 7 7 7 6 6 6 6 6 6 7 6 6 5 4 4 4 3 3 3 3 3 3 3 3 3 3 3 3 4 5 6 6 6 7 8
7 7 7 7 7 7 7 6 6 6 6 6 6 6 5 5 5 4 5 5 4 3 3 3 3 3 3 3 3 3 2 3 3 3 3 4 4 4 5 5 5 6 6
8 7 7 7 7 6 6 6 6 6 6 5 5 5 5 4 4 3 4 4 3 3 2 2 2 2 2 2 3 3 2 2 3 3 3 3 3 3 4 4 4 5 5
8 8 7 7 7 7 6 6 6 6 5 4 4 5 4 4 4 4 4 4 4 3 2 1 1 1 1 1 2 1 2 2 3 3 3 3 3 3 3 4 4 4 5
8 8 7 7 7 7 6 6 6 6 5 4 5 4 4 4 4 3 3 4 4 3 2 2 1 1 0 0 0 1 1 2 2 2 2 2 3 3 3 3 4 4 5
9 8 8 7 7 7 7 7 7 6 5 5 5 5 4 4 4 3 3 4 3 3 2 2 1 1 1 1 0 0 1 2 2 2 2 3 3 3 4 4 5 5 5
9 9 9 8 8 8 7 6 6 6 5 5 5 5 4 3 4 4 4 3 3 3 2 2 2 2 1 1 1 1 1 1 2 2 2 3 3 3 4 4 5 6 6
9 9 9 8 8 8 7 6 6 6 5 4 4 5 5 4 4 4 4 3 3 3 2 2 2 2 1 1 0 1 1 1 1 2 2 2 3 3 4 5 6 6 6
10 9 9 9 8 8 8 8 7 6 5 5 5 5 5 5 5 4 4 3 3 2 2 2 2 2 1 1 0 0 0 1 1 1 2 2 3 4 5 6 6 5 5
11 10 9 9 9 9 9 8 7 6 7 6 6 5 5 5 5 5 4 3 3 2 2 2 2 2 1 1 0 0 1 1 1 1 2 2 3 4 5 5 6 6 5
11 11 11 10 9 9 9 8 8 8 8 8 7 7 6 6 5 5 5 4 3 3 2 2 2 2 2 1 1 1 1 1 1 1 2 3 4 5 5 5 6 6 5

GEFSSE_500_meanwind_192.txt.gz
Wind_Speed
3 3 3 3 4 4 4 4 4 3 4 3 4 4 3 4 4 4 4 4 4 4 4 5 5 6 7 7 7 7 7 8 8 8 9 8 9 8 8 8 8 8 7
4 4 4 4 5 5 5 4 4 4 4 4 4 4 4 5 4 4 4 4 4 5 5 5 6 6 7 8 8 8 8 9 9 9 10 10 10 10 10 10 9 9 9
4 4 5 5 5 6 6 5 5 5 5 5 5 5 5 5 5 5 5 5 5 6 6 6 7 7 8 8 8 8 9 10 10 10 10 10 10 10 10 11 10 10 10
5 5 6 6 6 6 6 6 6 6 7 6 6 6 6 6 6 6 6 6 6 7 7 7 8 8 9 9 9 9 10 10 10 11 11 11 11 12 12 11 11 11 11
6 6 6 7 6 6 7 7 7 7 7 7 7 6 7 7 7 7 6 7 7 8 8 8 9 9 9 9 10 10 10 10 11 11 12 12 12 13 13 13 12 12 12
7 7 7 7 7 7 7 7 7 7 7 7 7 7 7 8 8 8 7 7 7 8 9 9 9 9 10 10 10 10 10 10 11 11 12 12 12 13 13 13 13 13 13
7 7 8 8 7 7 7 7 7 7 7 8 8 8 8 9 9 8 8 8 8 8 8 9 9 9 10 10 10 10 10 10 11 12 12 13 13 13 13 13 14 14 14
8 8 8 8 8 8 8 8 8 8 8 8 8 9 9 9 10 10 9 9 8 8 8 8 9 9 9 10 10 10 10 10 11 11 12 13 13 13 13 13 14 13 14
9 9 8 9 8 8 8 8 8 8 8 8 8 9 9 10 10 10 10 9 8 8 8 8 8 8 8 8 9 9 9 10 10 11 11 12 12 12 12 13 13 13 13
9 9 9 9 9 8 8 8 8 8 8 9 9 9 9 10 10 10 10 9 9 8 8 8 8 7 7 7 8 8 9 9 9 10 10 10 11 11 11 12 12 12 12
9 9 9 9 8 8 8 8 8 8 9 9 9 10 9 9 9 8 9 8 8 8 7 8 8 7 7 7 7 7 7 8 8 9 10 9 9 9 10 11 11 11 12
8 9 8 8 8 8 7 8 8 8 9 9 9 10 9 9 8 8 8 8 8 8 8 7 7 7 6 6 7 7 7 7 7 7 7 8 8 8 9 9 10 10 11
8 8 8 7 7 7 8 8 7 7 8 8 8 9 8 8 8 8 8 8 8 8 8 7 7 6 6 6 6 6 6 6 7 7 7 7 7 7 8 9 9 10 10
7 8 7 7 7 7 8 7 7 7 7 7 7 7 7 7 7 8 8 8 8 8 7 7 7 6 6 6 5 5 5 5 6 6 6 6 6 7 7 8 8 9 9
7 7 7 7 7 8 7 7 7 7 7 7 7 6 6 6 6 7 7 7 8 7 7 7 6 6 6 5 4 4 4 5 5 5 5 5 6 6 7 7 8 8 8
8 7 7 7 7 7 7 7 8 8 7 7 7 7 6 6 6 6 6 6 6 6 5 6 5 5 5 4 4 4 4 4 4 5 5 5 5 6 6 7 7 8 8
8 8 8 7 7 7 7 7 7 8 7 7 6 7 7 6 6 6 5 5 5 4 4 4 5 4 4 4 4 4 4 4 4 5 5 5 5 5 6 7 7 7 8
9 8 8 8 8 7 7 6 7 7 6 6 7 7 6 6 5 5 5 4 4 3 3 4 4 4 4 3 3 3 4 4 4 4 4 4 5 5 6 6 6 7 8
9 9 9 9 8 7 6 6 7 5 5 6 6 5 5 5 4 4 4 4 3 3 3 4 4 4 3 3 3 3 3 3 3 2 3 4 4 5 5 5 6 7 8
10 9 9 10 8 7 7 7 6 6 5 5 5 4 4 4 4 4 4 3 3 3 4 4 3 3 2 2 2 2 2 2 2 2 3 3 4 5 6 6 6 7 8
9 9 9 9 9 7 7 6 6 6 5 5 5 5 4 4 4 4 4 3 3 3 4 3 3 3 2 2 2 1 1 2 2 2 2 3 4 5 6 6 6 7 8
9 9 9 8 9 8 7 7 6 6 6 5 5 5 4 4 4 4 3 4 4 4 4 3 3 2 2 1 1 1 1 1 1 2 2 3 4 5 6 6 7 8 8
10 9 9 9 8 8 7 7 7 6 6 5 5 5 5 5 5 4 4 4 4 4 3 3 3 2 2 2 2 1 1 1 1 1 2 3 4 5 6 7 7 8 8
11 11 10 10 9 8 7 7 7 7 6 6 5 5 5 5 5 4 4 4 4 3 3 3 3 2 2 2 1 1 1 2 2 2 3 4 5 5 6 7 7 7 7
12 11 11 10 10 9 8 8 7 6 6 5 5 5 4 4 4 5 4 4 4 4 4 3 3 2 2 2 2 1 2 2 2 2 2 3 4 5 6 6 6 7 7
11 11 11 10 10 10 10 9 8 8 7 6 6 6 6 5 4 4 4 5 4 4 4 3 3 3 2 2 2 2 2 2 2 2 3 3 4 5 6 6 6 7 7

GEFSSE_500_meanwind_198.txt.gz
Wind_Speed
0 0 1 1 2 2 2 3 4 3 3 2 3 3 3 3 3 3 4 4 4 4 4 4 4 4 5 6 6 6 6 7 7 7 7 7 7 7 7 8 8 8 8
1 1 1 2 3 3 4 4 4 4 4 4 4 3 3 4 3 3 4 5 5 5 4 5 5 5 5 6 7 7 7 7 8 8 8 9 9 9 9 9 9 9 9
2 2 2 3 3 4 5 5 5 5 5 5 5 5 5 5 4 4 5 5 5 5 6 6 6 6 6 7 8 8 8 8 8 9 9 9 9 9 10 10 10 10 10
3 3 3 3 4 5 5 5 6 6 6 6 7 7 6 6 6 6 6 6 7 7 7 7 7 8 8 8 8 8 8 8 9 10 10 10 10 11 11 11 11 11 11
4 4 4 5 5 5 5 6 6 7 8 8 8 8 8 8 7 7 8 8 8 8 8 8 8 8 8 8 9 9 9 8 9 10 11 11 11 11 12 12 12 12 12
5 5 5 6 6 6 5 6 7 7 8 9 8 9 9 9 9 9 9 9 9 9 9 8 8 8 8 8 9 9 9 9 10 10 11 11 11 12 12 12 13 13 13
6 6 7 7 7 6 6 7 7 8 8 9 9 9 9 9 9 9 9 9 10 10 9 9 8 8 8 8 8 8 9 9 10 10 11 11 12 12 12 12 12 12 13
7 7 7 8 7 7 7 8 8 8 8 9 9 9 9 10 10 10 10 11 11 11 10 9 9 8 8 8 8 8 8 9 9 9 10 10 11 11 12 12 13 13 13
7 8 8 8 8 8 8 9 8 8 9 9 9 9 10 10 11 11 11 11 11 11 10 9 8 8 8 7 7 7 7 8 8 8 9 9 10 11 11 12 12 13 13
8 8 9 8 8 9 9 9 9 9 9 9 10 10 10 11 11 11 12 12 11 11 10 9 8 8 7 7 6 6 7 7 7 8 8 9 10 11 11 12 12 12 13
8 9 9 8 9 9 9 9 9 9 9 10 10 10 10 10 10 10 11 11 11 10 9 9 8 8 7 7 6 6 6 7 7 7 8 9 9 9 10 11 11 11 12
8 8 8 8 9 9 8 9 9 9 9 10 10 10 10 11 11 10 10 10 9 8 9 9 8 8 7 7 6 6 6 6 6 6 6 7 8 9 9 10 10 10 10
7 8 8 8 8 8 8 8 8 8 9 9 9 9 10 10 10 9 8 8 8 8 8 8 8 8 7 6 6 6 6 6 6 6 6 6 7 7 7 8 8 9 9
8 7 8 8 8 8 8 8 8 8 9 9 9 9 9 9 9 8 8 8 9 9 9 8 8 7 7 7 7 6 6 6 6 6 6 6 7 7 7 7 8 8 9
8 8 8 8 8 8 8 8 8 8 8 8 8 8 8 8 7 7 7 7 8 9 9 8 8 8 7 7 7 6 6 6 6 6 6 6 6 6 7 7 7 8 9
9 8 8 8 8 8 8 8 8 8 7 7 7 7 7 7 7 6 6 6 6 7 8 8 8 8 7 7 6 6 6 5 5 5 6 6 6 6 6 7 7 8 8
9 9 8 8 8 8 8 8 8 7 7 7 7 7 8 8 7 7 6 6 7 7 7 8 8 7 7 6 6 5 5 5 4 5 5 5 6 6 6 6 6 7 7
9 10 9 9 9 8 8 8 7 7 7 7 7 7 7 7 7 6 6 6 6 6 6 6 7 6 6 6 5 5 5 4 4 4 4 5 5 5 5 5 6 6 7
10 10 10 10 9 9 8 8 8 7 7 7 7 7 6 6 6 6 6 6 6 6 6 7 7 6 6 6 5 5 4 4 4 4 3 3 4 5 5 5 5 5 6
11 10 10 10 10 9 9 8 8 7 7 7 7 7 7 6 6 6 6 6 6 6 6 6 6 6 6 5 5 5 4 4 4 3 3 3 4 4 4 5 5 6 6
11 11 11 10 10 10 9 8 8 8 7 7 7 7 6 6 6 6 6 6 6 6 5 5 5 5 5 5 5 4 4 3 3 3 3 3 3 3 4 5 5 5 6
12 12 11 10 10 10 10 9 8 8 7 7 6 5 6 6 6 6 6 6 6 6 5 5 5 5 5 5 4 4 3 3 3 2 2 3 3 3 4 5 5 5 6
12 12 12 11 10 10 10 10 9 8 8 6 5 5 5 5 6 6 6 6 6 6 5 5 5 5 5 4 4 3 3 2 2 2 2 2 3 4 4 4 5 5 6
12 12 12 11 11 11 11 10 10 10 9 7 7 6 6 5 6 6 6 6 6 6 6 5 5 5 4 4 4 3 3 2 2 2 2 2 3 4 4 4 4 4 5
13 12 12 11 11 11 10 10 10 9 9 8 7 7 6 6 6 6 6 7 6 6 6 5 5 5 4 3 3 3 3 2 2 2 2 3 3 4 4 4 4 5 5
12 12 12 11 11 11 11 10 9 9 9 8 8 7 7 7 7 7 6 6 6 6 6 5 5 5 4 4 4 3 3 3 3 3 3 3 3 3 3 4 4 5 5

GEFSSE_500_meanwind_204.txt.gz
Wind_Speed
2 2 2 3 3 4 4 4 4 4 4 4 4 5 4 4 4 5 5 5 5 5 5 5 5 5 5 6 6 6 7 7 6 7 7 7 7 6 6 7 6 6 6
3 3 4 4 5 5 5 5 6 6 6 5 5 5 6 5 5 5 5 6 7 7 6 6 6 6 6 6 7 7 8 8 7 7 7 8 8 7 7 7 7 8 7
5 5 5 6 6 6 6 6 6 6 6 6 7 6 6 6 6 6 6 6 6 6 7 8 7 7 7 7 8 8 8 7 7 8 8 9 8 8 8 8 8 8 9
6 6 7 7 7 7 7 7 7 7 7 7 8 8 8 8 8 8 8 7 7 7 8 9 9 8 8 8 8 8 9 8 8 8 8 9 9 9 9 9 9 10 10
7 8 8 8 8 8 8 7 7 7 8 9 9 9 9 9 9 9 9 9 8 8 9 9 9 9 8 8 8 8 9 8 8 8 8 9 10 10 10 10 10 11 11
9 8 8 9 9 9 9 8 8 8 8 9 9 10 10 9 9 9 10 9 9 10 10 10 10 10 9 8 8 8 9 9 9 9 9 9 10 10 10 11 11 12 12
10 10 9 9 9 9 9 9 9 9 9 10 10 10 10 10 10 10 10 10 11 11 10 10 10 10 9 8 8 8 8 8 9 9 9 10 10 10 10 11 11 12 12
11 10 9 10 10 10 10 10 10 10 10 10 11 11 11 11 11 11 11 11 11 11 10 11 11 10 10 8 8 8 7 8 8 9 9 9 9 10 10 11 11 12 12
10 10 9 10 10 10 10 10 10 11 11 11 11 11 11 11 11 12 12 12 12 11 11 11 11 11 10 9 9 9 9 8 8 8 8 8 9 9 10 10 11 11 11
10 10 10 10 10 10 10 10 11 11 11 11 11 11 11 11 12 11 12 11 11 11 11 11 10 10 10 10 10 9 9 8 8 9 8 8 8 8 9 9 10 11 11
10 10 9 9 10 10 10 10 10 11 11 11 11 11 11 11 11 11 11 10 10 10 10 10 10 9 9 10 10 8 8 8 8 8 9 8 8 8 9 9 9 10 10
10 10 9 9 9 10 10 10 10 10 10 10 10 10 10 11 11 11 10 9 10 9 9 9 9 9 9 9 8 8 7 7 7 8 7 7 8 8 9 9 9 9 10
10 10 10 9 10 10 10 10 10 10 10 10 10 10 10 10 10 10 9 10 10 9 9 9 9 9 9 8 8 7 8 7 7 7 6 7 7 8 8 8 8 9 10
10 10 10 10 10 10 10 11 10 9 9 9 9 9 9 10 10 9 9 9 9 9 9 9 9 9 9 8 8 7 7 6 6 6 6 7 7 8 8 8 8 9 9
11 11 10 10 11 11 11 10 10 9 10 9 9 9 9 9 9 8 8 9 9 9 8 8 8 8 8 8 7 7 7 6 6 6 7 7 7 7 8 8 8 9 9
11 11 10 10 11 11 11 10 9 9 9 9 9 9 9 9 9 8 8 8 8 9 8 8 8 8 7 7 7 7 6 5 5 6 6 6 7 7 8 8 8 8 8
11 10 10 11 11 11 11 10 10 9 9 9 9 9 8 8 8 8 8 7 7 8 8 7 7 7 6 6 6 6 6 5 5 6 6 6 6 7 8 8 8 8 8
11 10 10 11 11 10 10 9 9 9 10 9 9 8 8 8 8 7 7 7 6 6 7 7 6 6 5 5 5 5 5 5 5 5 6 6 6 7 7 7 7 8 8
11 10 10 10 10 10 10 9 9 9 9 9 9 8 8 8 7 7 7 6 5 5 6 6 5 5 4 4 4 5 5 5 5 5 5 5 6 6 6 6 7 7 8
11 11 10 11 10 10 10 10 9 9 9 9 9 8 7 7 7 7 6 6 5 5 5 5 5 4 4 4 4 4 5 5 5 5 4 4 5 5 6 6 6 7 7
12 12 11 11 11 11 10 9 9 9 9 9 9 8 8 7 6 6 6 6 6 5 5 5 5 4 4 4 4 4 4 4 4 4 4 4 5 5 6 6 6 6 7
12 12 13 12 12 11 10 9 9 9 10 9 8 8 8 7 7 6 7 6 6 6 5 5 5 4 4 4 4 4 3 3 4 4 4 4 4 4 5 6 6 6 7
12 12 13 13 11 11 10 10 10 10 9 9 8 7 6 6 6 6 6 6 5 5 6 5 5 4 4 3 3 3 3 3 3 3 3 3 4 5 5 6 6 7 7
12 12 12 11 10 10 10 10 10 9 9 8 8 8 6 5 6 6 5 6 6 6 6 6 5 4 4 3 3 4 4 4 4 3 3 4 4 5 5 6 6 7 7
12 12 12 11 11 10 10 10 10 9 9 8 8 7 7 6 6 6 6 6 6 6 6 6 6 5 4 4 4 4 3 3 3 3 4 4 5 5 5 6 7 7 8
12 12 12 11 11 11 10 9 9 9 8 8 8 7 7 7 6 6 6 6 6 6 7 7 6 6 6 5 5 5 4 4 4 4 4 4 5 5 5 6 7 8 8

GEFSSE_500_meanwind_210.txt.gz
Wind_Speed
1 1 2 2 2 2 3 4 4 4 5 5 5 5 5 6 6 6 6 6 7 7 8 8 9 8 8 8 8 8 8 8 8 8 8 7 7 7 6 7 6 6 6
2 2 3 3 3 3 4 5 5 5 6 6 6 6 6 6 7 6 7 7 8 8 8 9 9 9 9 9 8 8 9 9 9 8 8 8 8 8 8 8 8 7 7
3 3 4 4 4 4 5 6 6 6 7 7 7 7 7 7 7 7 8 8 8 9 9 9 9 9 9 9 9 9 9 10 9 9 9 9 9 9 9 9 9 9 9
4 4 5 5 5 5 6 6 7 7 8 8 8 8 8 8 8 8 9 9 9 9 9 10 9 9 9 9 9 10 10 10 10 10 10 10 10 10 10 10 10 10 10
5 5 6 6 6 6 7 6 7 8 8 8 9 9 8 8 9 9 9 9 10 9 9 10 10 10 10 10 10 10 10 10 10 11 11 11 11 10 11 10 10 11 10
6 6 7 7 7 7 7 7 8 8 9 9 9 9 9 9 9 9 10 10 9 9 10 10 10 10 10 10 10 10 10 10 10 11 11 11 10 10 11 11 11 11 11
6 7 7 7 8 8 8 8 8 8 8 9 9 10 10 10 10 11 11 11 10 10 10 10 10 11 10 10 10 10 10 10 10 10 10 10 10 10 10 11 11 11 11
7 7 7 8 8 8 8 8 8 9 9 9 9 9 10 10 11 11 11 11 11 11 11 11 11 10 10 10 10 10 9 10 10 9 9 9 10 11 11 11 11 11 11
7 7 8 8 8 8 8 9 9 9 9 9 9 10 10 10 11 11 12 11 11 11 11 11 11 10 9 9 9 10 9 10 10 10 10 10 10 10 11 11 11 11 11
7 7 7 8 8 8 8 8 9 9 9 10 10 10 10 10 11 11 11 11 11 10 10 10 10 10 9 9 9 9 9 10 11 10 10 10 10 10 10 10 11 11 11
7 7 7 7 7 8 8 8 9 9 9 9 9 10 9 10 10 10 10 10 10 9 9 9 9 10 9 9 10 10 9 10 10 10 10 10 10 10 9 9 9 10 10
7 8 8 7 8 8 8 8 8 9 9 9 9 9 9 9 9 9 9 9 9 9 8 9 9 9 8 9 9 9 9 9 9 9 9 8 9 9 9 8 8 9 10
8 8 8 8 9 8 9 9 9 9 9 9 9 8 8 8 8 8 8 8 8 8 8 8 8 8 8 8 8 8 8 9 9 9 9 8 9 9 8 8 9 9 9
8 8 9 9 9 8 9 9 9 9 9 9 8 8 8 8 8 8 7 7 8 8 8 8 8 8 8 8 8 8 7 7 8 8 8 8 8 8 8 8 8 9 9
9 9 9 9 9 9 9 9 9 9 9 8 8 8 8 8 8 7 7 7 7 8 8 8 8 8 8 8 8 7 7 7 7 7 7 8 7 7 7 7 7 8 8
9 10 10 10 9 9 9 10 9 9 8 7 7 7 7 7 7 7 7 7 7 7 7 7 8 8 7 7 8 7 7 7 6 6 6 6 7 7 7 7 7 8 8
9 10 10 10 9 9 9 9 9 9 8 7 7 7 6 6 6 6 6 6 7 7 7 7 8 8 7 7 7 7 7 7 6 6 6 5 5 6 6 6 7 7 7
9 9 9 9 9 9 9 9 9 8 8 7 7 7 6 6 6 6 6 6 6 6 6 7 8 7 7 7 7 6 6 6 6 6 6 5 5 5 5 6 6 6 7
10 9 9 9 9 9 8 8 8 8 7 6 6 6 6 6 6 6 6 5 6 6 6 6 7 7 7 6 7 6 6 6 6 6 6 5 5 5 5 5 5 6 6
10 10 9 9 9 8 7 7 7 7 7 6 6 6 6 6 6 6 6 5 5 5 5 6 6 6 6 6 6 6 6 6 5 5 5 4 4 4 4 5 5 5 6
10 10 9 9 9 8 7 7 7 7 6 6 6 6 6 6 6 6 5 5 5 5 5 5 5 6 6 6 6 6 6 5 5 5 5 4 4 4 5 4 4 4 5
10 9 9 9 9 8 7 7 7 6 6 6 6 6 6 6 6 6 6 6 6 6 5 5 6 6 6 6 6 6 5 5 5 5 5 5 4 4 4 3 3 4 4
10 9 10 9 9 9 8 7 7 6 6 6 6 6 6 6 6 7 6 6 6 6 6 6 6 6 6 6 5 5 4 4 4 4 4 4 4 4 3 3 4 4 5
10 10 10 10 9 8 8 7 7 7 7 6 6 5 5 6 6 6 6 6 6 7 6 6 7 7 7 6 5 5 4 3 3 3 4 4 4 4 3 3 4 4 5
10 10 10 10 9 8 7 7 7 7 7 7 6 6 6 6 6 7 7 6 6 7 7 7 7 7 7 7 6 5 5 4 4 3 3 3 3 4 3 4 4 4 5
10 10 10 9 8 8 7 7 7 7 7 6 7 7 7 7 7 8 8 7 7 7 7 7 7 7 7 7 6 6 5 5 5 4 4 4 4 4 4 5 5 5 5

GEFSSE_500_meanwind_216.txt.gz
Wind_Speed
2 2 2 3 4 4 5 4 3 3 3 3 3 3 4 4 4 4 4 5 5 6 6 6 6 6 6 6 7 7 7 7 7 7 7 7 7 6 6 6 6 6 6
3 3 4 4 5 5 6 6 5 4 4 4 4 4 5 5 5 5 6 6 6 6 6 7 7 6 7 7 7 7 7 8 8 8 8 8 8 7 7 7 7 7 7
5 5 5 5 6 6 7 7 6 6 6 5 5 5 6 6 6 6 6 6 6 7 7 7 7 7 7 8 8 8 8 8 8 8 8 8 8 8 8 9 9 8 8
5 6 6 6 6 6 6 6 6 6 6 6 6 6 7 7 7 7 7 7 7 7 7 7 8 8 8 8 8 8 9 9 9 9 9 9 9 9 10 10 10 9 9
6 6 6 6 6 6 6 6 5 6 6 7 7 7 7 8 8 8 9 8 8 8 8 8 8 9 9 9 9 9 9 10 10 10 10 10 11 11 10 11 10 10 10
6 7 7 7 7 7 6 6 6 6 7 7 8 8 8 8 8 9 9 9 9 9 8 8 8 9 9 10 10 10 10 11 11 11 11 11 11 11 11 11 11 11 10
7 7 7 7 7 7 7 7 7 7 7 8 8 8 8 8 9 9 9 9 10 10 9 9 9 9 10 10 10 10 10 11 11 11 11 11 11 12 12 11 11 11 11
7 7 7 7 7 7 7 7 8 8 8 8 9 9 9 9 9 10 10 10 10 11 10 11 11 10 10 10 10 10 10 10 10 11 11 11 11 11 11 11 11 11 11
8 8 7 7 7 7 7 7 8 8 8 9 9 9 9 9 9 9 10 10 10 10 11 11 10 10 10 10 10 10 10 10 11 11 11 11 11 11 11 11 11 11 11
8 7 7 7 7 7 7 8 8 8 9 9 9 9 9 9 9 9 9 9 9 10 10 10 9 9 9 10 9 9 9 10 11 11 11 11 11 10 11 11 10 11 11
8 7 7 7 6 7 8 8 8 8 9 9 9 10 10 10 10 9 9 9 9 9 9 10 10 10 10 9 9 9 9 9 10 10 10 10 11 11 11 11 11 11 11
9 8 7 7 6 7 7 8 8 9 9 9 10 10 10 10 10 10 10 10 9 9 9 10 11 11 11 10 10 9 9 9 9 9 10 10 11 11 11 11 11 11 11
9 8 7 7 6 6 7 8 9 9 9 9 9 9 10 10 10 10 10 10 10 9 9 9 9 10 10 9 9 10 9 9 8 8 9 10 10 10 10 11 11 11 10
8 8 8 8 8 8 8 9 9 9 9 9 9 9 9 9 9 9 9 10 10 9 9 9 9 9 9 9 9 9 9 8 8 8 8 8 9 9 9 10 10 10 10
8 8 8 9 9 9 9 9 9 9 9 9 8 9 9 9 8 8 8 8 9 9 9 9 9 9 9 10 9 9 9 8 8 8 8 8 8 9 9 9 9 9 9
8 8 8 9 9 9 9 9 9 9 8 8 8 8 8 8 8 7 7 8 8 8 7 8 9 9 9 9 9 9 8 8 7 7 7 7 8 8 8 8 8 8 8
8 8 8 8 8 8 9 9 9 8 8 8 8 8 8 8 8 7 6 6 7 7 7 8 8 8 8 8 8 8 8 7 7 6 7 7 7 7 7 7 8 8 8
9 9 8 8 8 9 9 9 8 8 8 7 7 8 7 7 7 7 7 6 7 7 7 7 7 7 7 7 7 7 7 7 6 6 7 8 7 8 8 7 7 8 8
9 9 9 9 8 9 9 8 8 8 8 7 7 7 6 6 6 6 6 7 7 7 7 7 6 6 6 6 7 7 7 7 6 6 7 7 7 7 7 7 7 7 7
9 9 9 8 8 8 9 9 8 8 7 6 6 6 6 6 6 6 6 6 6 7 7 6 6 6 6 6 6 7 7 7 6 6 6 6 6 6 6 6 6 6 7
9 9 9 9 9 8 8 8 7 6 6 6 5 6 6 5 5 6 6 6 6 5 5 5 5 6 6 6 6 6 6 6 5 4 5 5 5 5 5 5 5 5 6
9 9 9 9 9 8 7 7 7 6 5 5 5 5 6 5 5 6 6 6 5 5 4 4 5 5 5 5 5 5 5 5 4 4 4 4 4 5 5 5 5 4 5
9 9 9 9 9 8 7 7 7 6 6 5 5 5 5 6 6 7 6 6 6 5 5 5 5 5 5 5 5 5 4 5 5 5 4 4 4 4 4 4 5 5 5
9 10 10 9 9 8 7 7 7 6 6 6 6 6 6 6 6 7 7 7 7 6 6 6 5 5 5 5 5 5 5 5 5 5 5 4 4 4 4 4 5 5 6
9 10 10 9 9 8 7 7 7 7 6 6 7 6 6 7 7 8 8 8 8 7 7 6 6 6 6 5 5 5 5 5 5 5 5 5 5 4 4 5 5 5 5
10 10 10 10 9 8 8 7 7 7 6 6 7 7 7 7 8 8 8 7 8 7 7 7 7 6 6 6 6 6 5 5 5 5 4 4 5 5 5 5 5 5 6

GEFSSE_500_meanwind_222.txt.gz
Wind_Speed
2 2 3 3 3 2 3 3 4 4 4 4 4 3 4 4 4 4 4 4 4 4 5 5 5 6 6 6 6 6 6 7 7 6 7 7 6 6 6 6 5 6 6
4 4 3 4 4 3 4 4 5 5 5 5 5 5 4 5 5 5 4 4 4 4 5 5 5 5 7 7 7 7 7 7 7 7 7 7 7 7 7 6 6 7 7
5 5 5 5 5 5 5 5 5 5 6 6 6 6 6 6 6 6 5 5 5 5 5 6 6 6 7 7 7 8 8 8 8 8 8 8 8 8 8 7 8 8 8
5 5 5 5 6 6 6 6 6 6 7 6 6 6 6 7 7 7 7 7 7 6 7 6 6 7 8 8 8 8 8 8 8 8 8 8 9 9 9 9 9 9 9
5 5 6 6 7 7 7 7 7 8 7 7 7 7 6 7 8 8 8 8 8 8 7 7 7 7 8 8 8 8 8 9 9 9 9 9 9 10 10 10 10 10 10
6 7 7 7 8 8 8 8 8 8 8 8 8 7 7 7 8 9 9 9 9 9 9 8 8 8 9 9 8 8 8 9 9 10 10 10 10 10 11 11 11 12 11
6 7 7 7 7 7 8 8 8 8 8 9 8 8 8 8 9 9 10 10 10 10 10 10 10 10 10 9 9 9 9 9 9 10 10 10 11 11 11 11 12 12 12
7 7 7 8 8 8 8 8 8 8 8 9 9 8 8 9 9 9 10 11 10 10 11 11 11 10 10 10 10 10 10 10 9 9 10 10 11 11 12 12 12 12 13
7 7 7 8 8 8 8 8 9 9 9 9 9 9 9 9 9 9 10 11 10 11 11 11 10 10 10 9 9 9 9 9 9 9 10 10 10 11 12 12 12 12 13
7 7 8 8 8 8 9 9 9 9 9 9 9 10 9 9 8 9 9 9 9 10 10 10 10 11 10 10 9 9 9 9 9 10 10 10 10 11 11 12 12 12 13
8 7 8 8 8 8 9 9 10 9 9 9 10 10 9 9 9 9 9 9 10 10 10 10 11 11 11 11 10 10 9 9 9 10 10 10 11 11 11 12 12 12 12
8 8 8 8 7 8 8 9 9 9 10 10 10 10 9 9 9 9 9 9 10 10 10 10 11 11 11 11 10 10 9 9 10 10 10 11 10 11 11 11 11 12 12
9 8 8 7 7 7 7 8 9 9 10 10 10 10 10 10 9 9 9 10 10 10 10 10 11 11 11 11 10 10 10 10 10 10 10 11 11 11 10 11 11 12 13
8 8 8 7 7 7 7 8 8 9 9 10 10 9 9 9 9 9 9 10 10 10 10 10 10 10 10 10 9 10 10 10 9 9 10 10 10 9 10 10 11 12 12
8 7 8 7 7 8 7 7 8 9 9 9 9 9 9 9 9 9 9 9 9 10 10 9 9 9 9 9 10 10 9 10 9 9 9 9 9 9 9 10 10 10 10
8 7 8 7 8 8 8 7 8 8 8 8 8 8 9 9 9 9 9 9 9 9 9 9 9 8 9 9 9 10 10 10 10 9 9 9 9 9 9 9 9 9 9
8 8 8 8 8 8 8 8 8 8 8 8 8 8 8 8 8 8 9 9 9 9 9 10 9 9 9 9 9 9 9 9 9 9 9 9 9 9 8 8 8 8 9
8 8 8 9 9 9 9 8 9 9 9 8 8 8 8 8 8 8 9 9 9 8 8 9 9 9 9 9 9 8 8 8 8 9 9 9 9 9 8 8 7 7 7
8 8 9 9 9 10 10 9 9 8 9 8 8 8 8 8 7 8 8 8 8 8 8 8 9 9 9 9 9 8 8 7 7 8 8 8 8 9 9 8 7 7 7
8 8 8 8 9 9 9 9 9 9 8 8 7 7 7 7 7 7 7 7 8 8 8 8 8 9 9 9 8 8 8 8 7 7 8 8 9 9 8 7 7 7 7
9 8 8 8 8 8 8 9 9 9 8 8 7 7 6 6 7 7 7 7 8 7 8 8 8 9 8 8 8 8 8 8 7 7 7 8 8 8 7 7 7 7 7
9 9 9 9 9 9 9 8 8 8 7 7 7 7 7 7 7 6 6 7 7 8 7 7 7 7 7 7 7 7 7 6 6 7 6 6 6 6 6 6 6 6 6
9 9 9 9 9 9 9 8 8 7 7 7 7 8 7 7 7 7 7 8 8 8 8 7 6 6 6 6 6 6 6 6 6 6 6 5 5 4 5 5 5 5 5
10 10 10 10 9 9 9 8 8 7 7 6 6 7 8 8 9 9 9 8 8 9 8 7 6 6 6 6 7 7 7 7 7 6 6 5 4 4 4 4 4 4 4
11 11 11 10 10 9 9 8 8 8 7 7 7 7 8 8 8 8 9 8 8 8 8 7 7 7 7 7 7 7 7 7 7 6 5 5 5 5 5 5 4 4 4
12 11 11 11 10 10 9 8 8 8 8 8 8 8 8 8 8 8 8 8 8 9 9 8 7 7 6 6 7 7 6 7 7 6 5 5 5 5 5 5 5 5 5

GEFSSE_500_meanwind_228.txt.gz
Wind_Speed
4 5 5 5 6 5 5 5 5 6 6 6 6 6 6 6 7 7 6 6 6 6 6 6 7 6 6 6 5 5 5 5 6 6 6 6 6 6 5 5 4 5 5
5 6 6 6 7 7 7 7 7 7 6 6 7 7 7 7 7 7 7 7 7 7 6 6 6 6 6 6 6 6 6 6 6 6 7 7 7 7 6 6 5 5 5
7 7 7 8 8 8 8 8 8 7 7 7 7 8 8 8 8 8 7 7 7 7 7 7 7 6 7 7 7 7 8 8 8 8 8 8 8 8 8 7 6 6 6
8 8 8 8 9 9 9 9 9 9 8 8 8 9 9 9 9 9 8 7 7 8 7 8 7 7 7 7 7 8 8 8 8 9 9 9 9 9 9 8 7 7 7
8 9 9 9 9 9 10 10 9 9 9 9 10 9 9 9 9 9 9 9 9 9 8 8 9 8 8 8 8 8 8 8 8 8 9 8 9 9 9 9 9 9 9
9 9 9 9 9 10 10 9 9 9 10 10 10 10 10 9 9 9 9 10 10 10 9 9 9 9 9 9 9 9 9 9 9 8 8 9 9 9 9 10 10 10 10
8 9 9 9 9 10 10 9 9 9 10 10 10 10 10 10 9 9 10 10 10 10 10 9 10 10 10 10 10 9 9 10 9 9 8 8 9 9 10 10 10 10 10
8 8 8 9 9 9 9 9 10 10 10 10 10 10 10 10 10 10 10 11 10 10 10 10 10 11 11 10 10 9 10 10 10 9 9 9 9 9 10 11 11 11 11
9 9 9 9 9 9 9 9 10 10 10 10 11 10 10 10 10 10 11 11 11 10 9 10 10 11 11 10 10 10 10 10 10 10 10 10 10 10 10 11 11 11 11
9 9 10 9 9 9 9 10 10 11 10 11 10 10 9 9 9 10 10 10 10 10 10 10 10 10 10 11 11 10 10 10 10 10 10 10 10 11 11 11 11 11 12
9 9 10 9 8 9 9 10 10 10 10 11 10 10 9 9 9 9 9 9 10 10 10 10 10 11 11 11 11 11 11 10 10 10 10 10 10 11 11 11 11 11 12
9 10 9 10 9 9 10 10 10 9 10 10 10 10 9 9 9 9 9 9 9 10 10 10 10 11 12 12 12 12 11 11 11 10 10 10 11 11 11 11 11 11 12
10 10 9 9 9 10 10 10 10 10 10 10 10 10 9 9 9 10 10 10 9 9 9 10 11 11 11 12 12 11 11 11 10 10 10 10 10 10 11 11 11 11 11
10 10 10 10 10 10 10 10 10 10 10 10 10 9 9 9 9 10 9 9 9 9 9 9 10 10 10 11 11 10 10 10 10 10 10 10 10 10 11 11 11 11 12
10 10 10 10 10 10 10 10 10 10 10 10 10 9 9 9 9 10 10 10 9 9 9 9 9 10 10 10 9 9 9 10 9 9 10 10 10 10 11 11 11 10 11
10 10 10 10 10 10 10 10 10 10 10 11 10 10 9 9 10 10 10 9 9 9 9 9 10 9 9 9 8 8 9 9 9 10 10 10 10 10 10 10 10 10 10
10 9 9 9 10 10 9 9 10 10 10 11 11 11 10 9 9 9 9 9 9 9 9 9 9 9 8 8 8 8 8 9 9 9 9 9 9 9 9 9 9 9 9
9 9 9 9 10 10 11 10 10 9 9 9 10 10 9 9 9 9 9 9 9 9 8 9 9 9 9 9 8 8 8 9 8 8 8 8 8 8 8 8 8 8 8
10 10 10 10 10 11 11 11 11 10 9 9 9 9 9 9 9 9 9 9 8 9 8 8 8 9 9 9 9 9 8 9 9 8 8 8 8 8 8 7 7 7 8
11 11 10 10 11 12 12 12 11 10 10 9 9 8 9 9 8 8 8 8 8 8 8 8 8 8 8 9 9 8 8 8 8 8 7 8 8 8 8 7 7 7 7
11 11 11 11 11 12 11 11 11 10 10 9 9 9 8 8 8 8 8 8 8 8 8 8 8 8 8 8 8 8 8 7 7 7 7 7 7 8 7 7 7 7 7
11 11 11 12 12 12 11 10 10 10 10 9 9 9 8 8 8 8 9 9 9 9 9 8 8 8 8 8 8 8 8 7 7 7 8 8 8 7 7 7 7 7 7
12 12 12 12 12 12 12 11 11 10 9 8 8 8 8 8 8 8 8 9 9 9 8 8 8 7 7 7 8 8 8 8 8 8 8 8 7 7 7 8 7 7 6
13 13 12 12 12 12 12 12 11 10 9 9 9 8 9 9 9 8 8 8 8 8 8 8 7 7 7 7 7 7 8 8 8 7 7 7 6 6 6 7 6 6 6
13 13 13 13 13 12 12 12 10 10 10 9 9 9 9 8 8 8 8 8 8 8 8 8 8 8 7 7 7 7 8 8 8 8 7 6 6 6 6 6 6 6 6
13 14 14 13 13 13 13 12 11 10 10 9 9 9 9 9 8 8 8 9 9 8 8 8 8 7 7 8 8 8 8 8 8 7 7 6 6 6 6 6 6 6 6

GEFSSE_500_meanwind_234.txt.gz
Wind_Speed
3 3 3 4 3 4 5 5 5 6 6 7 7 7 7 8 8 8 8 8 8 7 7 8 8 8 8 7 7 7 6 6 6 6 6 7 6 6 6 5 5 6 5
4 3 4 5 5 5 6 6 7 7 7 7 8 8 9 9 9 9 9 9 9 9 9 8 8 7 7 7 7 8 7 7 7 7 7 6 6 6 6 6 6 6 6
5 5 5 6 6 6 7 7 8 8 8 8 9 9 9 9 10 10 10 9 9 10 10 9 9 8 7 8 8 8 8 8 8 8 8 7 7 7 7 7 7 7 7
6 6 6 7 7 8 8 8 8 9 9 9 9 10 10 10 10 11 11 10 11 11 10 9 9 9 9 8 8 8 8 8 8 8 8 8 8 8 8 8 8 8 7
6 6 7 7 8 8 9 9 9 9 10 10 10 10 10 10 10 11 11 11 11 12 11 10 10 10 9 9 9 9 9 9 8 8 8 8 8 8 9 9 9 8 8
6 7 7 7 8 9 9 10 10 10 10 10 10 10 10 10 10 10 10 11 11 10 10 10 10 10 10 9 9 9 9 9 9 9 9 9 8 8 9 9 10 10 9
7 8 7 8 8 8 9 9 9 10 9 10 10 11 10 10 10 10 10 11 10 10 10 10 10 10 10 10 10 10 10 10 10 10 10 10 9 9 9 9 10 10 10
7 7 7 7 7 8 8 8 8 9 9 9 9 9 9 9 9 10 10 11 11 10 10 10 10 10 10 10 10 10 10 11 10 10 10 10 10 10 10 10 10 10 10
7 7 7 7 7 8 8 8 8 8 8 9 9 9 9 9 9 9 9 10 10 10 10 10 10 10 10 10 10 10 11 10 10 10 10 10 10 10 10 10 11 10 10
7 7 7 7 8 8 8 8 8 8 8 8 9 8 8 8 8 9 9 9 9 10 10 10 10 10 10 9 9 10 10 10 10 10 10 10 10 10 10 10 10 10 10
7 7 7 6 7 8 8 8 8 8 8 8 9 8 8 8 8 8 9 9 9 10 10 10 11 11 10 9 10 10 10 10 10 10 10 10 10 10 10 10 10 10 10
7 7 7 6 7 7 7 8 8 8 8 8 8 8 8 8 8 8 9 9 9 10 10 10 10 10 10 10 10 10 9 9 10 10 10 10 10 10 10 10 10 10 10
8 8 7 7 8 7 6 7 8 8 8 8 8 8 7 7 7 7 8 9 9 9 9 9 9 9 10 10 10 9 9 9 9 9 9 10 10 10 10 10 10 10 11
8 8 8 7 7 8 7 7 7 7 8 8 8 8 8 7 7 7 8 8 8 8 8 8 8 8 8 9 9 9 9 8 8 8 9 9 9 10 9 9 9 9 10
8 8 7 7 7 7 7 7 8 7 7 8 8 8 8 7 7 7 8 8 8 8 7 7 7 7 8 8 9 9 8 8 7 7 8 8 8 8 9 8 9 9 9
8 8 8 8 7 7 8 8 8 7 7 7 7 7 7 7 7 7 7 8 7 7 7 7 7 7 7 8 8 8 8 8 7 7 7 7 7 8 7 7 8 8 8
8 8 8 8 8 8 8 8 8 8 7 7 7 7 7 7 6 6 7 7 7 7 6 6 7 7 7 7 7 7 7 7 7 7 7 7 7 7 6 6 7 7 7
7 8 7 8 8 8 8 9 8 8 7 6 6 7 7 7 6 6 6 7 6 7 7 7 7 8 7 7 7 8 7 8 8 7 7 7 7 7 6 6 7 7 7
7 7 7 8 8 8 8 9 8 8 7 6 6 6 6 7 6 6 6 7 7 8 8 8 8 8 8 7 7 7 7 8 7 7 7 7 7 7 7 6 7 7 7
7 8 8 8 8 9 9 8 7 7 6 6 6 6 6 6 6 6 6 6 7 7 7 7 8 7 7 7 6 6 7 7 7 7 7 7 7 6 6 6 7 7 7
8 8 8 9 9 9 9 8 7 7 6 6 6 6 7 7 7 7 7 7 7 7 7 7 7 7 7 7 7 6 7 7 6 7 7 6 6 6 6 7 7 7 7
9 9 9 9 9 9 9 8 8 7 7 5 5 6 6 6 6 6 6 6 7 7 7 7 7 7 7 7 7 7 6 6 6 7 7 6 6 7 7 7 8 8 7
9 9 9 9 9 8 8 8 8 8 7 6 6 6 6 5 6 6 6 7 7 7 7 7 7 7 7 7 6 7 6 6 7 6 6 7 7 7 7 7 7 6 6
10 10 10 10 10 9 9 9 8 8 7 7 6 6 6 6 6 6 7 7 7 6 7 7 7 6 6 6 6 6 6 7 7 7 7 7 7 7 8 8 7 6 6
11 11 11 11 11 10 10 10 9 8 8 7 7 6 6 6 6 7 7 7 8 8 7 7 6 6 6 6 6 6 6 7 7 7 7 7 7 7 7 7 7 6 6
12 12 12 12 12 12 11 10 10 9 9 9 8 8 8 7 7 8 8 9 9 9 8 7 7 7 7 7 7 7 7 7 7 8 8 7 7 7 7 7 6 6 6

GEFSSE_500_meanwind_240.txt.gz
Wind_Speed
3 4 4 5 5 5 5 5 5 5 5 5 5 5 5 6 6 6 6 6 6 6 6 6 6 6 7 7 7 6 6 6 6 7 7 7 7 7 6 6 6 6 6
4 5 5 5 6 6 6 6 6 6 6 6 6 6 6 7 8 8 7 7 7 7 7 7 7 7 7 7 7 7 7 7 8 8 8 8 7 7 8 7 7 7 6
5 5 6 6 6 7 7 7 7 7 7 7 7 7 7 8 8 9 9 9 9 9 8 8 8 8 8 8 8 7 7 7 8 8 8 8 8 8 8 7 7 7 7
6 6 7 7 7 7 7 7 7 7 8 8 8 8 8 9 9 9 10 10 10 9 9 8 8 9 9 8 8 8 8 8 8 8 8 8 8 7 8 8 8 8 8
6 7 7 7 7 7 8 8 8 8 8 8 8 9 9 9 9 10 10 10 10 9 9 8 8 9 9 9 8 8 8 8 8 8 8 7 7 7 7 8 8 7 7
6 7 7 7 8 8 8 8 8 8 7 8 8 8 9 9 9 10 10 10 10 9 8 8 8 9 9 9 9 9 9 9 9 8 8 7 7 8 8 8 8 8 8
7 7 7 7 7 7 7 7 7 7 7 7 8 8 9 9 9 10 10 10 9 10 9 9 8 9 9 10 10 10 10 10 10 9 9 9 9 9 9 9 9 10 10
7 7 7 7 7 7 7 7 7 7 7 7 8 8 8 8 8 9 10 10 10 10 10 9 9 9 10 10 10 11 11 11 10 9 9 9 10 10 10 10 10 10 10
7 7 7 7 7 7 7 7 7 7 7 7 7 8 8 8 9 9 9 9 10 10 10 10 10 10 10 10 10 10 10 10 10 9 9 10 10 10 10 10 10 10 10
7 7 7 7 7 7 7 7 7 7 7 7 8 8 8 8 8 8 8 9 9 9 9 10 10 10 10 10 10 9 9 10 10 10 10 11 10 10 10 10 10 10 10
8 8 7 7 7 7 7 7 7 8 7 7 8 8 8 8 8 8 8 8 8 8 9 9 9 9 9 9 9 9 9 9 10 10 10 10 10 11 11 11 11 11 11
8 8 7 7 7 8 8 7 8 8 8 8 8 8 8 8 8 8 7 7 7 7 8 8 9 9 9 9 9 9 10 10 9 9 9 9 10 11 11 11 12 12 12
8 8 7 7 7 7 7 8 8 7 7 8 8 8 7 8 8 8 7 7 7 7 7 8 8 9 10 9 9 10 10 10 9 9 10 10 10 11 11 11 12 12 11
9 8 8 8 7 7 7 7 7 7 7 8 8 8 7 8 8 7 7 7 7 8 8 8 8 9 10 11 11 10 10 9 9 9 9 9 10 10 10 10 10 11 11
9 9 9 8 7 7 7 7 7 7 7 8 8 7 7 7 7 7 6 7 8 7 7 7 8 9 10 10 10 10 10 10 10 10 9 9 9 9 10 10 10 9 9
9 9 8 8 8 7 7 7 7 7 8 8 8 8 7 8 7 7 6 6 6 7 8 8 8 9 10 10 10 10 10 10 9 9 8 8 9 9 9 8 8 8 8
9 9 8 8 8 8 7 8 8 7 8 8 8 8 7 7 7 7 6 6 6 6 7 8 9 9 9 9 9 9 10 9 9 8 8 8 8 8 8 7 7 7 7
9 9 8 8 8 7 8 8 8 7 7 7 7 7 7 7 6 7 7 6 7 7 7 8 8 8 8 7 8 8 9 9 9 8 8 7 7 7 7 6 6 6 6
9 9 9 8 8 8 8 7 7 7 6 6 7 7 7 7 7 7 6 6 6 6 6 7 7 6 7 7 7 7 7 8 8 8 8 7 7 7 7 7 7 7 6
8 8 9 8 8 8 8 7 7 7 7 7 7 7 7 8 7 7 6 6 5 5 6 6 6 6 6 7 7 7 7 8 8 8 7 8 8 7 7 7 8 7 8
9 8 8 8 8 7 8 7 7 6 7 6 6 7 7 8 8 8 8 7 7 7 7 7 7 7 7 7 7 7 7 8 7 8 8 8 7 7 7 8 8 9 8
9 9 9 8 8 8 8 8 7 7 7 7 7 7 7 7 8 7 8 8 8 8 8 8 7 8 8 8 8 8 8 8 8 8 8 7 7 7 8 8 8 9 8
10 10 9 9 9 9 9 9 8 7 7 7 7 7 7 8 8 8 9 9 9 8 8 8 8 8 8 7 8 8 8 8 8 7 8 7 7 7 7 8 8 8 8
11 10 10 11 10 10 10 9 9 9 8 8 8 8 8 8 9 9 9 10 10 9 8 8 8 8 8 8 7 7 7 7 8 8 8 7 7 7 7 7 7 8 8
12 11 11 12 12 11 11 10 10 10 10 10 9 9 9 9 9 9 10 11 10 10 9 8 8 8 8 7 7 7 7 7 8 8 8 8 8 8 8 8 8 8 9
13 12 13 13 13 13 12 11 11 11 11 11 10 10 10 10 10 10 10 11 10 10 10 9 9 9 8 8 7 7 8 8 8 8 8 8 9 9 9 9 9 9 9

GEFSSE_500_meanwind_246.txt.gz
Wind_Speed
3 3 3 2 3 3 4 4 4 4 4 4 4 4 5 5 5 5 5 4 4 5 6 5 5 5 4 5 5 5 5 5 5 6 6 6 7 7 7 7 7 6 7
3 4 4 4 3 4 5 5 6 5 5 6 6 6 6 6 6 6 6 6 6 6 6 6 6 5 5 5 5 5 6 6 6 6 7 7 7 7 7 7 7 7 7
4 4 4 5 4 5 5 5 6 7 7 7 7 7 7 7 7 7 7 7 7 7 6 7 6 6 6 6 5 5 5 6 6 6 7 7 7 8 8 8 8 8 8
5 5 5 6 6 6 6 7 7 7 7 7 7 7 7 7 7 7 7 8 8 8 7 7 6 7 7 6 6 6 6 6 6 7 7 7 7 8 8 8 9 9 8
5 6 6 6 7 7 7 7 7 7 7 7 7 8 8 7 7 7 8 8 8 8 8 8 7 7 7 7 7 7 7 7 7 7 7 7 8 8 8 8 8 9 9
6 6 6 7 7 7 7 7 7 8 8 7 8 7 7 7 7 7 8 9 9 8 8 8 8 8 8 8 8 8 8 8 8 8 8 8 8 8 8 8 8 9 9
6 7 7 7 7 7 7 7 7 7 7 7 7 7 7 7 7 7 8 8 8 9 9 9 9 9 8 8 9 9 9 8 8 8 8 8 9 9 9 9 9 9 10
7 8 7 7 7 7 7 8 8 7 7 7 8 8 8 8 8 8 8 8 9 9 10 10 9 9 9 8 8 8 9 9 9 9 9 9 9 9 10 9 10 10 10
7 8 7 7 7 7 8 8 8 8 7 7 8 8 8 8 8 8 8 9 9 9 9 10 10 9 9 9 9 9 9 9 9 9 10 9 10 10 10 10 11 11 11
7 7 8 8 8 8 8 8 9 8 8 8 8 8 8 8 8 8 8 8 8 9 9 10 10 10 10 10 9 9 9 9 10 10 10 10 10 10 11 11 11 12 11
8 8 8 8 9 9 8 9 9 8 8 8 8 8 8 8 7 7 7 8 8 8 9 9 9 9 9 9 9 9 9 9 9 10 10 10 10 11 11 11 11 11 12
8 8 8 8 9 9 9 9 8 8 8 8 8 8 8 7 7 7 7 8 8 8 9 9 10 10 9 9 10 10 10 9 9 10 10 10 10 10 10 11 11 11 11
8 8 8 8 8 8 8 8 8 8 8 8 8 8 8 7 8 8 8 7 8 8 8 8 9 9 10 10 9 10 10 10 9 10 10 10 10 10 10 11 11 12 11
8 8 8 8 8 8 8 8 8 8 7 7 7 7 7 7 7 7 7 7 7 8 7 8 9 9 9 10 9 9 10 10 10 10 10 10 10 10 10 11 11 11 12
8 8 8 8 8 8 9 9 8 8 7 7 7 7 7 7 7 7 8 8 7 7 7 8 8 8 9 10 10 10 11 11 10 10 10 10 10 10 9 9 10 10 11
9 9 9 9 8 8 9 9 9 8 8 8 7 7 7 7 7 7 7 8 8 8 8 8 8 8 8 9 9 10 10 11 11 11 10 10 9 10 10 10 10 10 10
9 9 9 9 9 9 9 9 9 9 8 7 7 7 6 6 6 6 7 7 8 8 8 8 8 8 8 9 9 9 9 10 10 10 9 9 9 9 9 10 10 9 9
10 9 10 9 9 9 9 8 8 8 8 7 7 6 6 6 6 6 7 7 7 7 8 8 8 8 8 8 8 8 9 9 10 9 9 9 9 9 9 8 8 7 6
11 10 9 9 8 8 8 8 7 8 8 8 7 7 7 7 6 7 7 7 7 7 7 8 8 7 8 8 8 7 7 7 8 9 9 9 9 9 9 8 7 6 5
11 10 10 9 9 9 9 8 8 8 8 8 8 8 8 8 7 8 8 8 8 8 8 7 7 8 7 7 7 7 7 6 7 7 8 8 9 9 8 8 8 7 7
12 11 11 10 10 9 9 9 9 9 8 8 9 9 9 8 8 8 8 8 8 8 8 8 8 8 7 6 6 7 7 7 7 7 7 8 8 8 8 7 8 8 8
12 11 11 10 10 10 10 9 10 10 10 9 9 9 9 10 9 9 8 8 7 7 7 7 7 7 7 7 7 7 7 7 7 7 7 8 8 8 8 9 9 9 8
13 12 11 11 11 11 10 10 10 10 11 10 10 9 9 10 10 10 9 9 8 8 8 8 8 7 7 7 7 7 7 7 7 7 7 7 8 8 8 9 9 8 8
13 13 12 11 11 11 11 11 10 11 11 11 10 11 11 11 11 10 10 10 10 10 10 9 9 9 9 9 8 8 8 8 8 8 8 8 8 8 9 8 8 8 8
14 13 13 13 13 13 13 12 12 11 11 11 11 11 11 11 11 11 11 11 11 11 11 10 10 11 10 10 10 9 9 9 9 9 8 8 8 8 9 9 9 9 9
14 14 14 14 15 15 14 14 13 13 13 12 12 12 12 12 12 12 12 13 12 12 11 12 12 11 11 10 11 11 10 9 9 9 9 9 9 8 9 9 9 9 10

GEFSSE_500_meanwind_252.txt.gz
Wind_Speed
5 6 6 7 7 7 7 7 7 6 6 6 6 6 7 6 6 6 6 7 7 7 7 6 6 6 6 6 5 5 5 5 5 5 5 6 6 6 6 6 6 6 6
6 6 7 8 8 8 8 7 7 7 7 7 7 7 7 7 6 6 7 7 7 8 8 7 7 6 6 6 6 6 5 5 5 6 6 6 6 6 7 7 7 7 7
6 7 7 8 8 8 8 8 8 8 8 8 8 8 8 8 8 8 8 8 8 8 8 8 7 7 7 7 7 6 6 6 6 6 6 6 6 7 7 7 7 8 8
7 7 7 8 8 8 8 8 8 8 8 8 8 8 8 9 9 9 9 9 8 8 9 8 8 7 8 8 7 7 7 7 7 6 6 6 6 7 7 7 8 8 9
8 8 8 8 8 9 9 9 9 8 8 8 8 8 8 9 9 9 9 9 9 9 9 9 9 8 8 8 7 7 7 8 7 7 6 6 6 7 7 7 7 8 8
8 9 9 8 8 9 9 9 9 9 9 9 9 9 8 9 9 9 10 10 9 8 9 9 9 8 8 8 8 8 8 8 8 7 7 7 7 7 7 8 8 8 9
9 9 9 9 9 9 9 9 8 8 8 9 9 9 9 9 9 10 10 9 9 8 8 9 9 9 9 9 8 9 8 9 9 8 7 7 8 8 8 8 9 10 10
9 9 9 10 10 10 9 9 9 8 8 9 9 10 10 9 9 9 9 9 9 9 9 9 9 9 9 9 9 10 9 9 9 9 8 8 8 8 9 9 9 10 11
9 9 10 10 10 10 9 9 9 9 9 9 10 10 10 9 9 9 9 9 9 9 9 9 10 10 9 9 9 10 10 10 10 10 9 10 10 10 10 10 10 10 11
10 10 10 10 10 9 9 10 9 10 10 10 11 10 10 9 9 9 9 9 9 9 9 9 10 10 10 10 10 10 10 10 10 10 10 10 10 10 10 11 11 11 11
10 10 11 10 10 9 9 9 10 10 10 10 11 10 10 9 9 9 9 9 9 9 9 9 9 9 10 10 10 10 10 10 10 10 11 10 11 11 11 11 11 11 11
10 11 11 10 10 10 10 10 10 10 10 10 10 10 9 9 9 9 8 8 8 9 8 9 8 9 10 10 10 10 10 10 11 11 10 10 10 10 11 11 11 11 11
11 11 11 11 11 11 11 11 10 10 10 10 9 9 9 9 9 9 9 9 8 8 9 9 9 9 10 10 10 10 10 10 11 10 10 10 9 9 10 11 11 11 11
12 12 12 12 12 11 11 11 11 11 10 10 9 8 8 8 8 9 8 8 8 8 8 8 9 9 10 10 10 10 10 10 10 10 9 9 9 9 9 10 11 11 11
12 12 12 12 12 12 12 11 11 11 10 10 9 8 8 8 8 9 8 8 8 8 8 8 8 8 9 9 9 9 9 9 9 9 9 9 9 9 9 10 11 11 11
13 13 12 12 12 12 12 12 11 11 11 10 10 9 9 8 8 8 8 8 8 8 8 8 8 8 8 8 8 8 8 8 8 9 8 8 8 9 9 10 10 10 10
13 13 13 13 13 12 12 11 11 11 10 10 9 9 9 8 9 9 8 9 8 8 8 8 8 8 8 8 8 8 7 7 7 7 8 8 8 9 9 10 9 10 9
14 14 13 13 13 12 12 11 11 11 10 10 10 9 9 8 9 8 8 8 8 8 9 8 8 8 8 8 8 8 8 8 8 8 8 8 9 9 8 8 8 8 8
14 14 14 13 13 13 12 11 11 11 10 9 10 10 10 9 9 8 8 7 7 8 9 9 8 8 8 8 8 8 8 8 8 8 8 8 9 9 8 8 8 8 8
15 15 15 14 14 13 12 11 11 11 11 11 11 10 10 10 9 9 9 8 8 9 9 8 8 8 8 8 8 8 8 8 8 8 8 7 7 8 8 8 7 8 8
16 15 15 15 14 13 12 11 11 11 11 11 11 11 10 10 10 10 10 10 10 9 9 9 8 8 8 8 8 8 8 8 8 8 8 7 7 7 7 6 7 7 7
16 15 15 15 15 13 12 11 11 11 11 11 11 11 11 10 10 10 11 11 10 10 9 9 9 8 8 8 8 8 7 7 7 8 8 7 7 7 7 7 8 7 7
16 16 15 15 14 14 13 12 12 12 11 12 12 11 11 12 12 11 11 11 11 10 10 10 9 9 9 9 8 8 8 8 8 7 7 7 7 7 8 7 7 7 7
17 16 16 15 15 14 13 13 13 13 13 13 13 13 13 13 13 13 12 11 10 10 10 10 10 10 9 10 10 9 9 9 8 8 8 8 8 8 8 8 8 7 7
18 18 17 16 15 15 15 15 14 14 14 14 14 14 14 13 14 13 13 12 12 12 12 12 11 11 11 11 11 11 10 10 9 8 9 9 9 9 9 9 9 9 8
19 18 17 16 16 16 16 16 15 15 15 14 14 14 14 14 14 14 13 13 12 12 13 12 12 13 12 12 12 11 11 11 10 9 10 10 10 9 10 10 10 10 10

GEFSSE_500_meanwind_258.txt.gz
Wind_Speed
5 5 5 5 6 6 6 6 6 6 6 7 7 7 7 7 7 7 7 7 7 7 7 7 6 6 6 6 6 6 6 6 5 5 5 5 6 6 6 6 6 6 6
5 5 6 6 6 6 6 6 6 6 7 8 8 8 8 8 8 8 7 7 7 7 7 7 7 7 7 7 6 6 6 6 6 6 6 6 6 7 7 7 7 7 7
6 6 6 6 6 7 7 7 7 7 7 7 7 8 8 9 8 8 8 8 8 8 8 8 8 8 7 8 7 7 7 6 7 7 6 6 7 7 7 8 8 8 8
6 6 6 7 7 7 7 7 7 8 8 7 7 8 8 9 9 9 8 8 8 8 8 8 8 8 8 8 8 8 8 7 7 7 7 7 7 7 8 8 9 9 9
6 6 7 7 7 8 8 8 8 8 8 8 8 8 9 9 9 9 9 9 9 9 9 9 9 9 8 8 8 8 8 8 8 8 8 8 8 8 8 8 8 8 8
7 7 8 7 8 8 8 7 7 8 8 8 8 8 9 9 10 9 9 9 9 9 9 9 8 9 8 8 8 8 9 9 9 9 9 9 8 8 8 8 9 9 9
7 8 8 8 8 8 8 7 8 8 8 9 8 8 9 9 10 9 9 9 9 8 8 8 8 8 8 8 9 9 9 9 9 9 9 9 9 9 9 9 9 9 10
8 8 8 8 8 8 8 7 7 7 8 8 8 8 8 8 9 9 9 9 8 8 8 8 8 8 8 8 9 9 10 10 10 10 9 10 10 10 10 10 10 10 11
8 8 8 7 7 7 7 7 7 7 8 8 8 8 8 8 9 9 9 9 9 9 9 9 8 9 9 9 9 9 10 10 10 10 10 10 10 10 10 10 10 10 10
8 8 7 7 7 7 7 7 8 7 8 8 8 8 8 9 9 8 8 8 9 9 9 9 9 9 9 9 9 9 9 10 11 10 10 10 10 10 10 10 10 9 10
8 8 8 7 8 8 8 8 8 8 8 8 8 8 8 9 9 8 8 8 9 9 9 9 9 9 9 9 9 9 9 9 10 10 10 10 10 9 9 9 9 9 10
9 8 8 8 8 8 8 8 8 9 9 9 8 8 8 8 9 8 8 8 9 9 9 9 9 9 9 9 10 9 9 9 9 9 10 9 9 9 9 9 9 9 9
8 9 9 8 9 9 9 9 9 9 9 9 8 9 8 8 8 8 8 8 8 8 8 9 9 9 9 9 9 9 9 8 8 9 9 9 8 8 9 9 9 9 9
8 9 9 9 9 9 9 9 9 9 9 9 9 9 8 8 8 8 8 8 8 8 8 8 8 9 9 10 10 10 9 8 8 8 9 9 8 9 9 9 9 9 9
9 9 10 10 10 10 9 9 10 10 10 9 9 9 8 7 7 7 7 7 7 8 7 7 8 8 9 9 9 9 9 8 7 7 8 9 8 9 9 9 8 9 9
9 10 10 11 10 10 10 10 9 9 9 9 9 8 8 7 6 6 6 6 7 7 7 7 7 8 8 8 8 8 7 7 7 7 8 9 9 9 9 9 8 8 8
10 10 10 11 11 11 10 10 10 10 9 9 8 8 8 8 7 6 7 6 6 6 7 7 7 7 8 8 7 7 7 7 7 8 8 8 9 9 8 8 8 7 7
11 11 11 11 11 11 11 11 10 10 10 9 8 8 8 8 8 7 7 7 6 6 6 6 7 7 7 6 6 7 7 7 7 7 7 7 7 7 7 7 7 7 6
12 11 11 11 11 11 11 11 11 10 9 9 8 8 8 8 8 8 8 7 7 6 7 7 7 7 6 6 6 7 7 7 7 7 7 8 7 7 7 8 8 7 7
12 12 12 11 12 11 11 11 11 11 10 9 8 8 8 8 8 8 8 8 8 7 7 7 7 7 7 7 7 7 7 7 8 8 8 8 8 7 7 7 7 7 7
12 12 12 12 13 12 12 11 11 10 10 9 9 8 9 9 9 9 9 9 9 8 8 8 8 8 8 8 8 8 8 8 9 9 9 9 8 7 7 6 6 6 6
12 12 12 12 13 13 13 11 10 10 10 10 9 8 9 10 10 9 9 9 9 10 9 9 9 9 9 9 8 8 8 8 9 9 9 9 8 8 7 7 6 6 6
13 13 13 13 14 14 13 12 11 10 10 10 9 9 9 9 9 9 10 10 10 10 10 10 10 9 9 9 9 9 9 9 9 9 9 9 9 8 8 8 7 7 6
14 14 14 14 14 14 14 13 12 11 11 10 10 10 10 10 10 10 10 10 10 10 10 10 10 10 9 9 9 9 9 9 10 10 10 10 10 10 10 9 8 7 7
14 15 15 15 15 15 15 14 13 12 12 11 11 11 11 11 10 10 10 10 10 11 11 11 11 11 11 11 10 10 10 10 10 10 10 10 10 10 10 9 9 9 8
16 16 16 16 16 16 15 14 14 13 13 12 11 11 11 11 11 10 10 10 10 11 11 11 11 12 12 12 11 11 11 11 10 11 11 11 10 10 10 10 10 9 9

GEFSSE_500_meanwind_264.txt.gz
Wind_Speed
5 5 5 6 6 6 6 5 5 5 5 5 5 6 6 6 6 5 5 5 5 5 5 6 5 5 5 5 5 5 5 5 5 5 6 6 6 7 7 7 8 7 7
5 5 5 6 6 6 6 6 6 5 5 5 6 6 6 6 6 5 6 5 5 6 6 6 6 6 6 6 6 6 6 6 6 7 6 6 6 7 7 8 8 8 8
5 5 5 6 6 6 6 6 6 6 6 6 7 7 7 6 6 6 7 7 6 6 6 7 7 7 6 7 7 6 6 7 7 7 7 7 7 7 8 8 8 8 8
6 6 6 6 6 6 6 6 7 7 7 7 7 7 7 7 7 7 8 7 7 7 7 8 8 8 8 7 7 7 7 8 8 8 7 7 7 8 8 8 8 9 9
6 6 6 6 7 7 7 7 7 7 7 7 7 7 8 8 8 8 8 7 8 8 8 8 8 9 8 8 8 8 8 8 8 9 8 8 8 8 9 9 9 10 10
6 6 6 7 7 7 7 7 7 7 7 7 7 8 8 8 8 8 8 8 8 8 8 8 8 8 9 9 9 9 8 9 9 9 9 9 9 9 9 10 10 10 10
7 7 7 7 7 7 7 7 7 7 7 7 8 8 8 8 7 7 7 8 8 8 8 8 8 8 9 9 9 9 9 9 9 9 10 10 10 10 10 10 10 10 10
8 8 8 7 7 7 7 8 7 7 7 8 8 8 8 8 7 7 7 7 8 8 8 9 9 8 9 9 9 9 10 10 10 10 10 10 11 11 11 11 11 11 10
8 8 8 8 7 7 7 8 7 7 7 8 8 8 8 8 8 8 8 8 8 8 9 9 9 9 9 9 10 10 10 10 11 11 11 11 11 11 11 11 12 11 11
7 8 8 8 7 7 7 7 7 8 8 8 8 8 8 8 8 8 8 8 9 9 9 10 10 10 10 10 10 11 10 10 10 11 11 11 11 11 11 11 12 12 12
7 8 8 8 7 7 7 7 8 8 8 8 8 8 8 8 9 8 8 8 8 9 9 10 10 10 10 10 11 11 11 10 10 10 11 11 11 12 12 12 12 11 11
8 8 8 8 7 8 8 8 8 8 8 8 8 8 9 9 8 8 8 8 8 9 10 10 10 10 10 10 10 11 11 10 10 11 11 11 11 11 11 11 10 11 11
8 8 8 8 8 8 8 8 9 9 9 9 9 8 8 8 8 8 8 8 9 9 9 9 10 10 10 10 10 11 11 10 10 11 11 11 11 11 11 10 10 10 11
8 9 9 9 8 9 9 9 9 9 9 9 9 9 9 8 8 9 8 8 8 9 9 9 9 10 10 10 10 10 10 10 10 10 11 11 11 11 11 10 10 10 10
8 9 9 9 8 8 9 9 9 9 9 9 9 9 9 9 8 8 8 8 8 8 8 9 9 9 10 10 9 9 9 9 10 10 10 10 10 10 10 10 10 10 9
8 9 8 8 8 8 9 10 10 9 9 9 9 9 9 8 8 8 8 7 7 7 8 9 8 9 10 10 10 10 10 10 10 10 10 9 9 9 10 10 9 9 9
9 9 9 9 9 9 9 10 10 10 9 9 9 9 9 8 8 8 8 8 8 7 7 8 8 9 10 9 10 10 10 9 9 10 9 8 9 9 9 9 9 9 9
9 10 10 10 10 10 10 10 10 10 10 10 10 9 9 9 8 8 8 8 9 9 8 9 8 8 9 9 10 9 10 9 9 9 9 9 9 8 8 8 8 9 9
10 10 10 10 10 10 10 11 11 11 11 10 10 9 9 9 9 9 9 9 10 9 9 9 9 9 9 9 9 10 10 10 9 9 9 9 9 9 8 8 8 8 8
10 10 10 10 11 11 11 11 12 11 11 10 10 10 9 9 10 10 10 10 10 10 10 10 9 10 10 10 10 10 10 10 10 9 9 9 9 9 9 9 9 8 8
11 10 10 11 12 12 11 12 12 12 11 11 10 10 9 9 9 9 9 10 10 11 11 11 10 10 10 11 10 10 10 10 10 10 10 10 9 9 9 9 9 8 8
11 11 12 12 12 12 12 12 13 12 11 11 11 10 10 9 9 8 9 9 10 11 12 11 11 11 12 12 11 11 10 11 10 10 11 10 11 10 9 9 9 9 9
12 12 13 13 13 13 13 13 13 12 12 11 11 11 11 10 9 9 10 10 11 11 11 11 12 12 12 12 12 11 11 11 11 11 11 11 11 11 11 10 10 10 10
12 13 13 13 13 13 13 13 13 12 12 12 11 12 11 10 10 10 10 10 11 11 11 12 12 11 11 12 12 12 12 11 11 11 11 11 12 12 12 12 11 11 11
13 13 14 13 13 13 13 13 13 13 13 12 12 12 12 11 11 10 10 11 11 11 11 11 11 11 12 13 13 12 12 12 11 12 12 12 13 13 13 12 12 12 11
14 14 14 13 13 13 13 13 13 13 13 13 13 13 12 12 11 12 12 12 12 12 12 12 12 12 12 12 13 13 12 12 12 12 12 13 13 14 14 13 13 13 12